GFSNGP_925_thetae_003.txt.gz
Theta_e
318 318 317 318 318 318 321 320 320 318 317 317 315 314 314 315 312 312 311 308 307 306 306 307 306 304 302 301 300 299 299 299 300 298 297 297 297 297 298 299 299 300 300 300
315 314 313 313 312 312 314 316 317 317 318 316 314 313 317 314 313 312 309 307 307 309 305 304 303 301 299 297 296 296 295 296 295 294 294 294 294 295 296 296 296 297 297 300
314 314 315 318 316 314 313 313 313 314 314 313 316 317 318 317 313 311 306 308 308 305 303 302 300 297 296 295 294 294 293 292 291 291 291 292 292 293 293 293 293 293 296 296
315 315 320 317 315 315 315 316 314 314 313 314 316 315 312 313 310 307 308 306 304 301 300 299 296 295 295 294 292 291 291 289 288 288 289 289 290 290 290 291 291 292 293 293
316 317 316 318 315 317 318 317 314 315 315 315 313 312 308 307 307 306 305 303 301 299 298 296 294 293 292 291 289 288 288 287 287 287 287 288 288 288 289 289 290 290 290 292
306 314 320 318 315 314 313 316 317 317 317 317 315 316 311 307 306 306 304 301 299 298 296 294 292 291 289 288 287 287 287 287 287 287 287 287 287 287 287 288 288 288 288 289
314 316 315 314 314 314 318 315 315 317 316 318 314 311 306 305 304 301 300 298 297 295 293 292 290 288 287 287 286 286 286 286 286 286 286 286 286 286 286 287 287 287 287 288
314 315 316 314 315 318 313 311 311 311 313 312 310 308 306 303 301 300 298 296 293 292 291 289 287 287 286 286 286 286 286 286 285 285 285 285 285 286 286 286 286 286 286 288
315 314 312 311 311 310 309 310 309 309 308 309 308 308 305 302 301 299 296 293 290 289 288 287 286 286 286 285 285 285 285 285 285 285 285 285 285 285 285 285 285 286 287 287
315 314 313 312 306 306 306 306 306 307 307 306 308 306 304 303 300 299 294 290 288 288 286 286 286 285 285 285 285 285 285 285 285 284 285 285 284 285 285 284 285 286 287 288
312 312 311 310 309 308 306 305 305 304 303 303 304 302 300 299 299 294 290 288 287 286 286 286 285 285 285 285 285 285 285 284 284 284 284 284 284 284 284 285 286 287 287 287
312 310 309 309 308 305 306 305 303 301 299 299 299 299 299 298 293 290 288 287 286 286 285 285 285 285 284 284 285 285 284 284 284 284 284 284 283 284 284 285 286 286 286 287
310 308 306 306 305 303 304 303 302 300 299 298 298 297 295 291 288 288 286 286 286 285 285 285 284 284 284 284 284 284 284 284 284 284 283 283 283 283 284 284 285 285 286 286
306 307 308 304 305 299 300 297 297 296 297 297 295 292 289 287 286 286 286 285 285 285 285 284 284 284 284 284 284 284 284 284 284 283 283 283 283 284 284 284 284 284 284 285
302 302 303 301 298 298 296 296 295 295 294 292 291 289 287 286 285 285 285 285 285 284 284 284 284 284 283 283 283 283 283 283 283 283 283 284 284 284 284 284 284 284 284 284
298 295 293 296 297 298 295 294 294 293 292 290 287 286 286 285 285 285 285 284 284 283 284 284 283 283 283 283 283 283 283 283 283 283 283 283 283 283 283 283 283 283 284 284
297 296 296 297 296 298 296 295 295 294 290 286 285 285 285 284 284 284 284 284 283 283 283 283 283 283 283 283 283 283 283 282 283 283 282 283 283 282 282 283 283 284 283 283
297 295 294 296 296 297 296 294 291 287 285 286 285 285 284 283 282 283 283 283 283 283 283 282 282 282 283 283 283 282 282 282 282 282 282 282 282 282 283 282 283 283 283 283
294 294 294 295 295 294 292 287 287 286 285 285 284 284 284 283 283 282 282 282 282 281 282 282 282 282 282 282 282 282 282 282 282 282 282 282 282 282 282 282 282 282 282 282
291 289 290 293 293 291 287 287 286 285 285 284 284 283 282 282 282 282 282 281 281 281 281 282 282 282 282 281 281 282 282 282 282 282 282 282 282 281 281 282 282 282 281 280
290 288 286 286 285 286 286 285 285 284 284 284 283 282 282 282 282 281 281 280 281 281 281 281 281 281 281 281 282 282 282 282 282 282 282 281 281 281 281 281 280 280 280 280
288 286 285 285 284 284 285 285 285 284 284 283 283 282 281 281 281 281 280 280 280 280 281 280 280 280 281 282 282 282 281 281 281 281 281 281 281 280 279 279 279 279 279 279
290 287 286 284 283 284 285 285 285 284 283 283 282 281 281 281 280 280 280 280 280 280 280 280 280 281 281 281 281 281 280 280 279 279 279 279 279 279 278 279 279 279 279 279
290 288 286 286 285 284 282 284 284 284 283 282 282 281 281 280 280 280 280 280 279 279 279 279 279 280 280 280 278 278 278 278 278 278 278 279 279 278 278 279 279 279 279 279
290 289 286 285 282 283 284 284 283 283 281 281 280 280 280 280 279 279 278 278 278 278 278 278 279 278 278 277 277 278 277 278 278 278 279 279 279 279 279 279 279 279 279 278
286 285 285 285 284 284 283 282 280 280 280 280 279 279 279 279 278 278 278 278 278 277 277 277 277 277 277 277 277 277 277 277 278 277 278 278 278 278 278 278 278 278 278 278
285 285 283 282 282 282 281 280 280 279 279 278 278 278 278 277 277 277 277 276 276 276 276 276 276 276 277 277 277 277 277 277 277 277 277 278 278 278 278 278 278 278 278 278

GFSNGP_925_thetae_006.txt.gz
Theta_e
318 317 317 319 320 320 320 318 318 317 317 316 314 312 312 310 311 312 309 307 306 306 304 304 302 300 299 298 297 295 294 294 292 290 289 289 289 289 290 290 290 291 291 291
313 313 313 314 313 313 315 318 318 317 317 314 313 311 315 315 311 311 307 306 308 306 301 301 300 298 297 296 294 292 292 290 288 288 287 287 287 288 288 288 288 289 289 290
313 313 315 317 315 313 311 310 311 312 311 312 314 315 314 314 311 309 305 308 306 302 301 300 297 296 295 293 291 289 289 287 287 287 287 286 287 287 287 287 287 288 288 289
314 315 320 317 312 313 313 314 312 312 312 313 315 311 309 308 309 305 308 305 302 300 299 297 295 294 292 290 288 287 287 287 286 286 286 286 286 286 286 286 286 286 287 287
316 316 316 317 316 316 318 317 314 315 315 316 313 309 310 307 306 305 303 301 300 299 297 295 292 291 289 287 287 286 286 286 286 286 286 285 285 285 285 285 285 286 286 286
307 315 320 316 315 313 313 314 315 316 316 316 314 314 311 306 305 303 301 300 299 297 295 292 289 288 287 286 286 286 286 286 286 285 285 285 285 285 285 285 285 285 285 285
314 314 313 311 312 313 317 312 312 312 312 311 314 310 306 304 302 300 300 298 296 294 292 289 287 287 286 286 285 285 285 285 285 285 285 285 285 284 284 284 284 284 284 285
311 314 314 312 314 318 311 311 309 308 308 309 307 306 304 302 301 300 298 295 293 292 289 288 287 286 286 285 285 285 285 285 285 285 284 284 284 284 284 284 284 284 284 285
312 312 311 309 310 309 308 308 309 309 308 308 307 306 305 303 302 300 296 292 290 289 288 287 286 286 285 285 284 284 284 285 285 284 284 284 284 283 283 284 283 284 285 286
314 312 310 309 308 307 307 307 306 306 306 306 306 306 303 301 299 297 293 290 289 288 286 286 286 285 284 284 284 284 284 284 284 283 284 284 283 283 283 283 283 284 285 286
311 311 309 307 307 306 305 305 305 304 304 303 303 303 301 299 298 295 290 289 287 286 286 285 285 285 284 284 284 284 284 283 283 283 283 283 283 283 283 283 284 285 285 285
312 309 309 308 307 306 305 305 303 302 302 299 299 299 298 297 294 291 288 287 286 285 285 285 284 284 284 284 284 284 283 283 283 283 283 283 283 282 283 284 284 285 285 285
309 306 305 306 303 303 305 303 301 300 299 298 299 298 296 291 289 288 286 286 285 285 284 284 284 284 284 284 283 283 283 283 283 283 283 283 282 282 283 283 283 283 284 284
305 305 307 306 305 300 298 296 297 297 298 298 298 294 291 288 287 286 285 285 285 284 284 284 284 284 284 283 283 283 283 283 283 283 282 282 283 283 283 283 283 283 283 283
303 302 303 300 296 296 296 296 296 295 295 294 293 290 287 285 285 285 285 284 284 284 284 283 283 283 283 283 282 282 282 282 282 282 282 283 283 282 282 282 282 282 282 283
299 295 291 295 296 295 296 296 296 295 293 291 288 286 285 285 285 285 285 284 283 282 283 283 283 283 282 282 282 282 282 282 283 282 282 282 282 282 282 282 282 282 282 282
297 294 289 290 295 294 296 295 293 295 293 289 286 285 285 284 284 284 283 283 283 282 282 282 282 282 282 282 282 282 282 282 282 282 281 282 282 282 282 282 282 282 282 282
295 293 294 296 295 295 295 294 294 292 288 286 285 285 284 283 282 282 282 282 282 282 282 282 282 282 282 282 282 282 282 281 281 281 281 281 281 282 282 281 281 282 281 281
295 294 293 294 294 293 293 292 290 287 286 285 284 283 283 283 282 282 282 281 281 280 281 281 281 281 281 281 281 281 281 281 281 281 281 282 282 282 282 281 281 281 281 281
292 291 291 293 294 293 290 289 287 285 285 284 284 283 282 282 282 282 281 280 281 281 281 281 281 281 280 280 280 281 281 281 281 282 281 282 281 281 281 281 281 281 280 280
290 289 287 288 288 289 288 287 285 283 284 284 283 283 282 282 282 281 280 279 281 281 281 281 280 280 280 280 281 282 281 281 281 281 281 281 280 280 280 280 279 279 279 279
290 288 287 286 284 284 284 284 284 284 284 284 283 282 281 281 281 281 281 280 280 280 280 280 280 279 280 281 281 281 280 280 279 279 279 278 279 278 278 278 278 278 278 278
290 290 289 286 284 284 284 284 284 284 284 283 283 282 281 281 280 279 279 280 280 280 280 279 279 280 280 281 280 279 278 278 277 278 278 277 277 278 278 278 278 278 278 278
289 290 289 288 285 283 281 283 284 284 283 283 282 281 280 280 280 280 279 279 279 278 279 279 278 279 280 279 277 277 277 277 277 277 277 277 277 278 278 278 278 278 278 278
289 289 288 285 282 282 283 283 283 283 282 281 281 280 280 279 278 278 278 278 277 278 277 277 278 278 277 276 277 277 277 276 277 277 278 277 277 277 277 277 278 278 278 278
287 286 286 285 284 284 283 282 281 281 280 279 280 279 278 278 278 277 277 277 277 276 276 276 275 276 276 276 276 276 277 276 276 276 276 276 276 277 277 277 277 277 277 277
285 285 284 283 283 282 281 281 280 279 279 278 278 278 278 277 276 276 276 275 275 275 275 275 275 275 276 276 276 276 276 276 276 276 276 276 276 276 276 276 277 277 277 277

GFSNGP_925_thetae_009.txt.gz
Theta_e
316 316 318 319 321 317 316 315 318 317 316 316 315 314 312 312 311 311 311 305 306 306 303 301 300 298 297 296 294 292 291 288 287 287 287 286 286 286 286 286 286 286 286 286
313 313 313 314 314 318 318 318 316 317 316 312 312 312 314 314 311 311 308 305 307 304 300 300 298 296 295 293 291 288 288 287 287 286 286 286 286 286 286 286 286 285 285 285
314 313 315 314 313 311 310 310 312 312 311 312 314 314 314 314 310 310 306 306 306 302 300 299 296 294 293 291 288 287 287 286 286 286 286 286 285 285 285 285 285 285 285 285
313 314 318 313 312 313 312 313 311 314 314 314 314 312 310 309 310 307 305 306 302 300 298 295 294 293 291 288 287 286 286 286 285 285 285 285 285 285 284 284 284 284 284 285
318 316 315 317 315 313 316 317 314 315 315 314 312 310 310 307 305 305 303 301 300 299 296 294 293 291 288 287 286 285 285 285 285 285 285 285 284 284 284 284 284 284 284 284
311 317 322 316 314 313 311 319 313 314 314 315 311 313 310 306 304 301 301 300 298 297 294 293 289 287 286 286 285 285 285 285 285 285 285 284 284 284 284 283 283 283 283 283
316 316 315 311 312 312 317 312 312 310 311 310 310 310 307 303 302 301 299 298 297 295 292 289 287 286 286 285 285 284 284 285 285 284 284 284 284 284 283 283 283 283 283 283
312 315 318 311 313 316 310 309 308 308 308 309 309 307 305 303 301 299 296 295 294 292 289 287 286 286 285 285 284 284 284 284 284 284 284 283 284 283 283 283 282 282 283 283
312 312 309 309 310 308 307 307 308 309 308 307 307 306 305 303 300 298 296 293 291 290 288 286 286 285 285 284 284 284 284 284 283 283 283 284 283 283 283 282 282 282 283 284
313 310 310 309 307 307 308 309 307 306 306 306 306 305 304 301 299 296 293 291 290 288 287 286 286 285 284 284 284 284 283 283 283 283 283 283 283 283 282 282 282 283 284 285
311 310 308 307 307 307 307 305 305 304 304 304 302 302 301 299 297 295 292 290 288 287 285 285 285 284 284 284 284 283 283 283 283 282 283 283 283 282 282 282 283 284 284 284
311 308 307 307 306 305 305 305 304 303 302 299 299 299 298 297 297 292 290 288 286 285 285 284 284 284 284 284 283 283 282 282 282 282 283 282 282 282 282 283 283 284 284 284
308 305 305 305 303 302 304 300 297 296 296 299 298 297 298 293 290 289 287 285 285 284 284 284 284 284 283 283 283 282 282 282 282 282 282 282 282 282 282 282 282 282 283 283
304 304 306 305 303 297 296 296 297 297 297 297 298 296 294 290 288 286 285 285 284 284 284 283 283 283 283 283 282 282 282 282 282 282 282 282 282 282 282 282 282 282 282 282
302 300 300 297 296 296 296 296 296 296 295 295 295 293 289 286 285 285 285 284 284 283 283 283 283 283 283 282 281 281 282 281 281 282 282 282 282 281 281 281 282 281 281 281
295 292 292 295 295 294 293 294 295 295 295 293 290 288 287 285 284 284 284 283 283 282 283 283 282 282 282 281 281 281 281 281 282 282 281 281 281 281 281 281 281 281 281 281
297 297 291 288 289 294 294 293 296 295 292 291 289 287 285 284 284 283 283 283 282 282 282 282 282 281 281 281 281 281 281 281 281 281 280 281 281 281 281 281 282 281 281 281
295 292 293 296 294 294 294 293 293 293 291 292 287 285 283 283 282 283 283 283 282 282 282 282 281 281 281 281 280 281 281 280 280 280 281 281 281 281 282 281 281 281 281 281
295 295 294 293 293 292 292 292 293 293 289 286 284 283 283 283 283 283 282 281 281 280 281 281 281 281 281 280 280 280 280 280 280 280 281 281 281 281 281 281 281 280 280 280
293 293 292 292 293 293 292 292 292 288 286 285 284 283 282 283 282 282 281 280 281 281 281 280 281 280 280 280 280 280 280 281 281 281 280 280 280 280 280 279 279 279 279 279
290 290 289 288 289 292 292 291 288 285 285 284 283 283 282 283 282 281 280 279 281 281 281 280 280 279 279 279 280 281 281 280 280 279 279 278 278 278 278 278 278 278 278 278
289 289 288 288 285 285 286 286 286 285 284 283 283 283 282 282 281 281 281 280 280 280 280 279 279 279 280 281 281 280 280 279 278 277 277 277 277 277 277 277 277 277 278 278
288 289 289 288 286 285 286 284 284 283 283 283 283 282 281 281 281 279 278 280 279 279 279 279 279 279 280 280 279 278 277 277 276 277 277 276 276 276 277 277 277 278 277 277
288 289 289 290 288 284 281 284 283 283 283 283 282 282 281 280 279 279 279 278 278 278 279 278 278 279 279 278 277 276 276 276 276 276 276 277 277 277 277 276 276 277 277 277
288 288 287 287 283 283 284 283 283 282 282 281 281 280 280 279 278 278 278 277 277 277 277 277 277 277 276 276 276 276 276 276 276 276 277 276 276 276 276 276 276 276 277 277
286 286 287 286 285 284 283 282 281 281 280 280 280 279 278 278 278 277 276 276 276 276 275 275 275 275 276 275 275 276 276 276 276 276 276 276 276 276 276 276 276 276 276 276
286 285 284 283 282 282 282 281 280 279 278 278 277 278 277 277 276 276 276 275 275 275 274 274 274 274 275 275 275 275 275 275 275 275 276 276 275 275 275 275 275 275 275 275

GFSNGP_925_thetae_012.txt.gz
Theta_e
314 317 318 318 319 314 315 315 319 318 315 315 314 314 313 311 312 311 309 306 307 305 301 299 297 296 295 294 291 289 288 287 286 286 286 286 286 285 285 285 285 285 285 285
313 312 313 317 318 314 314 314 315 315 315 312 311 311 313 313 312 311 310 305 306 303 300 298 296 295 294 291 289 287 287 286 286 286 286 285 285 285 285 285 284 284 284 284
316 313 314 313 311 316 315 314 315 317 314 311 315 314 314 314 312 312 308 304 305 301 299 297 295 294 292 290 287 286 286 286 286 285 285 285 285 284 284 284 284 284 283 284
311 314 313 312 312 309 311 311 310 313 313 313 313 311 310 309 309 308 307 305 302 299 297 295 294 292 290 287 286 286 286 285 285 285 285 285 284 284 284 284 283 283 283 283
315 313 313 317 312 313 315 317 314 314 314 312 311 310 310 307 306 304 303 301 300 299 296 294 292 289 287 286 286 285 285 285 285 284 284 284 284 284 284 283 283 283 283 283
312 318 319 315 314 311 313 319 313 313 313 313 311 312 310 307 304 302 300 300 297 295 294 292 289 288 286 286 285 284 284 284 284 284 284 284 283 283 283 283 282 282 282 282
316 317 315 312 312 311 317 315 312 310 310 310 310 308 306 303 301 300 298 297 295 294 292 289 288 287 286 285 284 284 284 284 284 284 283 283 283 283 283 283 282 282 282 282
313 316 318 310 312 315 310 308 308 307 307 308 307 307 305 302 300 297 295 294 294 291 289 288 286 286 285 284 284 284 284 284 283 283 283 283 283 283 283 282 282 281 281 282
312 313 309 308 311 307 307 307 307 307 306 307 307 307 305 303 299 297 295 293 292 290 288 286 285 285 284 284 284 284 283 283 283 283 283 283 283 283 282 281 281 281 282 283
312 311 310 308 307 306 307 307 306 305 305 305 306 303 303 301 298 296 293 291 290 288 287 286 285 284 284 284 284 283 283 283 283 282 282 282 282 282 282 281 281 282 283 284
310 309 308 307 307 306 305 304 304 303 303 302 302 301 300 298 296 294 292 290 289 287 285 285 284 284 284 284 283 283 282 282 282 282 282 282 282 281 282 282 282 283 283 283
312 307 307 306 305 304 304 303 300 302 302 299 299 298 297 296 296 293 291 288 286 285 285 284 284 284 284 283 283 282 282 281 281 282 282 281 281 281 281 282 282 282 283 283
308 304 303 302 301 302 300 298 297 296 296 298 297 297 297 293 291 291 287 286 285 284 284 284 284 283 283 283 282 282 281 281 282 282 281 281 281 281 281 281 281 282 282 282
302 303 304 303 302 297 296 296 297 297 297 296 297 296 294 289 289 287 286 285 284 284 284 283 283 283 282 282 281 281 281 281 281 281 281 281 281 281 281 281 281 281 281 281
299 298 300 296 295 296 295 294 295 295 295 296 295 295 291 287 286 285 285 284 284 284 283 282 282 282 282 281 281 281 281 281 281 281 281 281 281 281 281 281 281 281 281 281
295 293 292 294 295 291 291 291 295 294 295 295 294 292 289 287 285 285 284 284 283 282 282 282 282 282 281 281 281 281 280 280 281 281 281 281 280 280 281 281 281 281 281 281
297 297 291 288 287 292 293 293 293 294 294 291 291 290 287 285 284 283 283 283 282 282 282 282 282 281 281 281 280 280 280 280 280 280 280 280 280 280 281 281 281 281 280 280
296 292 292 293 293 293 293 293 293 293 291 293 292 288 284 283 282 283 283 282 282 282 282 282 281 281 281 280 280 280 280 280 280 280 280 280 280 281 280 280 280 280 280 279
294 293 293 293 292 291 292 292 293 293 293 291 287 284 284 283 283 282 282 282 282 280 282 281 281 281 280 280 280 280 280 280 280 280 280 280 279 280 279 279 279 279 279 278
293 293 292 292 292 293 292 293 293 291 290 286 285 283 282 282 282 282 282 281 282 281 281 280 281 280 279 279 279 280 280 280 280 280 279 279 279 278 278 278 278 278 277 278
291 290 290 289 289 290 291 292 290 287 287 285 283 282 282 282 282 282 281 279 282 281 281 280 279 279 279 279 280 281 280 280 279 279 278 277 277 277 277 277 277 276 277 277
289 288 289 288 287 287 288 288 287 286 285 284 283 282 282 282 282 281 281 280 281 280 279 279 279 279 279 280 280 280 279 278 277 277 276 276 276 276 276 276 276 276 277 277
288 288 289 288 287 287 287 286 285 284 283 283 282 282 282 281 281 280 278 280 279 279 279 279 278 279 279 280 279 278 277 276 276 276 276 276 275 275 276 276 276 276 276 276
288 288 288 289 288 286 284 286 284 283 282 282 282 282 281 280 280 280 279 278 278 278 278 278 278 278 279 278 276 276 275 275 275 275 275 276 276 276 276 275 275 275 275 275
288 287 287 286 284 284 285 283 282 281 281 281 281 280 280 279 278 278 278 277 277 277 276 276 276 276 276 275 275 275 275 275 275 276 276 276 275 275 275 275 275 275 276 275
286 286 286 285 285 284 283 282 281 280 280 280 279 279 278 278 277 277 276 276 275 275 275 274 274 275 275 275 274 275 275 275 275 275 275 275 275 275 275 275 274 274 274 274
285 285 284 282 282 282 281 281 280 278 278 278 278 278 277 276 276 275 275 275 274 274 274 274 274 274 274 274 274 274 274 274 274 275 275 275 274 274 274 274 273 273 273 273

GFSNGP_925_thetae_015.txt.gz
Theta_e
314 317 317 317 317 312 315 316 320 318 315 314 314 314 313 312 311 311 309 308 307 306 302 298 295 295 294 292 290 288 288 287 286 286 286 286 286 285 285 285 284 284 284 283
313 314 316 319 316 315 314 313 314 314 315 311 310 311 312 312 310 310 310 307 308 304 300 297 295 294 293 290 288 287 286 286 285 285 285 285 285 284 284 284 284 283 283 283
318 312 312 317 313 315 315 312 315 317 317 310 314 313 312 311 311 311 309 307 307 303 300 296 295 294 291 289 287 286 285 285 285 285 285 285 284 284 284 284 283 283 283 283
312 312 315 314 310 313 315 311 311 311 309 312 312 310 309 308 309 308 307 305 304 300 297 294 293 291 290 287 286 285 285 285 284 284 284 284 284 284 284 283 283 282 282 282
315 313 313 315 312 311 314 315 309 313 312 311 309 309 310 307 305 304 304 303 301 299 295 293 292 290 288 286 285 285 285 284 284 284 284 283 283 283 283 283 283 282 282 282
313 317 316 314 313 310 313 318 313 313 312 311 310 313 311 305 303 301 300 299 297 295 293 292 289 288 286 285 285 284 284 284 284 284 283 283 283 283 283 283 282 282 282 281
316 316 315 312 312 310 318 316 312 311 311 310 310 309 306 303 301 298 297 296 294 293 292 290 287 286 286 285 284 284 284 284 284 283 283 283 283 283 283 282 282 281 281 281
313 316 317 310 312 315 311 308 308 307 307 308 306 305 304 302 300 297 295 294 293 290 289 287 287 286 285 284 284 284 283 283 283 283 283 283 283 282 282 281 281 281 281 282
312 313 309 308 310 307 306 307 307 306 305 305 305 305 303 302 299 296 294 293 292 290 287 286 285 285 284 284 284 283 283 283 283 283 282 282 282 282 281 281 281 281 282 283
311 310 309 307 306 306 306 306 305 304 304 304 305 303 302 300 298 296 293 290 290 289 287 285 285 284 284 283 283 283 283 282 282 282 282 282 282 281 281 281 281 282 283 283
309 308 308 308 307 304 303 302 302 301 302 301 301 301 299 298 297 294 291 290 290 288 286 285 284 284 283 283 283 282 282 282 282 281 282 281 281 281 281 281 282 283 283 283
312 307 308 307 304 303 303 302 301 301 300 298 299 298 297 296 296 293 290 289 287 286 285 284 283 283 283 283 282 282 282 281 281 281 281 281 280 280 281 281 282 282 282 282
307 303 302 301 300 301 299 298 297 296 297 297 296 297 296 294 293 292 289 287 285 284 284 283 283 283 283 282 282 282 281 281 281 281 280 280 280 281 281 281 281 281 281 282
301 302 303 302 302 297 297 298 298 296 296 296 296 296 294 291 291 288 286 285 284 284 283 283 283 283 282 282 281 281 281 281 280 280 280 281 281 281 281 280 281 281 280 281
300 299 301 296 295 295 294 293 294 294 294 295 296 296 294 288 286 286 285 284 284 283 283 283 282 282 282 281 281 281 280 280 280 280 281 281 281 280 280 280 280 280 281 281
294 293 294 296 295 293 291 291 294 294 293 293 294 294 291 288 287 284 283 283 283 282 282 282 282 282 281 281 281 281 280 280 280 280 280 280 280 280 280 280 281 280 280 280
298 295 292 289 291 291 292 293 293 293 293 293 292 292 288 285 283 283 283 283 283 283 282 282 282 281 281 281 280 280 280 280 280 280 279 280 280 280 280 280 280 280 279 279
298 296 295 293 291 292 292 292 292 292 293 292 292 290 286 283 283 283 283 282 282 282 282 282 281 281 281 280 280 280 280 279 279 279 280 280 280 280 279 279 279 278 278 278
292 292 291 291 291 291 291 291 292 293 292 292 289 286 286 284 283 283 282 282 281 281 282 282 281 281 280 279 280 280 280 280 279 279 279 280 279 279 278 278 278 278 278 277
291 291 291 291 292 292 291 292 292 292 291 290 287 284 282 282 282 282 282 281 282 282 281 281 280 280 279 279 279 280 280 280 279 279 279 279 278 277 277 277 277 277 277 276
290 289 289 289 289 291 291 291 290 289 288 286 284 283 282 282 282 281 281 280 282 281 281 280 279 279 279 279 280 280 280 279 278 278 277 277 276 276 276 276 276 276 276 276
288 288 288 288 287 287 288 288 288 287 286 285 284 283 282 281 281 281 281 281 281 280 279 279 279 278 279 280 280 279 278 278 277 276 276 276 276 276 275 275 275 276 276 276
288 288 288 288 288 288 287 286 285 284 284 283 282 281 281 281 281 280 279 280 279 279 279 278 278 279 279 279 278 277 276 276 275 275 275 275 275 275 275 275 275 275 275 275
288 287 288 288 288 286 285 285 284 283 282 281 281 281 281 281 281 280 279 278 278 278 278 277 277 278 278 277 276 275 275 275 275 275 275 275 275 275 275 274 274 275 275 275
288 286 286 286 284 284 284 282 281 281 281 280 280 280 279 279 278 278 277 277 276 276 276 276 276 276 276 275 275 274 274 274 274 275 275 275 274 274 275 274 274 274 275 274
285 284 284 284 284 283 282 281 280 280 280 279 279 278 278 277 277 276 276 275 275 275 275 275 275 275 275 274 274 274 274 274 274 274 274 274 274 274 274 274 273 273 273 273
284 283 282 281 281 281 281 281 280 278 279 278 278 277 276 276 275 275 274 274 274 274 274 275 274 274 274 274 274 274 273 273 273 274 274 274 273 273 273 272 272 272 272 272

GFSNGP_925_thetae_018.txt.gz
Theta_e
321 321 321 322 323 321 324 325 326 326 323 321 321 320 321 319 317 317 316 315 314 313 311 306 302 299 297 294 292 290 290 289 289 288 288 287 287 287 287 286 286 286 286 286
319 318 321 321 321 322 324 325 324 322 323 319 318 317 316 319 318 317 316 314 313 312 310 305 301 298 296 293 290 289 289 288 287 287 287 287 287 286 286 286 286 286 286 285
325 316 319 323 322 320 319 320 321 323 322 317 316 316 317 317 316 316 315 314 313 312 308 303 300 298 295 292 289 289 288 287 287 286 286 286 286 286 286 286 286 286 285 285
322 317 329 323 314 319 321 320 319 319 318 318 318 317 315 315 315 314 313 312 312 309 304 300 297 295 291 290 289 288 287 287 286 286 286 286 286 286 286 286 286 285 285 285
321 321 320 316 314 316 320 321 317 318 315 316 314 314 313 311 310 310 310 310 308 306 301 297 295 292 291 289 287 287 287 286 286 285 285 285 285 285 285 285 285 285 284 284
321 322 324 317 315 313 316 320 315 316 316 315 315 319 317 310 307 307 306 305 303 299 296 295 292 290 290 287 287 287 286 285 285 285 285 285 285 285 285 284 284 284 284 284
325 326 318 314 314 313 319 321 315 315 315 315 316 314 310 306 305 304 302 300 297 296 296 293 290 288 287 286 287 286 285 285 285 285 284 284 284 284 284 284 284 284 283 283
322 322 323 313 313 318 317 315 315 315 314 313 311 309 308 306 303 301 299 297 296 295 293 290 288 287 286 287 285 285 284 284 284 284 284 284 284 284 284 283 283 283 283 284
318 319 313 311 313 311 314 313 312 311 310 310 309 309 308 306 303 301 298 296 295 294 291 288 286 286 287 286 284 284 284 284 284 284 284 284 284 283 283 283 283 283 283 284
314 312 312 310 309 310 311 310 309 309 309 309 309 308 307 306 304 301 298 296 294 292 290 288 287 285 285 284 284 284 284 284 284 284 284 284 283 283 283 283 283 283 284 284
313 311 311 310 310 309 308 307 307 306 307 307 307 306 305 304 303 301 297 294 293 293 291 288 285 285 284 284 283 284 284 284 284 284 284 283 283 282 282 282 283 283 283 283
319 314 315 313 309 308 308 308 307 306 304 303 304 304 303 303 301 299 296 293 292 290 288 285 285 284 283 283 283 283 283 284 283 283 283 282 282 282 282 282 282 282 282 282
314 311 309 310 308 306 307 305 304 305 303 302 300 301 301 301 298 295 293 291 290 288 286 285 284 284 283 283 282 283 283 283 283 283 282 282 282 282 283 282 282 282 282 282
307 307 307 307 308 304 303 302 300 300 300 300 299 299 298 297 296 293 291 289 287 285 285 284 284 284 283 282 282 282 282 282 282 282 282 282 282 282 282 282 282 282 282 282
306 303 308 304 302 301 300 299 299 299 299 298 298 298 296 294 293 291 287 285 285 284 284 283 283 283 282 282 282 282 282 282 281 282 282 282 282 281 281 282 282 282 281 281
300 300 302 302 300 298 297 297 298 298 297 297 297 296 295 293 291 287 285 284 284 285 284 283 283 283 282 281 282 282 282 281 281 281 281 281 281 281 281 281 281 281 281 281
301 300 298 297 297 298 299 298 298 297 297 296 295 295 291 289 287 285 284 284 283 283 283 282 283 282 281 281 281 281 281 281 281 281 281 281 281 281 281 281 281 280 280 280
305 303 302 301 299 297 296 296 296 296 296 295 294 293 291 288 289 286 284 283 282 282 282 282 282 281 282 281 281 281 281 281 281 281 281 281 281 281 280 280 280 279 279 279
301 300 297 296 296 296 296 295 295 295 294 293 292 292 290 288 287 284 283 283 283 283 284 282 281 281 281 280 280 280 281 281 281 281 280 280 280 280 279 279 279 279 279 278
295 295 295 294 294 294 294 294 293 293 292 292 291 289 288 286 284 283 282 283 283 283 282 281 281 281 280 280 280 281 281 281 280 280 279 279 279 279 279 278 278 278 278 277
294 294 293 294 293 292 292 292 292 292 290 288 287 287 286 284 282 282 282 283 283 281 281 281 280 280 279 280 281 281 280 280 279 279 278 278 278 278 278 278 277 277 277 277
292 292 292 291 291 290 289 289 289 288 287 285 284 284 283 282 282 281 281 282 281 280 280 280 280 279 280 280 280 280 279 278 278 278 278 277 277 277 277 277 277 277 277 276
291 290 290 290 290 289 287 286 285 285 285 284 283 282 282 282 282 282 283 280 280 279 280 279 279 279 279 279 279 278 277 277 277 277 277 277 277 277 276 276 276 276 276 276
289 289 289 288 287 287 289 284 283 282 282 282 281 281 281 281 280 280 279 279 278 278 278 278 277 278 278 277 276 276 276 276 276 276 276 276 276 276 276 276 275 275 275 275
288 286 286 286 287 287 284 281 281 281 281 280 280 280 280 279 279 278 277 276 276 276 276 276 276 276 276 276 276 276 276 276 276 276 276 276 275 275 275 275 275 275 275 274
286 286 285 285 285 284 282 282 282 281 280 280 279 278 277 277 276 276 276 275 275 275 275 275 275 275 275 275 275 275 275 275 275 275 275 275 275 275 275 274 274 274 274 273
284 283 282 282 281 281 281 281 281 280 279 279 278 276 276 275 275 275 274 274 274 274 274 274 274 274 275 275 275 275 275 274 274 274 274 274 274 273 273 273 273 273 273 272

GFSNGP_925_thetae_021.txt.gz
Theta_e
322 323 325 327 328 328 330 330 329 327 325 324 323 323 322 321 320 320 319 318 317 316 314 311 308 304 302 299 296 294 293 292 291 290 290 289 289 289 288 288 288 288 288 288
323 322 322 323 324 326 326 327 326 325 326 325 323 321 322 321 320 320 319 318 317 316 314 311 307 304 300 297 294 293 292 291 290 289 289 289 288 288 288 288 288 288 288 288
326 321 322 325 323 323 323 323 324 326 325 325 320 320 320 321 320 319 318 317 316 316 314 310 306 302 299 296 293 292 291 290 289 288 288 288 288 288 288 288 288 288 288 287
328 322 330 324 318 321 322 322 323 324 323 321 320 319 319 318 318 318 317 316 315 314 312 307 303 300 296 293 292 291 290 289 288 288 288 287 287 288 288 288 287 287 287 286
326 325 324 323 317 319 322 323 321 321 321 319 319 316 315 314 315 315 314 314 313 311 307 303 299 296 294 292 290 289 289 289 288 287 287 287 287 287 287 287 287 286 286 285
324 325 328 320 317 315 320 323 321 321 320 319 317 320 318 312 311 311 310 310 309 305 301 299 297 294 293 291 289 289 288 287 287 287 287 287 286 287 286 286 286 285 285 285
329 329 327 317 316 316 320 324 316 318 318 317 318 318 313 310 309 308 307 304 302 300 299 296 294 293 292 289 289 287 287 287 286 286 286 286 286 286 286 286 285 285 285 285
328 330 330 316 315 319 319 316 316 317 317 316 313 311 310 308 306 304 302 300 300 299 296 294 292 292 290 289 287 287 286 286 286 286 286 286 286 286 285 285 285 284 284 285
325 326 316 314 315 314 316 317 316 315 314 312 311 310 308 306 304 302 300 299 298 297 294 292 290 289 289 288 286 286 286 286 286 286 286 286 286 285 285 284 284 284 284 285
316 315 315 313 312 313 315 314 313 312 311 311 310 309 308 306 304 302 300 298 298 296 293 291 289 287 287 286 286 286 286 286 286 286 286 286 285 285 284 284 284 284 284 284
316 314 313 312 313 312 312 311 310 310 310 310 309 308 307 307 305 303 300 298 297 296 294 291 289 287 286 285 285 285 286 286 286 286 285 285 285 284 284 283 284 284 284 284
319 316 317 315 312 310 310 310 309 308 308 308 307 307 306 306 305 302 299 297 296 295 293 289 287 286 286 285 285 285 285 285 285 285 285 284 284 284 283 284 284 283 283 283
316 314 314 312 311 310 310 309 308 308 307 305 305 305 305 304 302 300 298 296 294 292 290 287 286 286 285 284 284 284 284 284 284 284 284 284 284 283 283 283 283 283 283 283
311 311 312 311 310 309 307 306 305 304 304 303 302 302 302 301 298 297 295 294 291 289 287 286 286 285 285 284 284 284 284 284 284 283 283 283 283 283 283 283 283 283 282 282
310 308 311 310 308 306 304 303 303 302 302 301 301 300 298 298 296 295 292 289 287 287 286 285 285 285 284 284 283 283 283 283 283 283 282 283 283 282 282 282 282 282 282 282
306 307 307 307 304 302 302 302 301 300 300 299 299 298 297 296 295 291 289 287 287 286 286 285 285 284 284 283 283 283 283 283 283 282 282 282 282 282 282 282 282 282 281 281
304 303 300 300 301 302 301 300 300 299 299 298 297 297 294 293 291 289 287 286 286 285 285 284 284 283 283 282 283 283 282 282 282 282 282 282 282 282 282 282 281 281 281 280
308 305 304 303 303 301 299 298 298 298 298 297 296 295 293 292 292 290 287 285 285 284 284 284 283 282 283 283 282 282 281 282 282 282 282 282 281 281 281 281 280 280 280 280
305 305 304 302 299 298 298 298 297 297 296 295 295 295 294 292 291 289 286 285 285 285 285 283 282 282 282 282 281 281 281 282 282 282 281 281 280 280 280 280 280 279 279 279
299 298 297 297 297 297 297 296 296 296 295 294 294 293 292 291 288 285 284 285 285 285 283 282 282 282 282 281 281 281 282 282 282 281 280 280 280 279 279 279 279 279 278 278
297 296 296 295 295 295 295 295 295 294 292 292 292 291 290 288 285 284 284 284 284 282 282 282 281 281 280 280 281 281 281 281 280 279 279 279 279 279 279 279 278 278 277 277
296 295 295 294 294 293 292 292 292 290 289 288 287 287 286 284 283 283 283 284 282 281 281 281 281 280 280 280 280 280 280 279 278 278 278 278 278 278 278 278 277 277 277 277
294 293 293 292 292 290 289 288 288 288 287 286 285 284 284 284 284 284 284 281 281 280 280 280 280 279 279 279 279 279 278 278 278 278 278 278 277 277 277 277 277 276 276 276
292 292 291 290 290 290 289 286 284 284 283 282 282 282 283 283 282 281 280 279 279 278 279 278 278 278 278 278 278 277 277 277 277 277 277 277 277 277 276 276 276 276 276 275
290 289 288 289 290 289 285 283 283 282 282 281 281 280 280 280 281 279 278 278 277 277 277 277 277 277 277 277 277 277 276 277 277 277 277 276 276 276 275 275 275 275 275 275
290 289 288 288 288 286 284 284 284 283 282 281 280 279 278 278 277 277 276 276 276 276 276 276 276 276 276 276 276 276 276 276 276 276 276 275 275 275 275 274 274 274 274 273
286 285 284 284 283 283 283 283 283 282 282 281 279 277 277 276 276 276 275 275 275 275 275 275 275 275 275 275 275 275 275 275 275 275 275 274 274 273 273 273 273 273 273 273

GFSNGP_925_thetae_024.txt.gz
Theta_e
326 326 327 327 328 328 329 328 328 326 320 319 320 318 317 316 317 318 317 316 314 313 309 308 307 304 302 298 296 294 293 292 291 290 290 289 289 289 288 288 288 288 288 288
323 326 327 328 327 327 327 327 327 326 324 320 319 317 317 316 317 318 317 316 314 313 309 307 305 303 300 297 294 293 292 291 290 289 289 289 288 288 288 288 288 288 288 288
324 322 322 324 322 326 327 325 326 327 324 322 318 319 318 316 316 317 316 315 314 312 309 307 304 301 298 295 293 292 291 290 289 289 288 288 288 287 287 288 288 287 287 287
329 321 325 322 317 320 321 321 322 321 321 321 317 315 314 315 315 315 314 314 313 311 309 306 303 299 296 293 292 291 290 289 289 288 287 287 287 287 287 287 287 287 286 286
326 323 323 321 317 319 320 321 319 319 320 316 314 313 312 311 311 311 311 311 311 308 305 302 300 295 293 292 291 290 290 289 288 287 287 287 287 286 286 286 286 286 286 285
319 324 327 319 316 314 317 321 316 318 317 316 315 316 313 310 309 309 309 308 305 303 300 299 295 294 292 290 290 289 288 288 287 287 286 286 286 286 286 286 286 285 285 285
326 326 324 317 315 315 321 321 314 315 316 315 314 313 310 308 307 306 304 302 301 300 298 295 294 293 291 289 289 288 287 287 286 286 286 286 286 286 286 285 285 285 284 284
325 328 326 315 314 318 318 316 315 314 314 311 310 309 307 306 304 302 300 300 299 295 294 294 293 292 290 289 288 287 286 286 286 286 286 286 286 286 285 285 284 284 283 283
325 326 316 313 314 314 315 314 314 312 310 310 309 307 305 303 301 300 299 298 296 294 293 292 291 290 289 287 287 286 286 286 286 286 286 286 285 285 285 284 284 283 283 283
318 314 314 313 312 313 314 312 311 309 309 308 307 306 304 302 300 299 298 297 295 293 291 289 289 288 288 287 286 286 286 286 286 286 286 285 285 285 284 284 283 283 283 283
314 313 312 312 312 311 310 309 309 308 307 307 306 305 304 302 300 298 298 298 295 293 291 289 288 287 286 286 285 285 285 285 285 285 285 285 284 284 284 284 284 284 284 283
317 314 313 312 310 309 309 308 307 307 306 305 304 304 303 302 301 299 297 297 296 294 291 288 287 286 285 285 285 285 285 285 284 284 284 284 283 283 283 283 283 283 283 283
314 311 311 310 308 308 307 306 305 304 304 304 303 303 302 301 300 299 296 296 294 291 289 287 286 286 285 285 284 284 284 284 284 284 284 283 283 282 282 282 282 282 282 283
310 310 310 309 308 306 306 305 305 302 302 301 301 302 300 298 298 295 294 294 291 289 287 287 286 285 285 284 284 284 284 284 284 283 283 283 282 282 282 282 281 281 281 282
308 308 308 306 305 303 301 300 300 300 299 299 299 298 298 296 294 293 291 290 288 287 286 286 285 285 285 284 284 283 283 283 283 283 283 282 282 282 282 281 281 281 281 281
303 304 304 304 302 300 299 299 299 298 297 297 296 296 296 295 292 290 288 288 287 285 285 285 285 284 284 284 283 283 283 283 283 283 282 282 282 281 281 281 281 281 280 280
303 302 301 300 300 300 299 297 297 297 296 295 295 295 294 291 289 288 287 287 286 286 285 284 284 284 283 283 283 283 282 282 282 282 282 282 282 281 281 281 280 280 280 279
303 301 301 301 300 298 297 296 296 296 295 295 295 293 291 290 288 287 286 286 285 284 284 284 284 283 283 283 282 282 281 281 281 282 282 281 281 281 280 280 279 279 279 279
303 302 301 299 297 296 296 295 295 296 295 295 294 293 292 291 290 288 286 285 284 284 284 284 283 283 283 282 282 281 281 281 282 282 281 280 280 279 279 279 279 279 278 278
301 299 297 295 296 296 295 295 295 295 295 294 294 292 290 289 287 286 285 284 284 283 283 283 283 282 282 281 281 281 281 281 281 281 279 279 278 278 278 278 278 278 278 277
296 295 295 294 294 295 295 295 294 292 293 293 292 290 289 287 285 284 284 283 282 283 282 282 282 281 281 280 281 280 280 280 280 279 278 278 278 278 278 278 277 277 277 277
295 294 293 292 292 291 292 292 291 290 289 288 288 287 285 283 283 283 283 283 282 282 282 281 281 281 280 281 279 279 279 278 278 278 278 277 277 277 277 277 277 277 276 276
293 292 291 290 289 288 288 288 288 288 287 286 285 284 284 283 283 283 281 281 281 281 279 279 280 280 280 279 278 278 277 277 277 277 277 277 277 277 277 277 276 276 275 275
291 290 289 289 288 287 284 284 285 284 283 283 283 283 283 282 281 281 280 280 279 279 278 278 279 279 279 277 277 277 277 276 276 276 277 277 277 276 276 275 275 275 275 275
288 289 289 289 287 285 283 283 282 282 281 281 281 281 281 281 281 279 278 278 277 277 277 277 277 277 276 276 276 276 276 276 276 276 276 275 275 275 275 275 274 274 274 274
288 287 287 288 286 284 284 284 282 282 281 280 279 279 279 278 278 277 277 276 276 276 276 276 276 276 276 275 276 275 275 275 275 275 275 275 274 274 273 273 273 273 272 273
286 285 283 283 284 284 284 283 282 282 281 280 278 277 277 276 276 276 276 275 275 275 275 275 275 275 275 275 275 274 274 274 274 274 274 273 272 272 272 272 272 272 272 272

GFSNGP_925_thetae_027.txt.gz
Theta_e
323 321 324 326 328 328 329 329 329 321 321 319 316 315 315 316 316 316 315 314 312 309 307 305 303 301 298 297 295 294 294 293 292 291 290 289 289 288 288 288 288 288 287 287
328 326 325 327 327 327 327 327 327 326 326 316 315 313 314 316 317 316 315 314 312 309 306 304 301 298 296 295 294 294 293 292 290 290 289 288 288 288 287 287 287 287 287 286
324 325 326 327 326 326 326 324 325 328 323 316 317 316 315 314 317 316 315 313 312 309 306 303 300 297 295 294 293 292 291 290 290 289 288 288 287 287 287 287 287 286 286 286
326 319 324 321 316 322 326 324 322 323 321 317 315 311 311 312 315 315 314 313 312 308 305 301 298 296 295 293 292 291 290 289 289 288 287 287 287 286 286 286 286 286 285 285
322 322 321 320 315 317 319 320 318 322 318 314 312 312 311 309 310 311 311 311 308 305 301 298 296 295 294 292 291 290 289 289 288 287 287 286 286 286 286 286 286 285 285 284
314 321 325 318 315 313 315 320 315 314 315 315 313 316 312 308 308 306 305 304 300 298 296 295 293 294 292 291 290 289 288 288 287 287 286 286 286 286 286 285 285 285 284 284
322 324 320 317 314 313 320 318 314 313 314 313 313 311 307 305 303 301 300 299 298 295 294 293 293 293 291 289 289 288 287 287 287 286 286 286 286 286 285 285 285 284 283 283
322 326 322 314 313 316 314 314 313 310 310 309 308 307 305 303 301 300 298 296 295 293 292 293 292 292 289 288 288 287 287 286 286 286 286 286 286 285 285 284 284 283 283 283
323 322 316 313 314 313 313 313 311 309 307 307 306 305 303 301 299 298 296 294 293 292 291 292 291 291 288 287 287 286 286 286 286 286 286 286 285 284 284 283 283 283 282 283
319 316 314 312 311 312 312 310 308 307 306 305 304 302 301 300 299 297 295 293 291 290 289 288 289 289 288 287 286 286 286 285 285 285 285 285 284 284 283 283 283 283 283 283
314 312 312 311 311 309 308 307 307 306 306 304 303 302 300 299 297 296 295 292 291 290 288 287 287 287 286 286 286 285 285 285 285 285 284 284 283 283 283 283 283 283 283 283
318 312 312 311 309 308 308 308 306 306 304 303 303 302 300 298 297 296 294 293 291 290 289 287 287 286 285 285 285 285 285 284 284 284 284 283 282 282 282 282 283 283 283 283
314 310 309 308 306 306 306 305 304 304 304 303 302 301 300 298 296 297 295 294 292 290 288 287 286 285 285 285 284 284 284 284 284 283 283 283 282 282 281 281 281 281 281 282
308 309 309 308 307 305 304 303 302 301 301 301 300 300 299 297 296 294 293 292 290 288 287 286 285 285 285 284 284 284 284 283 283 283 283 283 282 282 281 281 281 280 280 281
307 307 307 304 303 302 301 300 300 300 299 298 298 297 295 293 292 291 291 289 288 287 286 285 285 284 284 284 284 283 283 283 283 283 282 282 281 281 281 281 280 280 280 280
302 303 303 303 301 299 299 299 299 298 296 295 295 294 294 292 290 289 288 288 287 285 285 285 284 284 284 284 283 283 283 282 282 282 281 281 281 281 280 280 280 279 279 279
304 302 301 301 300 299 298 297 297 297 296 294 292 292 290 288 287 286 286 287 287 285 285 284 284 284 283 283 283 282 282 281 281 281 281 281 281 280 280 279 279 279 279 278
302 301 302 301 300 297 296 296 296 296 295 293 292 290 288 287 285 285 285 285 284 284 284 284 283 283 283 283 282 282 281 281 281 281 281 280 280 279 278 278 278 278 278 278
300 300 299 296 295 295 295 294 295 294 293 292 291 289 290 289 287 286 285 284 283 283 283 283 283 283 282 282 282 281 281 280 281 281 280 279 279 278 278 278 278 278 277 277
301 299 297 295 295 295 294 294 293 293 293 293 291 289 287 286 286 284 284 282 283 283 283 282 282 282 281 281 281 281 280 280 280 279 278 278 277 277 277 277 277 277 277 276
297 296 295 295 294 294 293 293 292 291 292 292 290 287 285 284 284 283 283 281 282 282 282 282 281 281 281 281 281 279 278 278 278 277 277 277 277 277 277 276 276 276 276 276
295 295 294 293 292 290 291 292 291 289 289 287 286 285 283 282 283 282 283 282 282 282 281 280 280 281 281 281 279 278 277 277 277 277 276 276 276 276 276 276 276 275 275 275
293 292 291 290 289 287 288 288 287 286 285 285 284 283 282 282 282 281 280 280 281 280 279 279 279 280 280 278 277 277 276 276 276 276 276 276 276 276 275 275 275 275 274 274
291 289 287 286 285 285 283 282 283 283 283 283 282 282 282 280 280 280 280 279 279 278 277 278 279 279 277 276 276 276 276 275 275 275 276 276 275 275 275 274 274 274 274 273
288 286 286 285 284 282 281 281 281 281 281 280 281 281 281 281 281 278 278 277 277 277 276 276 276 277 276 276 276 276 275 275 275 275 274 274 274 273 273 272 272 272 273 272
288 287 286 285 283 282 282 281 280 280 279 278 278 278 278 278 277 277 277 276 276 276 276 275 275 275 275 275 275 275 274 274 273 273 274 273 273 272 272 272 272 272 272 271
285 284 283 283 283 283 282 281 281 280 280 278 277 276 276 276 276 276 276 276 276 275 275 275 274 274 274 274 274 274 273 273 273 273 273 273 273 272 272 272 272 272 272 272

GFSNGP_925_thetae_030.txt.gz
Theta_e
315 316 319 322 323 322 320 318 319 317 320 321 315 313 315 315 315 314 314 313 311 308 305 301 299 297 297 296 295 294 294 293 292 291 290 289 288 288 288 287 287 287 286 286
321 326 322 325 323 322 322 320 317 325 326 316 312 311 313 314 315 315 314 313 310 307 304 301 298 296 295 294 294 294 293 293 291 290 289 288 288 287 287 287 287 286 286 285
328 324 325 328 320 327 320 325 328 330 322 316 316 314 314 314 315 315 314 312 310 307 305 301 297 296 294 294 293 293 293 291 290 289 288 287 287 287 287 286 286 286 285 284
327 319 324 320 315 323 325 324 323 322 318 316 315 311 310 311 314 314 313 312 309 307 303 299 296 295 294 294 293 292 291 290 289 288 287 287 287 286 286 286 285 285 284 284
325 321 320 318 315 319 325 324 319 322 315 313 311 312 312 308 311 311 311 310 308 305 299 296 294 294 294 292 292 291 289 289 288 287 287 286 286 286 286 285 285 284 284 283
316 319 325 319 315 312 314 320 315 315 314 313 312 318 314 306 307 306 305 304 300 297 295 294 292 294 292 291 290 289 289 288 287 287 286 286 286 286 285 285 284 284 283 283
320 322 319 317 314 312 320 316 314 313 312 313 314 311 306 301 300 299 298 296 295 295 293 291 293 293 290 290 289 289 288 287 287 286 286 286 286 285 284 284 283 283 283 283
323 322 320 313 312 316 312 312 311 310 309 308 307 305 302 300 299 297 295 294 293 292 290 291 292 292 289 289 288 288 287 286 286 286 286 286 285 284 284 283 283 283 283 283
319 320 314 312 313 313 311 312 310 307 307 307 305 303 301 299 296 295 294 292 292 291 289 291 292 292 288 287 287 287 286 286 286 286 286 285 284 283 283 282 282 283 282 283
320 317 315 312 311 312 310 308 306 305 305 305 303 301 299 297 295 293 292 290 290 289 288 288 290 290 289 287 286 286 286 285 285 285 285 284 283 283 282 282 282 283 283 282
315 312 312 311 310 309 306 306 305 303 304 302 301 300 298 296 294 292 290 290 289 288 287 287 288 287 287 286 286 285 285 285 285 284 284 283 283 282 282 282 283 283 283 282
320 313 313 311 308 307 307 306 305 303 302 301 300 299 297 296 294 292 290 290 289 287 287 286 287 286 286 285 285 285 284 284 284 284 283 283 282 282 282 282 282 282 282 282
315 309 308 308 306 306 306 304 304 303 302 301 299 298 297 295 294 294 291 290 289 288 287 286 286 285 285 285 285 284 284 284 284 283 283 282 282 281 281 281 281 281 281 281
308 309 309 308 307 304 304 303 302 301 300 300 298 297 296 295 294 292 291 291 290 288 286 286 285 285 284 284 284 284 284 283 283 283 282 282 282 281 281 280 280 280 279 280
306 306 307 304 303 302 301 301 301 300 298 297 297 296 295 292 291 290 290 290 288 287 285 285 285 284 284 284 283 283 283 283 282 282 281 281 281 281 280 280 280 279 278 278
302 303 304 303 301 300 299 299 300 298 297 295 294 293 292 291 289 288 288 287 286 284 285 284 284 284 284 283 283 283 283 282 282 281 281 281 281 280 280 279 278 278 278 278
304 301 300 300 300 299 299 299 298 297 295 295 293 290 288 287 286 286 286 287 287 285 284 284 284 283 283 283 283 283 282 281 281 281 281 280 279 279 278 278 278 278 278 278
304 303 302 301 299 297 296 295 295 296 295 292 289 288 286 286 284 284 284 285 284 283 283 283 283 283 283 283 282 281 281 280 280 280 280 279 279 278 277 277 277 277 277 277
300 300 298 296 296 295 295 294 295 293 292 290 288 287 287 286 285 284 284 284 283 282 282 283 283 283 282 282 282 281 280 279 279 279 278 278 277 277 277 277 277 277 276 276
298 296 296 295 296 295 294 294 293 292 290 290 289 287 285 285 284 283 283 282 282 283 283 282 282 282 281 281 281 280 278 278 278 277 277 277 276 276 276 276 276 276 276 276
296 296 296 295 294 294 294 293 292 290 289 289 287 285 284 283 284 283 282 281 282 282 282 282 281 281 280 281 280 278 277 277 277 276 276 276 276 276 276 275 275 275 275 275
296 295 294 293 292 290 291 291 291 290 289 287 285 284 283 282 282 282 282 282 282 281 281 280 280 281 281 280 277 277 276 276 276 276 275 275 275 275 275 274 274 274 274 274
294 293 292 292 290 287 287 288 288 287 285 284 283 283 282 282 282 281 280 281 281 279 279 279 280 280 279 277 276 276 276 276 275 275 275 275 275 274 274 274 273 273 273 273
291 289 287 286 286 285 283 282 284 284 284 283 283 282 282 280 280 281 280 280 279 278 278 279 278 278 277 276 276 276 275 275 274 275 275 274 274 273 273 272 272 272 272 272
287 286 285 285 284 282 280 281 281 281 281 281 281 281 281 281 281 278 278 278 277 276 276 276 276 276 275 275 275 275 274 274 274 274 273 273 273 273 272 273 273 272 273 273
287 286 284 284 282 281 280 281 280 279 278 277 278 278 278 278 278 277 277 276 276 276 276 275 275 275 275 275 274 274 274 274 274 273 273 273 273 273 273 273 273 273 273 273
285 283 282 282 281 281 281 280 280 279 278 277 276 277 277 276 276 276 276 276 276 275 275 274 274 274 274 274 274 274 274 273 273 272 273 273 273 273 273 273 273 274 274 274

GFSNGP_925_thetae_033.txt.gz
Theta_e
315 315 317 318 315 314 314 312 314 313 314 313 313 315 316 316 314 314 314 311 309 305 301 298 296 295 294 294 294 294 294 293 292 291 290 289 288 288 287 287 287 286 286 285
317 317 317 320 318 314 316 312 315 318 317 315 313 314 313 314 315 315 314 311 309 305 300 297 296 294 293 293 294 294 293 292 291 290 289 288 287 287 287 287 286 286 285 285
323 320 322 324 322 316 317 315 314 320 317 314 314 314 315 314 315 315 314 311 308 305 301 299 295 294 293 294 293 293 293 291 290 289 288 287 287 287 287 286 286 285 285 284
324 321 327 321 320 318 319 319 318 318 318 317 317 312 312 312 314 313 312 310 308 304 301 297 295 294 294 293 293 292 291 290 289 288 287 287 287 287 286 286 285 285 284 283
327 320 320 316 319 319 319 319 318 319 318 314 312 312 312 309 310 311 311 309 306 303 298 295 294 294 293 292 292 291 290 289 288 287 287 286 286 286 286 285 284 284 283 283
321 320 324 318 314 311 313 324 317 318 316 313 313 319 316 308 308 308 307 305 300 297 295 293 292 293 292 291 290 290 289 288 287 287 286 286 286 285 285 284 283 283 283 283
319 322 318 315 313 311 319 315 313 313 312 311 315 313 304 301 300 301 301 298 296 295 293 291 292 293 290 290 290 289 288 287 286 286 286 286 285 285 284 283 283 283 283 283
322 322 318 311 311 316 312 312 311 310 310 307 303 301 300 298 297 297 295 294 293 291 289 290 292 293 289 289 288 288 287 286 286 286 286 286 285 284 283 283 282 282 283 283
319 318 313 311 313 312 310 311 309 308 306 304 302 300 298 296 294 293 292 292 291 289 288 290 292 293 289 287 287 287 286 285 286 286 286 285 284 283 283 282 282 282 282 282
319 315 314 312 311 310 308 307 305 305 305 303 300 298 295 294 293 292 291 290 290 289 288 287 290 290 289 287 287 286 285 285 285 285 285 284 283 283 282 282 282 282 282 282
315 313 311 310 310 307 305 304 304 302 303 301 300 298 296 294 292 291 290 289 289 288 287 286 288 287 287 286 286 285 285 285 285 284 284 283 282 282 282 282 282 283 282 282
320 314 313 311 308 306 306 305 303 302 301 300 299 297 295 293 291 290 288 288 287 286 286 286 286 286 286 285 285 285 285 284 284 284 283 282 282 282 281 281 282 282 282 282
316 309 308 306 306 306 305 304 302 301 300 298 296 295 294 292 290 291 288 287 287 286 286 286 285 285 284 285 285 284 284 284 284 283 282 281 281 281 280 280 280 280 280 280
307 307 308 308 307 304 303 302 301 298 298 297 295 295 294 293 291 289 288 288 287 286 286 285 285 284 284 284 284 284 284 283 283 282 281 281 281 281 280 280 279 279 278 279
305 305 307 304 303 302 301 300 299 298 297 295 295 294 293 290 289 288 288 288 287 286 285 285 284 283 284 284 284 283 283 282 282 281 281 281 281 280 279 279 278 278 277 278
301 302 303 303 302 300 300 299 299 297 296 294 293 291 291 290 288 287 287 287 285 284 284 284 284 283 283 283 283 283 282 281 282 281 280 280 280 279 279 278 277 277 277 277
304 301 300 300 300 299 300 299 298 297 294 293 291 289 288 286 285 285 285 286 286 285 284 284 283 283 283 283 283 282 281 281 281 280 280 279 278 279 277 277 277 277 277 277
304 302 303 302 300 297 296 295 295 296 294 291 289 287 286 286 284 283 284 284 284 283 283 283 283 283 283 282 282 281 281 279 279 279 278 277 278 277 277 276 276 276 276 276
301 300 299 298 297 296 295 294 294 293 290 289 287 286 286 285 284 283 283 283 282 282 282 283 282 282 282 282 282 281 279 278 278 277 277 277 277 276 276 276 276 276 276 275
296 296 296 294 295 295 293 293 292 290 289 288 287 285 283 283 283 283 283 281 282 283 283 282 282 282 281 281 281 279 278 277 277 276 276 276 276 276 275 275 275 275 275 275
295 295 295 295 293 293 292 292 290 289 288 288 286 284 283 282 283 282 282 281 282 282 282 282 281 281 280 281 279 277 277 276 276 276 275 275 275 275 274 274 274 274 274 274
294 294 293 293 291 290 290 290 289 288 287 286 285 283 282 281 282 282 282 282 282 281 281 280 280 281 281 279 277 276 276 276 275 275 275 275 274 274 274 273 273 273 273 272
294 293 292 292 290 288 287 287 287 286 284 283 283 282 281 281 282 281 280 281 281 280 279 280 280 280 279 276 276 276 276 275 275 274 274 274 274 273 273 273 272 272 272 272
291 289 289 288 288 287 284 282 284 284 284 283 283 283 282 281 281 281 281 280 279 278 278 279 279 278 276 276 276 275 275 274 274 274 274 274 273 273 273 273 273 273 273 273
288 288 287 286 284 281 280 281 281 281 281 281 281 281 281 281 281 279 279 278 277 277 277 276 276 276 275 275 275 274 274 274 274 273 273 273 273 273 273 273 273 273 273 274
288 286 284 284 282 281 281 281 279 279 279 278 279 280 280 279 279 277 277 277 276 276 276 275 275 275 274 274 274 274 274 274 274 273 273 273 273 273 273 274 274 274 275 275
284 283 282 281 281 281 281 280 280 279 278 278 276 277 277 277 277 276 276 276 276 275 275 274 274 274 274 274 274 274 274 274 273 273 273 273 273 274 274 274 274 275 276 276

GFSNGP_925_thetae_036.txt.gz
Theta_e
315 315 315 316 317 314 314 313 312 311 310 310 311 312 312 313 315 316 311 308 305 301 298 296 293 292 292 293 293 293 293 293 292 291 290 289 288 287 287 287 287 287 286 285
317 317 317 317 317 317 315 315 312 311 311 310 312 312 312 311 314 316 312 309 305 301 297 295 293 292 291 292 292 293 293 292 290 290 289 288 287 287 287 287 286 286 285 285
320 319 320 325 318 318 316 313 313 313 312 310 313 315 314 313 315 316 313 309 305 300 298 296 293 292 291 292 292 293 292 290 290 289 288 287 287 287 287 286 286 285 284 284
320 322 327 321 319 317 316 315 313 312 312 315 316 314 312 312 313 313 312 309 304 300 297 294 293 293 293 293 292 292 291 289 289 288 287 286 287 287 286 286 285 284 284 283
325 324 320 317 319 318 316 318 315 316 314 314 314 311 312 310 311 312 310 307 303 300 296 293 293 293 293 292 292 291 289 289 288 287 286 286 287 286 286 285 284 284 283 283
322 325 325 318 312 315 316 325 318 316 316 315 312 316 315 309 309 308 307 305 300 296 294 293 292 293 292 290 291 290 289 288 287 286 286 286 286 286 285 284 283 283 283 283
323 323 319 315 313 313 319 315 314 316 316 317 315 312 305 304 304 304 302 298 296 295 293 291 292 292 290 290 289 289 288 287 286 286 286 286 285 285 284 283 283 282 282 283
319 321 318 312 311 315 311 311 312 311 310 313 305 302 301 300 299 298 296 296 293 291 290 290 291 292 289 289 288 288 287 286 286 286 286 285 285 284 283 283 282 282 282 282
317 317 313 311 312 312 310 310 309 308 305 303 301 299 298 296 295 294 292 292 291 289 288 289 291 292 288 286 287 286 286 286 285 285 285 285 284 283 283 282 281 282 282 282
317 315 313 311 310 307 307 306 304 303 302 301 298 296 294 294 293 292 291 290 289 289 288 286 290 290 288 287 287 286 285 285 285 285 285 284 283 283 282 282 281 282 282 282
315 313 311 311 309 305 304 303 303 301 300 298 296 295 294 293 291 290 290 290 289 288 286 285 288 287 287 286 286 285 285 285 284 284 284 283 283 282 282 281 282 283 282 282
317 315 313 310 306 304 304 303 301 301 299 297 297 295 293 292 290 289 288 287 286 285 284 285 286 285 285 285 286 285 284 284 284 284 283 282 282 282 281 281 281 282 281 281
315 309 307 306 305 305 303 302 301 299 298 296 295 293 292 290 289 289 287 286 285 284 284 285 285 284 284 284 285 285 284 284 283 283 282 281 281 281 280 280 280 280 280 280
307 307 308 308 307 303 302 301 299 297 296 295 293 292 292 290 288 287 286 285 285 285 285 285 284 283 284 284 284 284 284 283 283 282 281 281 281 280 279 279 278 278 278 278
305 305 307 304 302 301 300 300 298 297 295 294 293 291 290 289 287 285 285 285 285 285 284 284 284 283 283 283 284 284 283 283 282 281 281 281 280 279 279 278 277 277 277 277
302 302 303 303 302 300 299 299 298 296 294 293 291 290 288 286 285 285 285 286 285 283 283 284 283 283 283 283 283 283 282 282 282 280 280 279 278 278 278 277 277 276 276 276
304 302 301 301 301 300 300 298 297 295 293 292 290 288 286 285 284 284 285 286 285 284 284 284 283 283 283 283 283 282 281 280 280 279 278 278 277 278 277 276 276 276 276 276
304 302 303 303 300 298 297 296 295 294 293 290 288 287 286 285 283 282 283 284 283 283 283 283 283 283 283 282 282 281 280 279 278 278 277 277 278 277 276 276 276 276 276 275
301 300 299 299 298 297 296 294 292 291 290 289 287 285 284 283 283 282 283 283 282 281 281 282 282 282 282 282 281 280 278 278 277 277 276 277 276 276 275 275 275 275 275 274
296 297 296 296 296 296 293 292 291 290 288 287 285 284 282 282 282 282 283 281 282 282 282 282 282 282 281 281 280 278 277 277 276 276 276 276 275 275 275 275 274 274 274 274
295 295 294 294 292 292 292 291 290 287 286 286 285 283 282 282 282 282 282 281 281 282 282 281 281 281 281 280 278 277 276 276 276 275 275 275 275 274 274 274 273 273 273 273
293 293 292 292 291 290 289 289 287 286 285 284 283 282 282 281 282 282 282 282 282 281 281 280 281 281 280 278 277 276 276 276 275 275 275 274 274 273 273 273 273 273 273 273
293 293 292 291 290 287 287 287 286 285 284 283 282 282 281 281 282 281 280 281 280 280 280 280 281 280 278 276 276 276 276 275 275 274 274 274 273 273 273 273 273 273 273 273
292 291 289 288 287 287 284 282 283 283 283 283 283 283 282 281 281 282 281 280 279 279 279 279 279 278 276 276 275 275 275 274 274 274 274 273 273 273 273 273 273 274 273 274
289 288 289 288 286 282 281 281 281 281 281 281 281 282 282 282 282 280 280 278 277 277 277 277 276 276 275 275 275 275 274 274 274 273 273 273 273 273 274 274 274 273 272 275
288 287 285 285 283 282 281 281 280 279 279 278 279 280 281 281 280 279 278 277 276 276 276 275 275 275 274 274 274 274 274 274 274 274 273 273 273 273 274 274 274 274 275 276
284 283 282 281 281 281 281 280 280 279 279 279 277 278 278 277 277 277 276 276 276 275 275 275 274 274 274 274 274 274 274 274 273 273 273 273 273 274 274 274 274 274 275 276

GFSNGP_925_thetae_039.txt.gz
Theta_e
312 313 314 315 315 315 314 313 315 312 312 310 309 311 310 311 314 313 308 306 303 300 299 296 294 293 292 291 291 292 292 292 291 290 290 289 288 287 287 288 287 287 286 285
316 316 316 318 318 316 317 314 314 313 313 310 308 311 312 312 315 315 309 306 302 299 297 295 293 292 291 290 290 293 292 291 290 289 288 288 287 287 287 287 286 286 285 285
318 317 319 325 321 318 317 314 314 315 313 310 310 311 313 315 315 316 310 305 301 298 296 294 293 292 291 290 291 292 291 289 289 288 287 287 287 287 287 286 286 285 285 284
319 320 324 320 318 319 318 316 314 313 311 311 312 312 313 311 313 315 309 304 300 298 295 292 292 291 290 291 291 291 289 289 288 287 287 286 287 287 286 286 285 284 284 283
323 324 320 318 314 319 319 319 315 314 312 311 312 312 311 310 311 312 308 304 301 297 294 292 291 291 290 290 290 289 288 288 287 287 286 287 287 286 286 285 284 284 283 282
320 324 325 317 313 314 314 324 315 313 314 315 314 317 313 307 310 309 306 302 298 295 293 292 290 291 290 289 289 288 288 287 287 287 287 287 286 286 285 284 284 283 282 282
320 323 317 315 311 314 319 321 311 314 315 315 316 310 305 305 305 305 302 298 296 295 293 291 290 291 289 289 287 288 287 287 286 286 287 286 286 285 284 284 283 282 282 282
320 321 319 312 310 314 311 310 311 311 313 315 305 303 301 300 299 299 297 296 294 292 290 290 290 291 289 287 287 287 287 286 286 286 286 285 285 284 283 283 282 282 282 282
315 316 312 311 312 310 309 309 309 308 307 308 303 301 300 298 296 295 294 293 291 290 289 289 290 290 287 285 287 287 286 286 286 285 285 285 284 283 283 282 281 282 282 282
316 315 312 312 309 307 305 306 303 303 302 301 298 297 295 294 293 292 291 290 289 289 288 287 288 288 288 287 287 286 285 285 285 285 284 284 283 283 282 281 281 282 282 282
315 313 312 310 308 306 304 303 301 299 298 297 296 295 294 292 291 290 290 290 289 288 286 284 287 287 287 287 286 285 285 285 284 284 284 283 282 282 281 281 282 282 282 281
317 314 312 310 307 304 304 302 300 299 297 296 295 293 292 291 290 289 288 287 286 285 284 284 286 285 285 286 286 285 284 284 284 283 283 282 281 281 281 281 281 281 281 281
314 308 306 305 305 303 302 300 299 297 295 294 293 292 291 289 288 289 286 286 285 284 283 284 284 284 285 285 285 285 284 284 283 282 282 281 281 280 280 280 279 279 279 280
307 306 308 306 307 302 301 299 297 295 294 293 292 291 290 289 288 286 285 284 284 284 284 284 284 283 284 284 284 284 284 283 282 282 281 281 280 280 279 278 278 278 278 278
305 305 307 304 302 300 299 298 297 295 294 292 291 290 289 287 285 284 283 284 284 284 283 283 283 283 283 284 284 283 283 283 282 281 280 280 279 278 278 277 277 277 277 277
302 303 303 303 301 300 299 299 297 295 293 291 290 288 286 285 283 283 283 284 284 282 283 283 283 282 283 283 283 283 282 282 281 280 279 278 278 278 277 276 276 276 276 276
303 303 301 301 301 300 300 299 297 294 292 290 287 286 285 284 283 283 284 285 284 283 283 283 282 282 283 283 283 282 281 280 279 278 278 277 277 277 276 276 276 276 276 276
303 304 303 303 301 298 296 295 294 293 291 288 286 286 285 285 283 282 282 283 282 282 282 282 282 282 283 282 282 281 279 278 278 277 277 277 277 276 276 275 275 275 275 275
301 300 300 299 298 296 295 294 292 290 289 288 287 285 284 283 282 281 282 282 281 281 281 282 282 283 283 282 281 279 278 278 277 277 276 276 276 276 275 275 275 275 274 274
296 296 296 296 296 294 292 291 290 289 287 286 284 283 282 281 282 282 282 281 282 282 282 282 282 282 281 281 279 278 277 277 276 276 276 276 275 275 274 274 274 274 273 274
295 295 294 294 292 292 291 290 289 287 286 286 285 283 281 281 282 282 281 281 281 282 281 281 281 281 281 279 277 277 277 276 276 275 275 275 275 274 273 273 273 273 273 273
293 293 292 292 291 290 290 289 288 286 285 283 282 282 281 281 282 282 282 281 282 281 281 281 281 280 279 277 277 276 276 275 275 275 275 274 274 273 273 273 273 273 273 273
292 291 291 291 289 287 287 286 285 285 284 283 282 281 281 281 281 281 280 281 281 280 280 281 281 279 277 276 276 276 275 275 275 275 275 274 273 273 273 273 273 273 273 273
292 291 289 287 286 286 284 283 283 283 282 282 283 283 282 281 281 282 281 280 280 280 279 280 279 277 276 276 275 275 275 275 275 275 274 273 273 273 273 273 273 273 274 274
289 288 288 287 286 283 282 281 281 281 282 281 282 282 283 283 282 280 280 280 279 278 278 277 277 275 275 275 275 275 275 275 275 274 274 273 273 273 273 273 273 273 273 274
289 288 287 286 284 283 282 282 280 280 279 278 279 281 281 281 280 279 278 277 277 276 276 275 275 275 275 275 275 275 275 275 274 274 273 273 273 273 273 273 274 274 275 275
285 284 283 282 282 282 281 281 281 280 279 278 277 279 279 279 278 277 277 276 276 276 275 274 274 274 274 274 274 275 274 274 274 273 273 273 273 273 273 273 274 275 275 276

GFSNGP_925_thetae_042.txt.gz
Theta_e
313 313 314 316 316 316 316 314 316 316 315 313 312 311 310 310 312 316 315 311 310 310 309 305 300 296 294 293 292 292 292 293 293 292 291 290 289 289 289 289 288 287 287 286
316 314 316 318 319 320 320 320 317 316 316 313 313 311 311 313 313 315 315 309 307 306 303 299 296 294 293 292 291 292 292 291 291 290 290 289 289 288 288 287 287 286 286 285
318 316 318 325 322 321 320 316 316 319 315 313 313 314 312 313 314 315 313 307 305 302 299 296 295 293 292 292 292 292 292 291 290 290 289 289 288 288 288 287 287 286 285 285
320 319 325 320 319 319 320 319 315 315 315 314 313 311 313 313 314 316 312 307 303 299 297 295 294 293 292 292 293 293 292 291 290 289 288 288 288 287 286 286 286 286 285 284
321 321 319 319 318 318 321 321 319 318 316 315 313 314 314 312 315 313 309 305 301 298 296 296 295 294 294 294 293 292 291 290 289 288 288 288 287 286 286 286 286 285 284 284
318 320 323 321 316 315 317 327 315 316 317 316 317 322 316 311 311 308 306 304 300 298 297 296 294 294 294 293 292 291 290 288 288 288 288 287 286 286 285 285 285 284 284 284
316 320 320 318 313 316 323 324 313 314 317 317 319 313 309 310 309 306 303 301 298 297 297 295 294 294 293 292 291 289 288 287 287 286 286 286 286 285 285 285 284 284 284 284
318 323 323 315 316 320 315 314 313 313 314 315 310 307 305 305 304 302 299 297 295 293 293 292 293 292 291 289 287 287 287 286 286 286 285 285 285 285 284 284 284 284 284 284
319 320 317 314 316 314 312 313 312 310 310 311 307 305 304 302 300 298 297 296 296 295 293 293 292 290 287 286 287 287 286 285 285 285 285 285 285 285 285 284 284 284 284 284
320 319 318 316 312 310 308 309 306 305 307 309 307 302 299 297 297 297 296 295 294 293 293 291 289 288 288 286 286 286 286 286 285 285 285 284 284 283 284 284 284 284 284 283
319 319 318 314 311 309 306 304 302 301 302 303 302 302 300 297 295 294 294 293 293 292 291 288 287 286 286 286 286 286 286 286 286 285 285 284 283 283 283 283 283 283 283 282
321 317 316 313 308 306 306 303 301 300 299 299 299 298 296 295 294 293 292 291 290 289 288 287 286 285 285 286 286 286 286 285 285 284 284 283 283 283 281 281 280 281 281 281
318 311 310 308 307 305 304 301 299 298 297 296 295 295 294 293 292 291 290 289 289 288 286 286 286 285 285 285 285 286 286 285 284 284 283 283 282 282 282 281 280 280 280 280
310 310 311 309 309 304 302 299 297 296 295 294 293 293 292 291 290 290 289 287 287 286 286 285 285 284 284 284 285 284 284 283 283 283 282 282 281 281 280 280 280 280 279 279
309 308 308 305 302 300 299 298 297 296 294 293 292 292 291 290 289 287 286 286 286 285 285 284 284 283 284 284 284 284 284 283 282 281 281 280 280 280 280 279 279 279 279 279
306 306 305 304 301 300 299 299 298 296 294 293 292 290 289 287 286 286 285 285 286 285 284 284 283 283 283 283 284 284 284 282 281 280 280 279 279 279 279 279 279 279 279 278
307 305 303 303 302 300 300 298 297 295 293 291 289 287 287 286 286 285 285 285 284 284 283 283 282 283 283 283 282 282 281 281 279 279 279 278 279 279 278 278 278 278 278 278
306 305 305 305 303 302 299 297 295 294 292 289 288 287 287 288 286 285 284 283 283 282 282 282 282 282 282 282 281 280 280 279 278 278 278 278 279 278 278 278 277 278 277 277
303 304 305 303 301 300 298 296 294 291 289 288 288 288 287 286 284 283 283 283 283 282 282 282 282 282 282 281 280 279 278 278 277 277 277 278 277 277 277 277 277 277 276 276
301 301 301 300 298 297 295 293 291 290 289 288 286 286 285 284 283 283 283 284 284 283 282 282 282 282 281 280 278 278 277 277 277 277 276 277 277 277 276 276 276 275 275 275
299 299 298 297 296 294 293 292 290 289 287 287 287 285 284 283 282 282 283 283 282 281 281 281 282 281 280 278 278 277 277 277 276 276 276 276 276 276 275 275 275 275 275 275
297 297 296 294 294 293 292 291 289 288 287 286 284 283 282 282 282 282 283 282 281 282 281 281 281 280 278 277 277 276 276 276 275 275 275 275 275 275 275 275 274 274 275 275
295 295 294 293 292 290 289 288 287 286 285 284 283 283 283 283 283 283 282 281 281 281 281 281 280 278 277 277 276 276 276 275 275 275 275 275 275 274 274 274 274 274 274 274
293 293 291 289 288 288 287 286 285 285 284 283 283 282 282 282 281 282 282 281 281 281 281 281 279 277 276 276 276 275 275 274 274 274 274 274 274 273 273 273 273 273 273 273
290 289 288 289 289 286 284 283 283 282 282 281 281 282 283 283 282 280 281 281 280 280 279 279 277 276 276 275 275 275 274 274 274 274 274 273 273 273 272 272 272 272 273 274
290 290 288 288 286 285 284 284 283 282 281 280 280 281 281 281 281 281 280 279 278 277 277 276 275 275 275 275 274 274 275 275 274 274 273 273 272 272 272 273 273 272 273 273
286 286 285 285 284 284 284 283 282 282 281 280 278 278 279 280 279 278 277 277 277 276 275 275 275 274 274 274 274 275 275 275 274 274 273 273 273 273 273 273 273 274 274 275

GFSNGP_925_thetae_045.txt.gz
Theta_e
314 313 313 315 317 317 318 316 317 316 316 316 316 316 314 313 311 311 314 316 313 314 313 313 312 309 304 302 300 297 296 295 294 295 293 293 292 292 291 291 290 289 289 288
315 314 315 319 318 318 320 321 320 320 319 316 315 313 314 312 311 313 313 312 310 311 310 306 301 299 297 295 295 295 295 294 294 293 292 292 291 291 290 289 289 288 288 287
317 316 317 324 323 322 321 320 320 320 318 315 314 314 315 314 314 314 315 310 308 307 303 298 296 295 294 293 293 293 293 292 293 292 291 291 290 290 290 289 289 288 287 287
317 318 325 319 319 319 320 320 320 319 318 317 316 315 314 312 316 314 310 307 305 301 299 295 294 293 293 293 293 293 292 292 292 291 291 290 290 289 288 288 288 288 287 286
318 318 317 317 319 318 321 322 317 319 320 318 316 315 314 313 314 311 308 304 301 297 295 294 293 294 294 294 293 293 292 292 291 291 290 290 289 288 288 288 287 287 286 286
317 319 319 320 318 315 318 327 318 316 319 320 320 320 316 312 310 307 301 299 297 296 295 295 295 296 295 295 294 293 292 291 290 290 289 289 288 288 287 287 286 286 286 285
314 318 316 316 316 317 323 324 316 314 315 319 316 314 312 309 306 305 300 299 298 297 296 296 296 296 295 294 293 291 290 289 289 288 288 288 287 287 287 286 286 286 285 286
319 320 320 317 319 322 319 316 315 314 313 312 311 309 307 307 304 302 301 301 300 299 298 297 297 295 294 291 289 288 287 287 287 287 287 287 287 286 286 286 286 286 286 286
317 318 317 317 317 317 315 315 314 312 312 309 308 306 305 304 302 299 296 295 294 294 294 293 292 290 288 287 287 287 287 286 286 286 287 287 287 286 287 286 286 286 285 285
319 320 319 319 318 313 311 311 309 307 310 311 308 306 305 302 300 299 299 298 296 295 293 290 288 287 287 287 287 287 287 287 286 286 286 286 285 285 286 285 285 285 284 284
319 319 320 315 313 311 308 306 305 304 306 311 305 302 300 299 299 298 297 296 296 294 290 287 287 286 286 287 287 287 287 287 287 286 286 286 285 285 285 284 283 283 283 282
320 318 318 316 311 309 308 304 303 303 304 305 305 303 301 299 297 297 296 294 291 288 287 286 286 286 287 288 288 287 287 287 286 286 286 285 285 285 284 282 281 280 281 281
318 314 313 311 309 307 305 302 301 301 301 300 300 299 298 297 295 294 293 291 289 287 286 286 286 287 287 287 287 287 287 286 285 286 285 285 284 283 283 282 282 281 281 280
314 313 313 310 311 305 301 299 298 298 298 297 296 296 295 294 293 292 291 288 287 287 287 286 286 286 286 286 286 286 285 285 285 285 284 283 282 282 281 281 281 281 281 281
312 311 311 309 305 303 300 299 298 297 296 295 294 294 293 292 291 289 288 287 287 287 286 286 285 286 286 286 286 285 285 285 284 283 282 281 281 281 281 281 280 280 280 280
309 309 307 306 302 300 299 299 298 297 295 294 294 293 291 289 288 287 287 287 287 286 285 285 285 285 285 285 285 285 284 282 282 281 281 280 280 280 280 280 280 280 280 279
308 306 305 303 302 300 300 299 298 296 295 293 291 289 288 287 288 288 287 286 285 285 285 284 284 284 284 284 284 283 283 282 280 280 280 279 280 280 279 279 279 279 279 279
309 309 306 305 303 301 299 298 297 295 293 290 289 288 288 289 288 286 285 285 284 284 284 283 283 283 283 283 282 281 281 280 279 279 279 279 279 279 279 279 279 279 278 278
305 306 306 306 304 302 298 297 296 293 291 290 290 290 289 287 286 285 285 285 284 283 283 283 283 283 283 281 280 280 280 279 279 279 278 279 279 279 279 278 278 278 277 277
304 305 306 305 303 301 298 295 292 291 291 290 288 287 286 286 285 285 285 285 285 284 283 283 283 282 281 279 279 279 279 279 278 278 278 278 278 278 278 277 277 277 276 277
302 302 302 301 300 298 296 293 292 291 288 288 288 287 285 285 285 284 284 284 283 283 283 283 282 281 280 279 278 278 278 278 278 277 277 277 277 277 277 277 277 276 276 276
300 300 299 297 296 294 293 292 290 289 289 288 286 285 284 284 284 285 285 283 282 282 282 282 281 280 279 278 278 277 277 277 277 277 277 277 277 277 276 276 276 276 276 276
299 298 297 296 295 293 292 290 289 288 287 286 285 285 285 284 284 284 283 283 282 282 282 282 280 278 278 277 277 277 276 276 276 276 276 276 276 276 276 275 275 275 275 275
296 296 295 293 291 290 290 289 287 287 286 285 285 284 284 284 283 284 283 282 282 282 282 281 279 277 277 276 276 276 276 276 276 276 276 276 275 275 275 274 274 274 274 274
293 291 290 290 291 289 287 286 285 285 284 283 283 284 284 284 284 282 282 282 282 281 281 279 277 276 276 276 276 275 275 275 275 275 275 275 274 274 274 273 273 273 274 274
291 291 291 291 288 287 286 286 285 284 284 283 282 282 283 283 282 281 281 281 280 279 278 277 276 276 275 275 275 275 275 275 275 275 274 274 274 274 273 273 273 273 273 274
289 288 287 287 286 286 286 285 285 284 283 282 281 281 281 280 280 280 279 278 277 277 276 276 275 275 275 275 274 274 275 275 275 274 274 274 274 273 273 274 274 274 274 275

GFSNGP_925_thetae_048.txt.gz
Theta_e
313 313 312 313 314 314 315 314 315 314 315 316 317 315 314 313 313 313 311 314 312 312 312 313 312 309 304 301 298 296 296 295 295 294 294 293 293 292 292 291 291 290 289 289
311 312 313 314 314 314 316 317 319 320 321 317 315 313 314 314 314 314 312 312 311 311 311 306 303 302 300 298 297 296 295 295 294 293 292 292 291 291 291 290 289 289 288 288
316 314 315 319 318 318 321 321 321 323 320 317 316 316 315 314 314 314 313 311 310 308 301 298 298 297 296 296 296 295 294 293 293 292 291 291 291 290 289 289 289 288 288 287
314 314 322 316 319 319 319 320 320 319 319 319 317 314 312 313 314 311 311 310 307 301 297 295 295 294 294 294 294 294 293 292 292 291 290 290 290 289 289 289 288 288 287 287
317 315 315 318 319 318 319 322 318 317 319 319 317 316 312 309 307 307 304 302 299 296 294 294 293 294 294 293 293 292 292 291 291 290 290 289 289 289 288 288 288 287 287 286
316 317 318 317 316 315 317 324 318 317 317 318 314 322 314 307 301 299 297 296 295 294 294 294 294 294 293 293 293 292 291 291 291 290 289 289 288 288 288 288 287 287 286 286
316 317 314 312 316 316 326 322 317 315 315 313 313 314 309 303 301 299 298 296 296 296 296 296 296 295 295 294 293 292 291 291 290 289 288 288 288 287 287 287 287 286 286 286
315 317 316 315 316 321 318 316 316 314 313 311 309 307 305 302 300 299 298 297 296 295 295 296 297 295 292 291 290 289 288 288 288 288 289 288 287 287 286 286 286 286 285 285
315 314 312 315 315 315 313 313 313 312 312 309 307 306 303 300 297 296 295 296 296 294 292 292 291 289 287 287 288 288 287 288 288 287 287 287 287 286 286 286 285 285 285 284
317 317 315 315 313 311 309 308 307 307 310 309 307 305 302 301 299 297 295 295 293 292 290 289 289 288 287 287 287 287 287 287 287 287 286 286 286 286 286 285 284 284 283 283
316 315 315 313 311 309 307 305 304 304 307 309 305 303 300 300 299 299 297 296 292 290 288 286 286 286 286 287 288 287 287 287 287 286 286 286 285 285 284 284 283 281 282 281
319 315 316 312 309 308 306 303 303 304 305 303 302 301 299 298 297 296 294 290 288 287 286 286 286 287 288 288 288 287 287 286 286 286 285 285 285 284 284 283 282 281 281 281
316 313 310 308 306 304 303 301 301 301 301 301 300 299 298 297 294 292 290 288 288 287 286 287 287 288 288 288 288 287 286 286 286 285 285 284 283 283 282 282 282 282 282 281
312 311 312 308 306 300 299 298 298 298 298 297 296 296 295 294 292 290 289 287 287 286 287 287 287 287 287 287 287 286 286 285 285 284 284 283 282 281 281 281 280 280 280 281
312 310 309 304 301 299 297 297 296 295 295 294 294 294 293 290 288 287 287 287 287 286 286 286 286 286 286 286 286 285 285 284 284 283 281 281 280 280 280 280 280 280 280 279
307 306 304 303 300 298 298 298 296 295 294 293 292 291 289 288 287 287 287 286 286 285 285 286 286 286 286 285 285 285 284 283 282 281 280 280 280 280 280 279 279 279 279 279
307 306 304 300 300 299 299 298 296 295 294 292 290 288 287 287 287 286 286 285 285 285 285 285 284 285 285 285 285 284 283 281 281 280 280 279 279 279 279 279 279 278 278 278
307 307 303 302 301 300 298 297 295 294 291 289 288 288 288 287 285 284 284 284 284 284 284 284 284 284 284 284 283 282 281 280 279 279 279 279 279 279 278 278 278 278 277 277
304 306 305 303 301 300 298 296 294 291 289 289 289 288 287 285 284 284 284 284 283 283 283 283 283 284 283 281 281 280 280 279 279 279 278 278 278 278 278 278 277 277 277 276
303 305 306 303 301 298 297 294 291 290 290 290 287 286 285 285 285 284 284 284 284 283 283 283 283 282 281 280 280 279 279 279 278 278 278 278 277 278 277 277 277 277 276 276
302 302 302 301 299 297 294 292 291 290 288 288 287 286 285 285 285 284 283 283 284 283 284 283 283 282 280 279 279 279 278 278 277 277 277 277 277 277 277 276 276 276 276 276
300 299 298 297 296 294 292 291 289 288 288 287 286 285 284 284 285 284 284 283 283 283 283 283 282 280 279 279 278 278 277 277 277 276 276 276 276 276 276 276 275 275 275 274
297 297 296 294 293 292 291 289 289 288 287 286 285 284 284 284 284 283 282 282 283 282 282 282 280 279 278 278 278 277 277 276 276 276 276 276 276 276 275 275 275 274 274 274
296 295 294 293 291 290 289 288 288 287 286 285 285 285 284 284 284 284 284 283 283 283 282 281 279 278 278 277 277 277 276 276 276 276 276 276 275 275 274 274 274 274 274 274
292 291 291 290 288 287 287 286 285 285 284 284 284 284 284 285 285 283 283 283 283 282 281 280 278 278 277 277 276 276 275 275 276 276 275 275 275 274 274 274 274 274 274 274
290 290 290 290 288 287 286 286 284 284 284 283 283 284 284 285 283 283 283 282 282 281 280 278 277 277 276 276 275 275 275 276 276 275 275 275 274 274 274 275 275 274 274 275
290 289 287 287 287 286 286 285 285 284 284 283 282 283 283 283 282 282 282 281 280 278 277 277 276 276 276 275 275 275 276 276 275 275 275 275 275 275 275 275 274 274 274 275

GFSNGP_925_thetae_051.txt.gz
Theta_e
311 311 312 312 311 311 307 311 313 312 312 311 313 315 316 315 311 314 314 313 313 311 310 309 305 303 300 297 297 297 297 296 295 295 294 294 293 293 293 293 292 291 292 292
308 311 312 312 312 312 312 312 313 313 314 314 316 315 316 313 314 314 314 312 311 309 306 302 302 300 297 297 296 296 295 295 295 294 293 292 291 291 292 292 291 290 290 290
310 312 313 313 314 313 313 314 316 320 319 319 319 317 313 313 312 312 311 312 309 299 298 297 297 297 296 296 295 295 294 293 293 292 291 291 292 291 290 290 290 289 288 288
309 312 319 315 315 316 316 317 319 320 320 318 318 313 310 305 308 306 304 306 299 296 295 294 294 295 295 295 294 293 292 292 292 291 291 290 290 290 290 290 290 288 287 287
315 316 312 316 319 317 317 320 319 319 317 318 314 314 310 302 299 298 297 296 295 294 294 294 294 294 293 293 292 292 291 291 291 290 290 290 289 289 288 288 288 287 287 286
313 313 315 318 316 315 316 324 318 317 317 315 312 321 313 302 298 296 295 294 294 294 294 294 293 293 293 292 291 291 290 290 290 290 289 289 290 290 289 288 287 287 286 286
312 314 313 310 314 315 321 318 315 315 317 312 314 311 303 301 298 297 296 296 296 295 295 294 293 293 293 292 291 291 291 291 291 293 293 291 288 288 287 287 287 286 286 285
314 316 312 311 315 319 315 314 316 314 313 310 307 303 301 300 299 298 297 295 295 294 293 294 294 293 292 292 292 292 292 292 292 290 288 287 287 287 287 286 286 285 285 285
311 311 308 311 314 311 311 311 311 312 310 307 306 301 299 298 299 298 297 295 293 293 294 293 292 293 292 291 293 291 287 287 288 289 287 287 287 286 286 285 285 284 284 283
314 315 312 311 310 309 307 307 306 306 308 308 306 303 300 297 296 295 294 293 292 292 290 288 288 287 287 286 287 288 290 290 287 287 286 286 286 286 285 284 283 282 282 281
314 314 313 311 310 308 306 303 303 303 306 308 305 302 301 299 297 296 294 293 291 290 289 287 287 287 288 288 290 289 287 286 287 286 286 285 285 284 284 283 282 281 281 281
317 315 314 312 308 306 305 303 303 304 303 304 301 301 300 299 298 296 293 290 289 287 287 286 287 287 287 288 288 287 286 286 286 285 285 284 284 283 283 282 282 282 282 282
314 311 309 307 304 303 301 300 301 301 301 300 300 299 298 295 291 292 289 288 287 287 287 287 287 287 288 288 287 287 286 286 285 284 284 283 282 281 281 281 281 281 281 282
311 309 310 305 305 299 299 299 298 297 297 297 297 297 295 293 291 290 289 287 287 287 287 287 287 287 287 287 287 286 285 285 284 283 282 281 281 281 280 280 279 280 280 280
310 308 308 302 298 297 296 296 295 295 294 293 294 293 291 291 289 288 287 287 287 287 287 287 287 286 286 286 286 285 285 284 283 281 281 280 280 280 280 279 279 279 279 279
305 303 302 301 298 296 296 295 294 294 293 292 291 289 288 288 287 287 287 286 286 286 286 286 286 285 285 285 285 284 283 282 281 281 280 280 280 280 279 279 278 278 278 278
309 307 303 298 297 297 297 296 295 294 292 291 289 288 287 287 287 286 286 286 286 286 286 286 285 285 285 285 285 283 282 281 281 280 279 279 279 279 278 278 278 278 277 277
304 306 303 301 299 298 297 296 295 293 291 288 287 287 286 286 286 285 284 285 285 285 285 285 285 284 284 284 283 282 281 280 280 279 278 279 279 278 278 278 277 277 277 277
304 305 303 301 299 298 297 295 293 290 289 288 287 287 285 285 284 283 284 284 283 283 283 284 284 284 283 282 281 281 280 280 279 278 278 278 278 278 277 277 277 277 276 276
302 305 303 301 300 298 296 293 290 289 288 288 286 285 285 284 284 283 283 283 283 283 283 283 283 283 282 280 280 280 279 279 278 278 278 277 277 277 277 277 276 276 275 275
300 302 303 300 298 296 294 291 290 289 288 287 286 285 284 284 284 284 283 283 283 283 283 283 283 281 280 280 280 279 278 278 277 277 277 277 276 276 276 276 275 275 275 275
298 298 298 296 294 292 291 291 290 288 287 286 286 285 284 283 284 284 284 283 283 284 283 283 282 280 280 279 279 278 278 277 277 277 277 276 276 276 276 275 275 275 274 274
296 296 295 294 293 291 290 289 288 287 286 286 285 284 285 284 284 283 282 283 284 283 283 282 281 280 279 279 278 278 277 277 277 277 276 276 276 275 275 275 274 274 274 274
294 294 294 292 290 289 288 289 288 287 286 285 285 285 284 283 284 285 285 284 283 282 282 282 280 279 278 278 277 277 276 276 276 276 276 276 275 275 275 274 274 274 275 275
290 290 290 289 287 287 287 286 286 285 285 284 285 285 285 285 285 283 283 283 283 282 282 280 279 278 278 277 277 276 276 276 276 276 276 276 275 275 275 274 274 274 275 275
290 289 289 289 288 287 286 285 285 284 284 283 283 285 285 285 285 283 283 283 283 282 281 279 278 278 277 277 276 276 276 276 276 276 276 275 275 275 275 274 274 275 275 275
289 289 288 287 287 286 286 285 284 284 284 284 283 283 284 284 283 283 283 283 282 281 279 278 278 277 277 276 276 276 276 276 276 275 275 275 275 275 275 275 275 275 275 275

GFSNGP_925_thetae_054.txt.gz
Theta_e
309 310 311 311 309 309 309 310 308 310 309 309 310 311 313 316 313 314 314 314 313 312 311 307 300 298 297 297 298 298 297 297 296 296 296 295 294 293 293 293 293 294 291 289
307 309 311 311 311 310 310 309 310 310 310 310 311 316 317 313 311 312 310 310 312 308 304 300 296 297 298 298 298 297 296 296 295 295 294 293 292 291 292 291 292 292 292 292
309 310 311 311 312 311 311 310 312 314 313 314 318 318 312 306 306 306 302 309 304 297 296 295 296 296 296 295 295 294 294 294 293 292 291 290 291 292 292 292 292 291 290 288
308 310 316 312 312 311 311 312 312 315 318 318 318 311 304 301 301 300 298 297 296 295 294 295 295 295 294 293 292 292 291 291 291 291 291 292 293 292 291 290 289 289 290 291
315 313 310 315 318 317 317 317 316 319 319 317 315 310 306 302 298 296 295 295 294 294 294 294 293 293 292 292 291 291 291 291 291 293 292 291 289 289 289 289 287 287 287 286
314 310 313 315 315 314 316 319 316 317 317 317 313 320 314 301 297 295 295 294 294 294 293 293 293 292 292 291 291 291 291 291 293 294 291 289 288 288 288 290 291 288 286 285
313 314 310 308 309 314 319 315 315 315 315 313 314 311 304 300 297 296 296 296 295 294 293 293 293 293 293 292 290 290 290 291 290 289 290 290 291 292 289 287 285 285 285 285
313 314 311 308 314 319 314 312 315 313 312 308 305 303 302 300 298 297 296 295 294 293 292 293 293 292 290 289 290 290 290 290 291 292 292 292 291 287 286 285 285 285 284 284
310 310 307 308 312 311 309 310 310 311 309 305 302 302 300 299 299 297 295 294 294 293 292 291 292 293 290 290 292 292 292 292 291 290 288 286 286 285 285 285 284 284 283 282
312 314 310 309 308 309 307 307 305 306 306 304 302 300 298 297 298 297 296 296 295 294 292 290 292 292 292 292 291 290 288 288 288 287 286 286 285 285 285 283 282 282 281 281
312 312 312 311 310 308 306 303 303 303 305 305 301 299 298 297 296 294 293 292 291 289 288 287 290 290 290 288 288 289 289 287 286 285 285 285 284 283 283 282 282 281 281 281
315 314 315 313 308 306 305 303 302 304 305 304 303 300 298 297 296 294 293 292 290 288 287 287 288 288 287 288 290 289 286 286 285 285 284 284 284 283 284 283 283 282 282 282
311 310 309 308 305 303 302 301 301 302 302 301 301 300 299 298 296 293 291 289 288 287 287 287 287 287 288 289 289 287 286 285 285 284 284 283 282 281 281 280 280 281 282 282
309 309 310 306 307 300 299 299 299 298 300 300 299 299 295 295 294 290 289 288 288 287 287 287 288 288 287 287 287 286 286 285 285 284 282 281 281 280 280 279 279 279 279 280
306 306 305 300 298 297 296 296 296 295 294 295 296 294 293 291 291 290 287 287 287 287 287 288 287 286 287 287 286 286 285 284 283 281 280 280 280 280 279 279 278 278 278 278
306 303 301 302 298 296 295 295 295 293 292 292 291 292 292 291 288 287 287 287 287 287 287 287 287 286 286 286 285 284 283 282 281 280 280 280 279 279 278 278 278 278 277 277
305 307 304 300 298 296 295 294 294 293 291 290 289 288 288 288 287 287 287 287 287 287 287 287 286 285 285 285 285 283 282 281 280 280 279 279 279 278 278 278 277 277 277 277
299 301 304 303 299 297 296 295 294 292 290 289 288 288 288 287 287 286 285 286 286 286 286 286 285 285 284 284 283 282 281 280 279 279 279 279 278 278 277 277 277 277 276 276
300 301 303 303 300 298 297 295 293 290 289 288 288 288 287 286 285 285 284 284 284 283 284 285 285 284 284 283 281 281 280 280 279 278 278 278 277 277 277 277 277 276 276 275
299 303 302 300 299 297 295 292 290 289 289 288 287 285 285 284 284 284 284 284 284 284 284 284 283 283 282 281 280 280 280 279 278 278 278 277 277 277 277 276 276 275 275 275
299 300 302 300 298 296 294 291 290 289 288 286 286 285 284 284 284 284 283 283 284 284 284 283 283 282 281 280 280 280 279 278 278 277 277 277 277 276 276 275 275 275 275 274
297 297 299 297 296 294 293 291 290 288 287 286 286 284 284 283 283 284 284 284 283 283 283 283 282 281 280 280 279 279 278 278 277 277 277 277 277 276 275 275 275 275 274 274
294 295 295 294 293 291 291 290 289 288 287 286 285 284 284 284 284 284 283 284 284 283 283 282 281 280 280 279 279 278 278 277 277 277 276 276 276 275 275 275 275 274 275 275
291 291 293 292 291 289 288 289 288 288 287 286 286 285 285 283 284 285 286 284 284 283 283 282 282 281 279 279 278 278 277 277 277 276 276 276 275 275 275 275 275 275 275 275
289 289 289 289 288 288 288 288 287 286 285 285 285 285 285 285 285 284 285 284 283 283 282 282 281 279 279 278 278 277 277 276 276 276 276 276 276 275 275 275 275 275 275 275
287 288 289 288 288 288 287 286 286 285 284 284 284 285 285 285 286 285 284 284 283 282 282 281 280 279 278 278 277 277 276 276 276 276 276 276 276 276 276 275 275 276 275 275
288 289 288 287 287 287 286 286 285 285 285 284 284 284 285 285 285 284 283 283 283 282 281 280 279 278 278 277 277 276 276 276 277 276 276 276 276 276 276 275 276 276 276 276

GFSNGP_925_thetae_057.txt.gz
Theta_e
308 309 310 309 309 309 308 308 305 308 308 308 308 308 309 313 311 310 310 306 306 310 310 302 298 298 298 298 298 299 299 299 299 299 298 297 295 294 293 292 291 293 292 290
306 308 309 311 310 309 309 310 310 310 310 309 309 309 316 311 307 307 305 300 306 301 298 296 296 295 296 296 296 296 295 295 295 294 293 292 291 290 291 291 291 291 291 290
306 308 310 310 310 310 310 308 310 312 311 311 314 317 315 307 304 303 301 299 296 295 295 295 294 295 294 293 293 293 292 291 291 291 291 291 291 291 291 291 291 291 293 293
310 309 317 310 308 310 310 310 309 311 311 312 316 314 305 302 300 299 297 297 296 295 295 295 295 294 294 293 293 292 292 291 292 292 291 291 291 292 292 293 293 293 292 292
315 312 309 314 315 311 312 316 311 311 313 317 314 308 309 302 297 296 295 295 294 294 294 294 293 293 293 292 292 292 292 292 292 291 291 291 290 290 291 291 291 291 291 288
313 312 312 311 314 313 314 319 314 315 317 316 313 318 314 299 296 295 295 294 294 294 293 292 292 292 292 292 292 291 291 290 290 291 291 290 291 291 291 292 291 291 285 286
312 313 308 306 307 314 317 315 314 314 314 315 314 310 302 297 296 296 296 295 294 294 294 293 293 292 291 290 289 290 290 291 291 291 291 292 291 291 290 289 286 284 284 284
314 314 310 307 314 318 313 312 313 313 313 312 306 303 301 298 297 296 296 294 294 293 293 293 292 292 290 289 290 291 291 292 291 291 291 291 291 288 286 284 284 284 284 283
309 308 305 307 311 310 310 310 309 309 309 305 303 302 301 300 298 295 294 294 294 293 292 293 292 291 290 289 291 291 291 291 291 291 290 287 286 285 284 284 284 283 283 282
310 311 308 308 307 306 308 307 305 304 307 302 302 302 300 299 298 296 295 294 294 293 292 292 291 291 291 291 292 292 291 289 287 286 285 285 285 284 284 283 282 281 281 280
311 309 310 310 309 309 306 304 303 302 305 302 301 300 298 298 296 296 295 294 292 291 289 290 292 291 292 292 292 289 287 286 285 285 285 284 283 283 282 282 282 281 281 281
311 310 312 311 310 307 305 304 302 303 305 302 301 299 298 297 295 294 291 290 289 290 289 289 290 290 290 289 289 288 286 286 285 284 284 284 283 284 284 284 283 283 282 282
309 309 308 307 306 303 303 301 301 302 304 303 301 299 298 297 295 294 292 290 289 289 290 289 288 288 288 289 291 287 286 285 284 284 283 282 281 281 280 280 280 281 281 281
308 308 309 306 307 301 300 299 300 301 301 300 301 299 297 296 295 291 290 289 289 288 288 288 288 288 288 289 287 286 285 284 284 283 281 281 281 280 280 279 279 279 279 279
305 304 303 301 298 298 296 296 297 297 297 296 298 296 296 295 291 290 290 289 288 288 287 288 288 287 287 287 286 285 285 284 283 281 281 281 280 279 279 278 278 278 278 278
302 303 303 302 300 297 296 295 296 294 294 293 294 294 294 292 290 288 288 288 288 287 287 288 287 287 286 286 286 285 284 283 282 281 280 280 279 279 278 278 278 277 277 277
301 302 306 303 301 299 295 295 294 293 291 290 291 291 291 290 288 287 287 288 289 289 288 287 287 286 286 286 285 285 283 282 281 280 280 279 279 278 278 277 277 277 277 277
297 298 299 300 302 301 297 295 294 292 292 290 289 289 289 289 288 287 286 287 287 287 287 287 287 286 285 285 285 284 282 281 280 279 279 279 278 278 277 277 277 276 276 276
299 299 299 300 301 301 298 295 294 292 289 289 289 289 289 288 287 286 286 286 285 285 285 286 286 285 285 284 283 282 281 280 279 279 278 278 278 277 277 277 276 276 276 275
298 298 301 299 299 297 295 293 291 289 289 289 289 288 287 287 286 285 285 285 285 286 286 285 285 285 284 283 281 281 280 279 279 278 278 277 277 277 277 276 276 276 275 275
296 297 300 299 297 294 292 291 290 290 289 288 288 287 286 285 285 285 284 284 284 286 286 285 284 284 283 281 280 280 280 279 278 278 278 277 277 277 276 276 275 275 275 275
294 295 296 296 296 294 292 292 291 290 288 287 286 285 284 284 284 284 285 285 285 285 284 284 283 283 282 280 280 280 279 278 278 277 277 277 277 276 276 275 275 275 275 275
291 292 294 295 294 293 292 291 289 288 287 286 285 284 284 284 284 283 283 285 285 284 284 283 283 282 281 280 280 279 279 278 277 277 277 277 276 276 276 275 275 275 275 275
289 289 289 290 291 290 290 289 289 288 287 286 286 286 285 283 284 285 286 285 285 284 283 283 282 282 281 280 279 279 278 278 277 277 276 276 276 276 276 275 275 275 275 275
288 288 289 288 288 288 288 289 288 288 287 287 286 285 285 285 286 285 286 285 284 284 283 282 283 282 280 279 279 278 278 277 276 276 277 277 276 276 276 275 275 275 276 275
287 287 288 288 287 287 287 287 287 286 285 284 284 285 285 285 286 286 286 285 284 283 283 283 283 282 279 279 278 278 277 276 276 276 276 277 276 276 275 276 276 276 276 276
288 288 288 288 289 287 286 286 285 285 286 285 284 284 285 285 285 285 284 284 284 283 282 283 282 281 278 278 278 277 277 276 276 277 277 277 276 276 276 276 276 276 276 276

GFSNGP_925_thetae_060.txt.gz
Theta_e
307 309 309 308 309 307 305 305 305 306 305 306 306 307 307 309 309 307 305 299 298 298 296 296 297 296 297 297 297 298 299 300 298 298 299 298 296 296 294 293 292 292 292 292
305 308 309 310 309 308 308 309 307 308 310 309 309 308 309 312 306 304 302 299 298 295 296 296 295 295 294 295 295 296 295 293 293 293 292 292 292 292 292 291 291 291 291 290
305 307 309 310 309 309 308 307 309 310 310 309 311 312 315 308 303 301 299 298 297 295 296 295 294 294 293 293 293 292 292 292 292 292 291 291 291 291 290 290 290 290 291 292
310 308 315 309 307 309 309 309 307 309 310 310 310 313 305 301 300 298 296 296 295 295 295 295 294 294 294 293 293 292 292 292 291 291 291 291 291 290 291 292 293 293 293 293
313 312 309 313 313 309 312 316 308 309 310 310 314 310 307 299 296 294 294 295 294 294 293 293 293 293 293 293 292 292 291 291 291 291 291 291 291 291 292 293 292 291 291 291
312 311 312 309 313 310 313 323 314 311 311 314 313 317 314 299 295 294 294 294 294 293 293 292 292 292 292 291 291 290 290 290 291 290 291 291 291 291 291 291 290 289 287 287
311 313 307 305 307 311 320 316 313 314 312 314 314 310 302 297 296 295 295 294 294 294 294 293 292 292 290 290 290 290 290 290 290 291 292 291 291 291 291 290 287 285 284 283
313 313 309 305 314 318 314 311 312 311 312 313 305 302 300 297 297 295 295 294 294 294 293 292 291 291 290 289 290 291 291 291 292 292 291 291 291 289 285 284 283 283 283 283
309 308 304 306 310 310 309 310 309 308 309 308 304 303 300 298 297 294 293 294 293 293 293 292 292 290 290 290 291 292 292 291 291 291 290 288 285 284 284 284 283 283 282 281
309 310 306 307 306 305 307 307 306 304 306 303 303 302 301 298 295 294 294 293 293 293 293 291 291 291 291 291 292 292 291 290 287 285 284 284 284 284 284 283 282 281 281 281
309 308 309 310 310 309 307 304 303 302 305 303 302 301 300 298 296 295 295 295 293 292 292 291 291 291 291 292 292 290 286 285 285 284 284 283 282 282 282 282 281 281 281 281
309 308 309 309 309 308 306 305 302 302 304 302 301 300 299 297 296 294 293 292 290 290 291 291 291 291 292 291 290 287 285 284 284 284 283 283 284 284 284 284 284 283 283 282
308 306 306 306 304 304 304 302 301 300 302 302 300 299 298 296 294 293 291 290 291 291 291 290 291 291 291 290 289 286 285 284 284 284 283 283 282 281 280 281 281 281 281 281
305 306 309 307 306 301 301 300 301 301 301 301 299 299 298 296 296 293 291 291 293 292 291 291 290 288 289 291 287 286 285 284 284 283 282 281 280 280 279 279 279 279 279 279
301 302 303 300 299 299 297 296 299 299 298 297 299 298 297 296 294 292 291 291 290 290 290 289 288 288 288 289 286 286 285 284 283 281 280 280 280 279 279 279 278 278 278 278
300 300 302 302 302 300 297 296 297 296 295 294 295 296 296 295 292 291 290 289 288 287 288 288 288 288 287 286 286 285 284 283 282 281 280 280 279 279 278 278 278 277 277 277
300 302 302 301 302 302 298 297 296 295 293 293 293 294 293 291 290 289 289 289 289 288 289 289 288 287 286 286 285 284 284 282 281 280 280 279 279 278 278 277 277 277 277 277
297 298 297 297 298 299 301 298 296 294 293 293 292 291 291 290 290 289 288 288 288 288 288 289 288 287 286 285 285 284 283 282 281 280 280 279 278 278 277 277 277 277 276 276
297 298 298 299 298 298 299 299 295 294 292 291 291 290 291 291 289 287 288 288 288 286 286 287 287 286 285 285 284 284 282 281 280 279 279 279 278 277 277 277 277 276 276 276
296 296 297 300 297 297 297 295 293 291 290 290 290 289 289 288 287 287 288 287 288 287 287 286 286 285 285 284 284 283 281 280 280 279 278 278 277 277 277 277 276 276 276 276
295 295 296 297 296 293 293 291 291 290 289 289 289 289 288 287 287 287 286 286 287 286 287 286 285 285 284 284 283 281 280 280 279 278 278 278 277 277 277 277 276 276 276 276
293 292 293 295 295 294 292 291 291 290 289 289 288 288 287 286 286 285 286 286 286 286 286 286 285 285 284 283 282 281 280 279 279 278 278 277 277 277 277 276 276 276 275 275
290 290 290 291 293 292 292 291 291 290 289 288 288 286 286 285 284 284 284 285 286 285 286 286 285 284 283 283 281 280 279 279 278 278 277 277 277 277 277 276 276 275 275 275
288 288 288 288 289 291 291 290 289 287 287 287 287 287 286 284 284 285 286 287 286 286 286 285 283 283 282 282 280 279 279 278 278 277 277 277 277 277 276 276 276 275 275 275
287 288 288 287 288 287 287 288 289 289 288 287 285 285 285 286 286 285 286 286 285 285 285 284 283 283 283 281 280 279 279 278 278 277 277 277 277 276 276 276 276 275 276 276
287 288 287 287 287 287 286 287 287 287 287 286 287 287 286 285 285 286 286 286 285 285 284 283 283 284 283 280 279 279 278 278 277 276 277 277 277 276 276 276 276 276 276 276
286 286 286 286 287 287 287 287 286 286 286 286 286 286 286 285 284 285 285 285 285 285 284 283 283 284 283 280 279 279 278 277 277 276 277 277 277 276 276 276 276 276 276 276

GFSNGP_925_thetae_063.txt.gz
Theta_e
307 309 308 308 310 306 304 305 309 307 305 306 305 305 306 307 309 307 303 300 299 297 297 296 295 294 294 294 294 295 295 295 295 296 297 296 295 294 294 292 292 291 292 292
307 308 308 310 309 308 307 308 306 306 308 308 308 308 308 310 307 305 302 300 298 296 296 295 294 293 293 293 293 293 293 293 293 293 293 293 293 293 293 292 292 292 292 292
307 307 309 310 309 309 308 307 309 311 310 309 309 310 314 309 305 302 298 299 297 296 295 294 294 294 293 293 293 293 292 292 292 292 292 292 292 292 291 291 292 292 292 292
309 308 315 308 306 308 309 308 307 308 309 310 309 312 305 302 301 298 296 296 295 295 295 294 294 294 294 293 293 293 292 292 291 291 291 291 291 291 291 291 291 291 292 292
311 311 308 314 310 308 311 315 307 308 309 309 310 311 308 299 297 295 294 294 294 294 293 293 293 293 293 293 292 292 291 291 291 290 290 290 290 290 291 292 292 291 290 289
307 308 311 308 312 309 311 322 314 309 312 312 314 319 315 299 295 294 294 294 294 293 293 293 292 293 292 291 291 290 290 290 291 291 291 291 291 291 291 290 289 288 288 287
310 308 308 304 307 307 319 319 312 313 313 313 314 311 302 297 296 295 295 294 294 294 293 293 292 291 291 290 290 290 291 291 291 291 291 291 291 290 290 289 287 284 284 284
312 309 309 304 311 317 315 310 311 310 310 313 307 302 299 297 296 295 295 295 294 294 293 292 291 291 290 289 290 291 292 291 291 291 291 291 290 286 284 283 283 283 283 283
307 308 305 305 309 309 307 307 307 308 307 308 304 303 299 297 295 294 294 294 294 294 293 292 290 291 291 290 291 291 291 291 291 291 289 285 284 284 283 283 283 282 281 281
309 309 305 306 306 305 306 308 306 304 304 304 304 302 300 298 295 294 294 293 293 293 292 291 291 291 292 291 292 292 291 288 286 285 284 284 284 284 283 283 282 281 280 281
307 307 308 310 308 309 309 306 304 302 303 304 302 301 300 297 295 295 294 294 294 293 292 290 291 291 292 292 293 291 286 285 284 284 283 282 282 282 282 281 281 281 281 281
309 307 308 308 307 308 308 307 304 302 303 302 301 301 300 298 295 295 295 293 292 293 292 292 292 292 292 292 291 286 285 284 284 283 283 283 284 284 284 284 284 283 282 282
308 306 304 304 304 303 304 303 302 300 300 302 300 299 299 298 296 295 293 291 292 292 292 292 292 292 291 290 288 286 285 284 284 283 283 283 283 281 281 282 281 281 281 281
302 303 308 306 306 301 299 300 300 301 301 301 299 299 297 296 296 294 292 292 293 293 292 292 292 291 290 289 286 286 285 284 284 283 281 281 280 280 279 279 279 279 278 279
300 300 300 300 300 299 297 296 299 299 298 298 298 298 297 296 296 294 293 293 293 293 293 292 290 289 289 289 286 285 285 284 283 282 281 281 280 279 279 279 278 278 278 278
297 298 300 302 302 302 299 298 297 298 296 296 296 296 297 296 295 293 292 291 290 289 292 291 289 289 289 289 286 285 284 283 282 281 280 280 279 279 278 278 278 277 277 277
298 300 300 299 300 300 301 299 298 297 296 295 295 296 296 294 293 291 290 290 291 292 292 291 290 289 288 287 286 285 284 282 281 280 280 280 279 279 278 278 277 277 277 277
296 297 298 298 298 297 297 299 300 297 296 296 295 294 293 292 293 291 289 289 290 289 290 291 289 289 287 286 285 284 283 282 281 280 280 279 279 278 278 277 277 277 277 276
297 297 297 297 298 299 298 297 298 298 296 294 293 292 292 292 292 290 289 289 288 287 288 289 289 287 286 285 285 284 283 282 280 280 280 279 279 278 278 277 277 277 276 276
295 295 295 297 297 294 294 297 297 294 293 292 292 291 291 290 290 289 289 288 288 289 289 288 287 286 286 284 284 283 282 281 280 280 279 279 278 278 277 277 277 277 276 276
293 293 294 295 296 294 292 291 291 290 290 290 290 290 290 289 289 288 288 288 289 291 291 289 287 286 285 284 283 283 282 281 280 280 279 279 278 278 277 277 277 276 276 276
291 291 291 291 292 294 293 291 291 290 290 290 290 289 288 287 287 287 288 289 290 290 289 288 285 285 284 284 283 282 281 281 280 279 279 278 278 278 277 277 277 276 276 276
290 289 289 289 289 291 291 291 290 290 289 289 289 288 288 288 287 286 286 288 290 289 287 286 286 285 283 284 283 282 281 280 280 279 279 278 278 277 277 277 276 276 276 276
288 288 288 288 289 288 289 289 289 288 288 289 289 289 288 286 286 287 288 288 288 287 286 286 285 284 284 283 282 281 281 280 280 279 278 277 277 277 277 277 276 276 276 275
287 288 288 287 287 287 286 287 288 289 288 287 286 285 286 286 287 287 286 286 286 286 286 285 284 284 284 283 282 281 281 280 279 279 278 277 277 277 277 276 276 276 276 276
285 286 286 286 286 286 286 286 286 287 287 287 287 287 286 286 285 286 286 286 286 286 286 284 284 284 284 283 282 281 280 280 279 278 278 277 277 277 277 277 276 276 276 276
282 283 283 282 283 284 286 287 286 286 286 286 286 286 287 287 287 286 284 285 285 285 285 284 284 284 284 283 282 280 280 279 279 278 277 277 277 277 277 277 277 277 277 277

GFSNGP_925_thetae_066.txt.gz
Theta_e
310 311 311 312 313 310 311 313 318 312 311 311 310 311 312 312 313 311 308 306 304 302 303 301 300 298 298 297 297 298 298 298 297 296 295 295 295 294 293 293 293 292 292 292
311 310 311 312 311 312 311 311 310 311 312 311 311 311 311 315 312 309 305 304 302 300 300 300 299 298 297 296 296 296 296 296 295 294 294 293 293 293 292 292 292 292 292 293
315 310 312 315 313 312 311 310 311 314 313 312 311 311 312 313 309 306 303 303 300 299 298 298 298 297 297 296 296 295 294 294 294 294 293 292 292 291 292 292 292 292 292 292
314 312 317 310 309 310 311 311 310 311 311 311 311 310 309 307 307 303 300 301 299 298 297 297 297 297 296 296 295 294 294 293 293 292 292 290 291 291 291 292 292 291 291 291
314 314 312 316 311 311 314 319 312 311 311 310 310 312 312 303 300 299 298 299 297 296 296 295 296 295 295 295 294 294 293 292 292 291 291 291 291 290 291 291 290 290 289 288
313 314 314 313 314 312 312 323 315 310 312 313 314 321 320 302 297 296 297 297 296 295 295 295 294 294 294 293 292 292 291 291 291 291 291 290 290 290 290 290 289 289 288 288
313 313 311 308 308 309 320 322 315 313 313 314 316 313 306 298 297 297 297 296 295 295 295 294 293 293 292 291 291 291 291 291 291 291 291 291 291 291 290 289 288 286 286 286
313 312 313 307 312 317 317 313 311 311 312 313 312 303 300 299 299 298 297 296 295 295 294 293 293 291 291 290 291 291 292 291 291 291 291 290 290 287 286 285 285 284 284 284
311 312 308 308 312 311 310 310 310 311 310 310 308 303 300 299 299 297 296 295 294 294 294 293 292 291 291 291 291 291 292 291 291 290 287 285 285 285 284 284 284 284 283 283
312 312 310 310 310 309 309 310 308 308 307 308 308 306 301 299 297 296 295 295 294 294 293 292 292 292 292 291 291 292 290 289 286 285 284 284 284 284 284 284 284 283 283 283
312 311 311 311 311 311 310 309 307 306 306 307 307 305 302 299 298 297 295 294 294 294 293 292 292 292 292 292 292 290 287 286 285 284 284 283 283 283 283 282 283 283 283 283
311 310 312 312 310 308 309 310 308 307 306 306 306 305 302 299 298 297 296 295 295 295 293 293 293 293 292 290 290 287 286 285 284 284 285 285 286 286 285 284 284 283 283 282
311 309 309 309 308 305 306 305 304 304 304 306 305 304 302 299 296 297 297 296 296 295 295 294 293 293 291 290 287 286 285 285 284 284 285 285 284 285 285 283 282 282 281 281
305 306 309 308 309 304 303 302 301 302 303 303 304 303 302 300 297 297 295 295 296 295 295 293 293 293 290 290 287 286 285 284 284 284 284 283 282 281 281 281 281 280 279 280
303 302 303 303 303 304 302 299 300 302 303 303 302 301 301 300 299 296 295 294 294 295 294 293 293 291 290 289 286 285 285 284 283 282 281 281 280 280 280 280 280 279 279 278
300 300 300 302 303 302 303 301 300 300 300 301 301 300 300 300 298 295 294 292 293 294 294 293 292 291 290 289 286 285 284 284 283 281 282 280 280 280 280 279 279 279 279 278
300 302 301 301 301 301 301 301 302 301 299 298 299 299 299 299 296 294 293 293 293 293 293 292 292 291 290 290 286 285 284 283 282 281 281 280 280 280 279 279 279 279 278 277
296 297 298 298 299 299 300 300 300 301 300 298 297 297 297 296 295 294 292 291 291 293 293 293 292 290 289 289 286 285 284 283 282 281 280 280 279 279 279 278 278 278 278 277
297 297 297 297 297 298 299 300 300 300 301 299 297 296 296 295 295 293 291 290 290 290 291 292 292 290 289 288 286 285 284 283 281 280 280 280 280 278 278 278 278 278 278 277
295 294 294 295 296 296 293 293 294 298 299 296 295 295 294 294 293 291 290 290 291 291 291 291 291 288 288 287 285 285 284 283 281 280 280 280 279 279 278 278 278 278 277 277
293 293 293 293 293 294 293 292 292 293 292 293 293 293 292 291 291 291 289 290 290 290 292 292 291 289 286 285 285 284 283 282 280 280 280 280 278 278 278 278 277 277 277 276
292 292 291 291 292 292 291 291 291 290 290 290 291 291 290 289 289 289 290 290 289 290 291 290 290 290 286 285 284 284 283 282 281 280 280 279 279 278 278 278 278 277 276 276
290 290 290 290 290 290 290 290 289 290 290 290 289 289 289 289 288 288 288 289 290 289 290 290 291 291 285 284 284 284 283 281 281 280 280 279 279 278 278 278 277 277 276 276
288 289 289 289 289 289 289 287 289 289 287 288 289 289 289 288 288 288 289 290 290 289 290 290 290 289 285 284 284 283 282 281 280 280 280 279 278 278 277 277 277 277 276 276
286 287 287 287 288 288 287 286 287 288 288 288 288 287 287 288 288 288 289 288 289 288 289 290 290 285 285 284 283 283 282 281 281 280 280 279 278 278 277 277 277 277 276 276
284 285 284 284 286 285 286 288 287 287 287 287 287 288 287 285 285 285 285 286 286 287 288 286 285 285 285 284 283 282 282 281 280 280 280 279 278 277 277 277 277 277 277 276
282 283 283 282 282 283 285 287 287 287 286 286 286 286 286 287 287 287 285 284 285 285 285 284 285 285 285 285 283 282 281 281 280 280 279 278 277 277 278 277 277 277 277 277

GFSNGP_925_thetae_069.txt.gz
Theta_e
312 312 313 314 314 313 313 315 321 313 313 311 311 312 312 315 315 316 313 310 308 308 306 305 303 302 301 300 300 300 301 300 299 298 296 296 295 295 294 294 293 293 293 293
314 312 312 314 313 313 313 312 312 312 312 312 311 313 314 315 316 314 311 307 305 304 304 304 302 301 300 300 299 299 299 298 297 297 296 295 295 295 294 294 294 293 293 293
317 312 313 316 314 313 313 312 313 314 313 313 313 313 313 314 313 312 307 306 304 303 302 301 301 300 300 299 298 297 297 297 296 295 294 294 293 293 291 291 292 292 292 293
315 313 318 313 311 312 313 312 312 312 312 312 312 312 312 311 312 308 305 303 303 302 300 300 300 300 299 298 297 296 296 295 295 294 292 291 291 290 290 291 291 291 290 290
316 315 314 315 312 312 314 317 312 312 312 313 313 313 313 309 307 304 301 302 301 300 299 298 299 298 297 297 296 296 294 293 294 292 291 290 290 290 290 290 289 289 289 288
314 316 315 318 315 313 314 323 315 313 314 315 315 320 320 306 301 299 300 300 299 297 297 297 296 296 296 296 295 294 293 292 291 291 291 291 291 290 289 289 289 289 288 289
314 314 313 311 310 310 321 322 314 313 314 314 317 315 309 301 299 300 300 298 296 296 296 295 295 295 294 293 292 291 291 291 291 290 290 290 291 290 290 290 288 288 288 289
312 313 314 313 313 315 317 315 314 313 314 314 313 306 303 301 300 300 299 297 296 296 295 295 294 293 291 291 291 291 291 291 291 291 290 290 291 289 287 287 286 286 286 285
312 313 311 310 313 311 311 313 313 312 312 311 311 305 303 301 301 301 299 298 296 295 295 293 292 292 291 291 291 291 291 291 291 291 289 287 287 287 286 286 286 285 284 284
312 312 311 311 311 313 311 312 310 310 309 309 311 308 304 302 301 300 298 297 297 296 294 293 292 292 292 292 292 293 293 292 289 287 286 286 286 286 286 285 285 284 284 284
313 312 312 312 312 313 310 310 309 308 308 309 310 309 304 302 301 299 298 297 296 295 294 293 293 292 293 293 293 293 290 287 287 286 286 285 285 285 284 284 284 284 284 283
312 311 312 313 312 310 310 310 309 309 309 308 308 309 305 302 300 300 298 297 295 296 294 293 293 294 294 294 293 290 288 287 286 285 286 287 286 286 285 285 283 283 282 283
310 310 310 310 310 308 308 308 307 306 307 308 308 308 306 303 300 299 299 297 297 296 295 294 294 294 294 293 291 288 287 286 286 286 287 287 287 287 285 283 282 281 281 281
309 308 310 310 311 307 306 306 304 304 304 305 307 306 306 303 299 299 298 298 298 297 296 296 296 295 294 292 288 287 286 286 285 286 286 285 284 283 283 283 282 281 280 280
307 305 306 305 305 306 305 304 304 304 305 305 305 305 305 304 301 300 297 297 298 297 297 296 296 295 292 290 287 286 286 285 285 284 284 283 282 282 282 281 281 281 280 280
305 304 303 303 304 304 304 304 305 305 303 303 304 304 304 303 302 299 296 295 296 297 296 296 295 294 290 289 287 286 286 285 284 284 283 282 282 281 281 281 281 280 280 280
302 304 303 303 303 303 303 303 303 303 303 301 300 302 302 302 302 299 296 294 294 295 296 295 295 293 290 290 287 286 285 284 284 283 283 282 282 281 281 281 280 280 280 279
297 298 299 300 300 300 301 301 301 302 303 303 301 299 299 300 299 297 295 293 293 294 295 295 294 292 291 291 288 286 285 284 284 283 282 281 281 281 280 280 280 280 280 279
298 298 297 297 297 297 298 298 298 298 299 301 302 300 299 299 298 296 295 292 292 292 293 294 293 292 290 290 289 286 285 284 284 282 282 281 281 280 280 280 280 280 279 279
296 294 294 295 295 295 296 294 293 293 295 299 301 300 299 298 297 295 293 292 293 294 294 294 293 292 289 289 288 286 285 284 283 282 281 281 281 280 280 279 279 279 279 279
293 293 293 293 293 293 292 292 292 293 293 293 296 297 297 296 295 293 291 291 292 292 293 293 293 292 291 288 286 285 285 284 282 282 281 281 281 280 279 279 279 278 278 278
292 293 293 292 292 292 291 290 290 291 291 290 291 292 292 292 292 291 292 292 292 291 291 291 291 291 292 289 286 285 284 283 283 282 281 281 280 280 279 279 279 279 279 278
291 291 291 291 291 290 290 289 289 289 289 290 290 290 290 290 289 289 289 290 290 290 290 290 290 291 291 287 286 285 284 283 282 282 281 280 280 280 279 279 279 279 278 278
289 289 289 289 290 290 290 289 288 288 289 288 289 289 289 289 289 289 289 289 290 289 289 289 289 290 289 288 287 285 284 283 282 282 281 280 280 279 279 278 278 278 278 278
287 288 287 286 289 288 288 288 289 288 288 288 288 288 288 288 288 288 287 288 288 288 288 288 289 289 288 287 287 285 284 283 283 282 281 280 280 279 279 278 278 278 278 278
285 285 284 284 285 285 286 287 288 288 288 288 287 287 288 287 286 286 285 287 287 287 287 288 288 288 288 288 288 286 283 283 282 281 281 280 280 279 279 278 278 278 278 277
284 283 284 284 283 283 284 285 286 287 287 287 287 286 286 286 287 287 286 284 285 286 287 287 287 287 287 287 286 284 283 283 282 281 280 280 279 279 278 278 278 278 278 277

GFSNGP_925_thetae_072.txt.gz
Theta_e
312 312 313 315 314 313 307 312 310 312 311 309 310 309 308 312 312 313 311 309 308 306 304 304 302 301 301 300 300 300 300 298 297 297 296 295 295 294 294 294 294 294 294 294
311 312 312 313 313 313 312 311 311 311 312 309 309 309 312 312 314 314 311 308 305 304 303 302 302 301 300 299 298 298 298 297 297 296 295 294 294 294 294 293 293 293 293 293
313 312 312 313 313 313 313 311 311 312 311 312 312 312 312 313 313 312 309 307 305 302 302 302 301 301 299 298 298 297 297 296 295 294 293 293 292 291 290 291 291 291 291 292
312 312 316 312 311 312 312 312 311 311 311 311 312 312 311 310 311 308 305 305 303 302 300 300 300 300 299 298 297 296 295 295 294 292 291 291 291 289 290 290 289 289 289 289
313 313 313 314 312 312 312 314 310 310 311 310 312 312 311 309 306 304 302 302 302 301 300 300 300 299 298 297 296 294 294 294 292 291 290 290 290 289 289 289 289 288 289 288
314 314 316 318 313 312 312 321 311 310 311 314 314 317 314 303 300 300 301 300 299 298 298 298 297 297 296 296 295 294 293 292 291 291 290 290 290 289 290 289 288 289 289 289
312 313 312 314 312 311 321 320 313 313 313 313 314 312 306 300 299 299 300 298 297 297 297 296 296 296 295 293 292 292 291 291 290 290 291 290 289 290 290 288 288 288 289 288
312 313 312 311 311 314 316 314 313 313 313 313 308 305 302 300 300 300 298 297 296 296 296 295 295 294 292 291 291 291 291 291 290 290 290 291 290 289 287 287 287 286 286 286
309 310 310 311 311 310 310 312 312 311 310 310 309 306 302 301 301 300 298 297 296 295 295 294 293 293 292 291 291 291 291 291 291 291 290 288 287 287 286 286 285 284 284 284
311 311 309 309 311 310 310 310 310 309 309 309 310 305 303 301 301 300 299 297 296 295 294 292 292 292 292 292 292 292 292 292 290 288 287 287 286 286 286 285 284 284 284 284
310 310 311 311 310 310 309 310 309 308 308 308 309 307 304 302 301 299 298 297 296 295 294 292 292 292 292 292 293 293 293 289 287 287 286 285 285 285 285 284 284 284 284 283
311 309 309 311 309 309 309 309 307 307 308 307 308 308 303 301 301 299 298 297 296 295 294 292 292 293 293 293 293 292 288 287 286 286 285 285 285 285 285 283 283 283 283 283
308 309 309 309 308 307 307 306 306 305 305 305 307 307 304 301 300 300 298 296 295 295 294 293 294 294 294 294 294 289 287 287 286 286 286 287 286 286 284 283 282 281 281 281
307 308 309 309 307 305 305 304 304 303 303 304 305 307 305 302 300 299 298 297 296 296 294 293 294 294 294 294 292 288 287 286 286 286 287 287 286 286 285 284 283 282 281 280
306 305 304 304 304 304 304 303 303 302 302 303 305 305 305 301 299 299 299 298 297 296 295 294 295 295 294 293 291 288 287 286 286 286 286 285 284 283 282 282 281 281 281 280
304 303 302 303 303 303 303 302 303 302 302 301 301 303 304 304 302 300 299 298 298 297 296 296 296 295 294 292 290 287 287 286 286 285 284 283 283 282 282 281 281 281 280 280
302 303 303 303 302 301 300 300 300 300 300 301 301 301 302 303 302 300 297 297 297 297 297 296 295 296 294 292 289 287 286 286 285 284 284 283 282 282 282 281 281 281 280 280
297 298 298 299 299 299 299 299 300 300 300 301 302 301 300 300 300 299 298 296 295 296 297 296 296 295 294 292 289 287 286 286 285 284 284 283 282 282 281 281 281 280 280 280
297 297 296 296 296 297 297 297 297 295 294 294 296 299 300 299 300 299 298 295 293 293 294 296 296 295 294 292 289 287 287 286 285 284 284 283 282 282 281 281 280 280 280 280
295 294 294 294 294 294 294 295 294 293 293 294 295 299 300 298 299 298 296 294 294 294 295 295 295 294 294 292 289 287 286 286 285 284 283 282 282 282 281 281 280 280 280 280
294 293 293 293 293 292 292 292 291 292 292 291 292 294 296 297 297 297 294 292 294 294 294 294 294 293 293 291 288 288 287 285 285 284 283 283 282 282 281 281 280 280 279 279
292 292 292 292 291 291 290 290 290 289 290 290 290 290 292 293 293 293 293 293 293 294 293 293 293 293 291 289 290 288 286 286 285 284 283 283 282 282 282 281 280 280 279 279
291 291 291 291 290 290 290 289 289 289 288 288 289 289 290 290 290 290 290 291 291 291 292 292 292 291 290 289 290 289 288 285 285 284 284 283 283 282 282 281 280 279 279 279
288 289 288 287 288 290 289 288 288 289 288 288 288 288 288 288 289 289 289 289 290 290 290 290 290 290 289 288 289 289 288 286 284 285 284 283 282 281 281 281 280 279 279 278
286 286 286 285 285 285 286 287 288 288 288 288 287 288 288 288 287 288 288 288 288 288 288 289 288 288 288 288 288 288 288 285 285 287 283 282 282 281 281 280 280 279 278 278
284 284 284 284 284 283 284 285 286 287 287 287 287 287 286 286 287 287 287 286 287 288 288 288 288 288 287 287 287 288 288 287 287 285 282 283 282 281 281 280 280 279 278 278
283 284 283 283 283 282 282 284 284 284 283 284 286 287 286 286 286 286 287 286 286 286 287 287 287 287 287 287 286 287 288 288 288 286 283 282 282 281 281 280 280 278 278 278

GFSNGP_925_thetae_075.txt.gz
Theta_e
311 312 313 312 313 310 304 310 309 312 310 310 309 307 306 306 308 311 310 309 307 304 301 302 301 300 300 300 300 300 299 298 296 296 295 295 295 295 295 295 294 294 294 294
307 311 311 312 312 312 310 311 310 310 311 307 308 307 307 308 310 312 309 308 306 304 301 301 300 300 299 298 298 298 297 296 295 295 294 294 294 294 293 292 292 293 293 293
308 311 311 311 311 311 311 310 310 311 309 311 309 309 310 310 312 312 309 305 304 302 301 300 300 300 299 298 297 297 296 295 294 294 293 292 292 291 290 291 292 292 291 291
309 310 313 309 310 311 311 311 309 310 310 310 310 309 309 310 310 309 306 304 302 301 301 300 300 299 298 297 296 296 295 294 293 292 291 290 290 289 289 290 290 289 290 291
310 310 310 313 311 311 311 311 309 309 309 310 311 311 311 307 306 305 302 302 302 301 300 300 300 298 297 296 295 295 294 293 292 291 290 290 290 290 290 289 288 288 289 289
311 310 315 317 311 310 312 319 310 308 309 310 312 314 313 301 300 300 300 300 300 300 299 299 298 298 297 295 294 293 293 292 291 291 291 290 290 289 289 288 288 288 287 286
309 308 310 314 312 310 320 316 312 311 311 312 313 311 306 299 298 299 299 298 298 298 298 297 297 297 295 294 293 293 292 292 291 291 290 290 290 289 288 289 289 288 288 287
311 312 310 309 310 313 314 312 313 312 312 311 307 302 300 299 299 299 297 297 297 296 296 296 296 296 294 293 292 292 292 290 290 291 290 289 290 288 288 287 287 287 286 286
308 308 307 309 310 309 310 311 311 310 310 310 307 305 302 300 300 299 297 296 296 296 295 295 295 294 292 292 292 291 291 290 291 291 291 291 289 287 286 286 285 284 284 284
309 309 308 308 310 309 309 309 309 308 308 308 309 305 302 301 300 299 297 295 296 295 294 293 293 292 292 292 291 291 291 292 291 291 289 287 287 286 286 285 284 284 284 284
308 308 309 308 310 309 308 308 308 308 308 307 307 305 302 301 300 299 297 296 296 294 293 293 292 292 292 292 292 292 292 292 290 288 286 286 286 286 285 285 284 284 284 284
310 307 309 309 307 307 307 307 306 306 306 307 306 307 302 300 300 299 297 296 295 294 294 292 292 292 292 292 292 293 293 290 286 286 286 285 285 284 284 284 284 284 283 283
307 308 307 307 306 306 306 305 305 304 303 304 305 306 303 300 300 299 297 296 295 294 294 292 292 292 293 293 293 293 292 288 286 286 285 285 285 285 285 284 282 282 281 281
306 306 308 307 306 303 304 304 303 302 302 302 303 305 304 301 300 299 297 296 296 295 294 293 293 293 293 294 293 293 291 288 286 286 285 286 286 286 285 284 283 282 281 281
305 304 304 302 303 303 302 302 302 301 300 300 303 304 304 300 299 299 299 297 296 295 294 293 294 294 294 294 294 291 289 287 286 286 286 286 286 286 285 284 282 281 281 281
301 300 301 302 302 302 302 300 300 299 299 299 299 300 303 303 301 300 299 298 296 295 294 294 294 294 295 295 294 292 289 287 287 286 286 286 285 284 283 282 282 281 281 281
303 303 302 301 300 300 300 299 299 298 298 298 299 300 300 301 302 300 299 298 297 297 296 295 294 295 295 294 294 292 289 287 286 286 286 285 285 283 283 282 282 281 281 281
297 297 298 298 298 298 298 298 298 298 299 298 298 298 298 299 299 300 299 299 297 297 297 296 296 296 295 295 294 292 290 287 286 286 285 284 284 283 282 282 282 281 281 281
296 296 295 295 295 295 295 296 296 295 294 294 293 293 294 297 299 300 300 298 296 295 296 297 297 296 296 295 294 292 289 287 286 286 285 284 283 283 282 282 282 281 281 280
293 294 294 294 293 294 294 293 293 293 293 292 292 293 294 298 299 298 298 296 297 296 296 296 296 296 296 296 294 292 290 287 286 285 285 284 284 283 282 282 281 281 281 280
293 293 293 293 292 292 291 291 290 291 291 291 291 291 291 293 296 296 295 292 296 296 295 295 295 295 295 295 293 291 287 286 285 285 285 284 283 283 282 282 282 281 281 280
292 292 291 292 291 291 290 290 289 289 289 289 289 290 290 290 292 293 293 293 294 294 294 294 294 294 293 293 292 290 286 286 285 285 285 284 284 283 283 282 282 282 281 280
290 290 290 289 288 289 290 289 288 289 288 288 288 288 288 289 289 289 290 291 291 292 292 292 293 293 292 290 291 290 288 287 286 285 284 285 284 284 284 283 283 282 281 280
288 288 287 285 286 286 286 286 287 288 288 288 287 287 287 287 288 289 289 289 289 290 290 290 291 291 290 289 289 288 287 287 287 287 286 285 285 286 283 283 282 282 281 280
285 285 285 284 284 284 284 284 285 286 286 286 287 287 286 286 286 287 287 287 288 288 288 289 289 289 289 289 288 287 287 287 287 287 287 284 287 285 283 283 282 281 281 280
284 283 283 283 283 282 283 284 284 284 283 283 284 286 286 285 285 286 287 287 287 287 287 288 288 288 288 288 288 287 287 287 286 286 287 285 287 286 282 282 282 281 281 280
283 284 283 282 282 282 281 283 283 283 282 282 283 284 284 285 285 285 285 286 286 286 286 287 287 287 288 288 288 287 286 286 286 286 286 287 287 283 283 282 281 281 280 279

GFSNGP_925_thetae_078.txt.gz
Theta_e
310 312 311 310 311 309 306 307 309 310 310 310 309 308 308 308 310 310 309 309 306 304 301 301 300 300 300 300 300 299 299 298 296 296 296 295 295 295 295 295 295 295 295 295
306 310 311 312 311 310 308 309 310 309 310 309 308 306 305 305 307 311 309 308 306 303 301 300 300 299 299 299 299 298 298 296 295 295 295 295 294 293 293 293 293 293 292 292
307 310 310 309 309 310 310 309 310 310 309 308 308 307 307 306 307 310 309 307 305 303 301 300 300 300 298 298 297 297 296 295 295 294 294 293 293 292 292 292 292 292 292 292
307 309 313 307 309 309 310 310 308 309 309 309 308 308 308 309 308 309 307 305 303 301 301 300 300 299 298 297 296 296 295 294 294 293 292 291 291 290 291 291 291 291 292 292
309 309 307 310 310 310 310 310 308 308 308 310 309 309 310 308 308 308 306 303 302 302 301 300 299 298 297 296 296 295 294 294 293 292 291 290 289 289 289 289 290 291 291 290
306 309 313 312 310 309 311 315 310 307 307 310 310 311 309 303 302 301 301 301 301 300 300 299 298 298 297 295 295 294 293 293 292 291 290 290 290 289 289 289 289 288 287 287
308 306 308 307 311 311 318 312 311 306 306 309 311 308 306 299 299 299 299 299 300 299 299 299 298 297 296 295 294 294 293 292 291 291 290 290 289 289 288 288 287 286 286 286
308 309 307 309 309 315 312 312 312 311 311 310 307 302 300 299 298 298 297 298 298 297 297 297 297 297 295 294 294 293 292 291 291 290 290 290 288 288 288 288 288 287 287 286
307 306 305 307 310 309 311 311 311 311 309 309 306 304 301 300 300 298 297 297 296 296 296 296 296 296 295 294 293 292 292 291 290 290 290 290 288 288 287 287 286 285 285 285
308 308 307 308 309 309 309 310 308 308 308 308 308 305 303 300 300 298 297 296 296 295 295 294 295 295 294 293 292 291 291 290 291 290 290 290 288 287 286 285 284 284 283 283
307 306 307 307 308 308 307 306 307 307 307 307 307 306 302 301 299 298 297 296 296 295 294 294 293 293 293 292 292 291 291 291 290 291 290 287 286 286 285 285 284 284 284 284
309 306 307 308 307 306 307 306 305 305 306 305 306 306 303 301 299 299 297 296 295 294 294 293 293 293 292 292 292 292 292 292 291 290 288 286 285 285 284 285 285 284 284 283
307 306 306 306 306 305 305 304 304 304 303 303 302 304 303 300 300 299 298 296 295 294 294 293 293 292 292 292 292 292 292 292 290 286 286 285 285 285 285 285 284 283 282 282
305 306 308 307 306 303 303 303 302 302 301 301 302 303 304 301 300 299 298 298 296 295 294 294 293 292 292 292 293 293 293 293 288 286 286 285 285 285 285 284 283 282 282 282
305 302 303 302 301 302 301 301 301 300 299 299 300 301 302 301 300 300 299 298 297 295 294 293 293 293 292 293 293 293 293 292 289 287 286 285 285 285 285 285 284 283 282 282
300 300 300 301 301 301 301 299 300 298 297 297 297 299 299 300 301 301 300 298 296 295 295 294 294 294 293 293 294 294 293 292 289 287 286 285 286 286 286 285 284 282 281 281
301 302 300 299 299 299 299 298 299 298 297 297 297 298 298 299 299 300 300 299 298 297 297 295 295 294 294 294 294 294 293 290 289 287 286 286 286 285 285 284 282 282 282 281
297 298 298 298 298 298 298 297 297 298 297 296 295 295 295 294 295 298 300 300 298 297 297 297 296 295 295 294 294 294 294 292 288 287 286 286 286 286 285 283 282 282 282 281
296 295 295 295 294 295 295 295 295 295 294 294 293 293 292 293 294 295 297 298 297 296 297 297 297 297 296 295 295 294 294 293 289 287 286 286 285 285 284 283 282 282 282 281
293 293 293 293 293 293 293 292 292 292 292 292 292 292 292 292 293 295 297 296 298 298 298 298 298 296 296 296 295 294 293 291 289 287 286 285 285 284 284 283 283 282 282 282
293 293 293 293 293 292 290 290 289 290 290 290 290 291 291 290 291 293 294 294 297 297 296 296 296 296 296 295 295 293 292 290 288 286 285 284 284 284 284 284 283 282 282 282
292 291 291 291 290 290 290 289 289 289 288 288 288 288 288 289 290 290 291 292 293 293 294 294 294 294 294 294 293 292 291 289 288 287 284 285 285 284 283 284 284 283 283 282
290 290 289 288 286 288 287 287 287 288 288 288 287 287 287 287 288 288 289 290 290 290 291 292 292 292 292 292 291 291 290 288 287 286 286 286 285 284 284 284 284 284 283 283
288 287 287 285 285 285 284 285 285 286 286 286 287 287 286 286 287 288 287 288 288 288 289 290 290 291 291 291 290 290 290 288 287 287 287 287 286 286 287 285 285 287 283 283
285 285 284 284 283 283 283 283 284 284 284 283 284 285 285 285 285 285 286 287 287 287 287 288 289 289 289 289 290 289 289 288 288 287 286 286 286 286 287 285 288 285 285 282
284 283 283 283 283 282 282 282 283 283 283 282 282 284 283 284 285 285 285 285 286 286 287 287 287 288 288 289 289 289 288 288 287 286 286 286 286 286 287 287 288 287 282 282
283 284 283 282 282 282 281 282 282 282 282 281 282 282 282 282 283 284 284 284 284 285 286 286 286 287 287 287 288 288 287 287 287 286 285 285 285 285 287 287 288 284 282 281

GFSNGP_925_thetae_081.txt.gz
Theta_e
309 311 310 310 311 314 314 312 310 311 308 308 307 307 308 310 311 309 309 308 306 303 301 301 300 300 300 301 300 300 299 298 297 297 296 296 296 296 296 296 296 296 296 296
306 310 311 312 310 312 313 312 310 309 309 307 307 305 307 307 310 310 310 309 306 303 301 300 300 299 299 300 299 299 298 297 296 296 295 295 294 293 293 293 293 293 293 293
304 309 310 308 309 309 310 308 310 311 310 307 308 307 307 305 309 310 309 307 307 304 302 300 300 300 299 299 298 298 297 296 295 295 295 294 293 293 293 293 293 292 292 292
307 308 309 304 308 308 310 309 307 308 308 307 306 306 305 305 306 307 308 306 304 303 302 302 301 299 299 298 297 297 296 295 295 294 293 292 292 292 292 292 292 292 292 292
309 308 306 309 309 309 309 309 308 308 307 309 308 308 310 308 307 305 306 305 304 304 303 301 300 299 298 296 296 296 295 294 294 293 292 291 291 291 291 292 292 292 292 290
304 308 311 309 310 307 308 311 310 307 307 309 309 310 308 306 304 304 303 303 302 302 301 300 299 298 297 296 295 295 294 294 294 293 291 290 290 290 290 290 290 290 287 287
308 305 307 304 310 308 315 309 310 306 306 308 310 306 305 300 300 300 300 300 301 300 300 300 299 298 296 296 295 295 294 293 292 291 291 290 290 290 289 289 288 287 286 287
308 311 306 307 309 312 309 312 311 308 307 308 308 304 301 300 299 299 298 299 299 299 298 298 298 297 296 295 295 294 294 292 291 291 290 290 289 288 288 287 286 286 286 286
305 305 303 305 308 308 311 311 311 311 310 308 305 304 301 300 299 298 298 298 298 298 297 297 297 297 296 296 295 294 292 292 291 290 290 290 289 288 288 288 287 286 285 285
308 307 305 307 308 308 308 309 308 307 308 309 309 305 304 301 299 298 298 297 297 296 295 295 296 296 296 295 294 293 292 291 290 290 290 289 288 288 288 287 285 285 284 284
306 306 305 306 307 308 307 306 306 307 307 307 308 307 305 302 300 298 297 297 296 296 295 295 295 295 295 294 293 292 291 291 290 290 289 289 288 287 286 286 285 284 284 284
308 306 306 306 306 306 307 307 305 306 306 304 305 306 304 302 301 299 297 297 296 295 295 295 294 294 293 292 292 292 291 291 290 290 289 289 287 286 285 284 284 284 284 284
306 305 306 306 305 305 305 304 304 303 303 303 302 302 304 302 301 300 298 297 296 296 295 294 293 293 293 292 292 292 292 291 291 290 290 287 286 285 284 285 285 285 284 283
303 306 308 306 307 303 302 302 302 301 300 300 301 302 302 301 301 300 298 299 298 296 296 295 294 293 293 292 292 292 292 292 292 291 289 287 285 285 285 285 285 284 283 283
303 303 303 302 300 300 300 300 299 298 297 297 298 298 299 299 299 300 300 299 298 296 295 294 293 293 293 293 292 292 292 292 293 290 287 286 286 285 285 285 284 283 283 282
300 300 300 301 300 300 299 298 299 298 296 296 296 297 298 298 298 299 300 299 296 295 295 295 294 294 294 293 293 293 293 293 293 291 287 285 285 285 284 284 284 284 284 283
301 301 300 300 299 299 298 297 297 298 297 297 296 297 297 297 296 297 299 299 298 298 297 296 296 295 294 294 293 293 293 293 292 291 288 286 285 285 285 285 285 285 285 284
297 297 297 298 298 298 297 297 297 297 296 295 295 294 294 293 291 293 294 296 298 297 297 297 297 296 295 295 294 293 293 293 291 290 289 287 286 285 285 285 285 285 284 283
295 295 294 294 294 295 295 295 294 294 293 293 293 293 292 292 292 293 294 295 295 296 298 298 298 297 296 295 295 294 293 292 291 290 289 288 286 285 285 285 285 285 284 283
293 293 293 293 293 293 292 291 290 291 291 290 291 292 292 291 291 291 292 294 295 296 297 297 298 297 297 296 295 294 293 292 291 290 289 288 286 285 285 285 285 285 284 283
293 293 292 291 291 291 290 290 288 289 289 289 289 290 289 289 290 290 290 291 294 294 295 295 295 296 296 296 295 294 293 291 290 289 288 287 285 285 285 285 285 284 284 283
291 291 290 289 288 289 289 289 288 288 288 288 288 287 287 288 288 288 289 290 290 290 291 292 293 293 294 294 294 294 293 291 290 289 288 287 286 285 284 285 285 284 284 284
290 290 289 287 285 287 286 285 285 287 287 286 287 286 286 286 286 287 288 288 288 288 289 290 291 291 292 292 292 292 291 291 289 288 288 287 286 287 286 285 286 287 284 284
289 287 286 285 284 284 283 284 284 285 284 283 284 285 285 284 285 287 285 286 287 287 287 288 288 289 290 290 291 291 290 290 289 289 288 288 288 288 287 287 287 288 288 285
286 285 284 283 283 283 283 282 283 284 284 283 282 283 283 284 283 284 284 284 285 286 286 287 287 288 288 289 289 290 290 290 289 289 288 287 287 286 286 286 286 286 289 288
284 284 283 283 283 282 282 281 282 283 283 281 281 282 282 282 282 283 283 284 284 284 285 286 286 286 287 287 288 288 289 289 288 288 287 287 286 286 286 286 286 286 287 289
286 285 284 282 282 281 281 281 282 281 281 280 280 282 281 280 281 281 281 282 283 283 283 284 284 285 285 286 286 287 287 287 287 287 287 286 286 285 285 285 285 285 287 288

GFSNGP_925_thetae_084.txt.gz
Theta_e
309 310 311 312 312 312 310 310 310 310 309 309 307 305 306 309 309 308 308 307 305 303 300 300 300 300 301 301 301 300 300 299 299 298 297 297 297 297 297 297 297 297 297 297
307 310 310 311 309 311 312 312 310 309 308 305 305 305 306 308 309 310 309 308 305 303 300 300 300 300 300 300 300 299 299 298 297 296 296 296 295 294 295 294 294 294 294 294
305 309 309 308 308 310 312 310 312 312 312 309 307 306 306 306 309 311 309 308 307 304 302 301 301 300 300 300 299 298 298 297 296 296 296 295 294 294 294 294 293 292 292 293
308 307 309 305 307 307 309 309 308 308 307 306 306 305 304 304 307 308 308 307 306 304 303 303 302 300 300 299 299 298 297 296 295 295 295 294 293 293 293 292 292 292 292 292
308 308 306 308 308 308 309 309 307 307 308 307 308 306 306 303 303 305 305 305 306 306 305 303 302 300 299 298 297 297 296 295 295 295 294 293 292 292 292 292 292 292 292 291
305 307 309 307 310 306 307 310 308 306 307 306 307 308 307 306 305 305 305 305 304 304 303 302 300 299 298 297 296 296 295 295 294 294 293 292 291 291 291 292 291 290 288 287
310 307 306 303 305 306 313 308 309 306 305 306 308 305 303 301 301 301 301 301 302 301 301 301 299 298 297 296 296 296 295 295 294 293 292 291 291 290 290 290 290 287 287 287
310 312 307 304 308 311 307 310 311 308 305 306 307 305 302 300 300 299 298 299 299 299 299 299 299 298 297 296 296 295 295 294 293 292 291 290 290 290 290 289 287 286 286 286
305 306 302 303 307 307 309 311 310 310 308 306 306 305 302 301 299 298 299 298 298 299 298 298 298 298 296 296 295 295 294 293 292 291 291 290 290 289 288 287 286 286 286 285
307 306 304 303 305 307 308 310 307 307 308 308 307 305 304 301 299 299 298 297 298 297 297 297 297 297 297 296 296 294 293 292 291 290 290 290 290 288 287 287 286 286 285 285
306 305 304 304 305 307 307 306 306 305 306 306 307 307 306 304 301 299 298 297 297 297 296 296 296 296 296 296 295 293 293 292 291 290 290 290 289 288 288 288 287 286 285 284
307 305 305 304 305 306 306 307 305 305 305 303 303 304 305 303 302 300 298 297 296 296 296 296 295 295 294 294 294 293 292 291 290 290 290 290 288 287 287 286 285 285 284 283
306 304 304 305 305 305 304 303 303 301 301 302 301 301 302 301 301 300 299 298 297 297 297 296 295 294 294 292 292 293 292 291 291 290 290 289 288 287 285 285 285 285 285 284
302 305 308 306 306 302 301 300 301 299 299 298 299 299 300 300 300 299 299 299 298 297 296 296 295 294 294 293 292 292 292 292 291 290 291 289 289 286 285 285 285 285 285 285
302 303 302 301 300 299 299 300 299 297 296 297 297 297 298 297 296 297 299 299 298 297 296 296 295 295 294 293 293 292 292 292 291 291 291 290 289 286 285 284 285 285 284 283
300 300 300 300 300 299 298 297 298 297 295 295 295 296 296 296 297 297 298 298 296 296 297 296 295 295 295 294 293 292 292 292 292 292 291 290 288 285 284 284 284 284 284 284
302 302 301 300 299 298 296 296 296 296 296 296 295 295 295 294 294 295 295 295 296 298 297 297 298 296 295 294 293 293 292 292 292 292 291 289 287 285 285 285 284 284 285 285
296 296 297 298 297 297 296 296 296 296 295 294 294 293 292 292 291 292 293 293 294 295 297 297 297 297 296 295 294 293 293 292 292 291 292 290 289 286 285 285 284 284 285 286
295 295 294 294 294 295 295 294 293 292 292 291 291 292 292 292 291 291 291 291 293 293 296 297 298 297 296 296 295 294 293 292 291 290 291 291 289 287 286 285 285 285 285 285
294 293 293 293 293 292 292 290 289 289 289 289 290 290 290 290 290 290 290 290 292 292 293 294 295 296 296 296 295 294 293 292 291 290 289 289 288 287 287 286 285 284 285 285
292 291 290 290 290 290 290 290 288 288 288 288 287 288 288 288 288 288 289 289 290 290 291 292 293 294 294 295 294 294 293 292 291 290 289 289 288 287 286 285 285 285 285 285
291 291 290 288 287 288 288 287 286 287 287 287 287 286 285 286 286 286 288 288 287 288 288 289 290 291 292 293 293 293 293 292 291 290 290 289 289 288 288 286 285 285 285 285
291 289 288 286 284 286 285 284 284 285 285 283 284 285 284 284 284 285 286 285 285 286 287 287 288 288 289 291 291 292 292 292 291 291 290 290 289 288 288 288 288 288 286 285
289 287 286 285 284 284 283 283 283 284 284 283 282 283 283 282 283 285 284 284 284 285 286 286 286 287 288 289 289 290 291 291 291 290 290 290 289 288 288 288 287 287 287 286
287 285 284 283 283 282 282 282 282 283 283 283 282 282 282 281 281 282 282 282 283 284 284 285 285 286 286 287 287 288 289 289 290 290 289 289 288 288 287 287 287 287 287 286
285 284 284 283 283 282 282 281 281 282 282 282 281 281 282 281 280 281 281 281 281 282 283 283 283 284 284 285 285 286 287 288 288 288 288 288 288 287 287 287 286 286 286 286
285 286 286 284 283 282 281 281 281 281 280 281 280 281 281 280 280 280 279 279 280 280 281 281 281 281 282 282 283 284 285 286 286 286 286 286 287 287 286 286 286 285 285 285

GFSNGP_925_thetae_087.txt.gz
Theta_e
309 309 311 312 312 311 306 308 311 309 309 310 307 306 304 306 308 308 308 307 306 304 302 301 301 302 302 302 302 301 301 301 299 299 298 298 298 298 298 298 298 299 299 299
308 309 310 312 310 310 311 311 310 309 310 305 305 304 305 307 309 309 309 309 306 304 302 300 300 301 301 301 301 300 300 300 299 298 297 297 296 296 296 295 295 295 295 296
307 308 308 307 307 309 311 309 311 312 311 307 307 306 306 306 309 310 310 309 307 306 304 301 301 301 301 301 300 299 299 298 297 297 296 296 296 295 295 294 293 293 293 293
309 307 308 304 306 307 309 309 309 310 308 308 308 306 304 304 307 309 309 308 308 306 304 304 303 301 301 300 299 298 298 297 296 296 296 295 295 294 294 293 293 293 293 292
310 308 306 308 308 308 309 309 307 309 309 306 307 306 306 303 303 307 307 307 307 308 307 306 304 302 300 299 299 298 297 296 296 295 295 294 293 293 293 292 292 292 292 292
306 308 309 306 309 306 306 311 307 306 306 305 306 309 307 304 304 304 304 305 306 307 306 305 303 301 299 298 298 297 297 296 295 295 295 294 293 292 292 292 292 291 291 290
309 308 306 303 303 305 312 309 308 307 305 304 307 305 303 302 301 301 301 302 303 303 303 303 302 300 298 298 297 298 297 296 295 295 294 293 292 292 291 291 290 289 287 287
309 310 306 302 308 311 307 309 311 309 304 305 305 304 302 300 300 300 300 300 300 300 300 300 300 299 298 297 298 297 296 295 294 294 293 292 291 291 291 290 289 287 287 287
305 305 302 301 307 306 306 310 310 310 307 305 305 305 302 301 300 299 299 299 299 299 298 298 298 298 298 298 297 296 295 294 294 293 292 291 290 290 289 289 288 286 286 286
305 305 303 303 302 303 307 309 307 307 307 306 306 304 303 301 300 299 298 298 298 298 297 297 298 298 298 297 296 295 294 294 293 292 291 290 290 290 289 289 287 285 285 285
305 304 304 304 303 306 307 306 305 305 305 305 306 306 305 304 301 300 299 298 298 298 298 298 297 297 297 297 296 295 294 293 292 291 290 290 290 290 289 289 286 286 286 285
307 304 304 304 303 305 306 306 305 305 303 301 302 303 303 302 301 301 299 298 297 297 297 297 297 296 296 296 295 295 293 292 291 291 290 290 289 289 289 288 287 287 285 284
304 303 302 304 304 304 304 302 301 300 300 301 300 300 301 301 300 300 299 298 297 297 297 297 296 296 295 295 294 293 293 292 291 290 290 289 289 289 286 287 286 285 285 285
301 302 306 305 305 301 301 300 299 298 298 298 298 298 299 298 298 298 298 299 299 298 297 297 296 296 296 295 293 293 292 292 292 291 290 290 290 288 287 286 285 286 286 287
299 302 302 300 299 299 299 299 298 297 296 296 297 296 296 296 296 296 297 298 299 298 297 296 296 296 296 295 294 293 292 292 291 291 291 290 291 289 288 286 285 285 285 286
297 299 300 300 299 298 298 297 297 296 295 295 295 295 295 295 295 295 296 295 296 296 297 297 296 298 297 295 294 293 293 292 292 291 290 289 290 289 287 286 284 284 284 284
301 302 300 299 298 297 296 295 295 295 295 295 294 294 294 293 293 293 293 293 293 294 295 297 297 297 297 295 294 293 293 292 291 291 290 290 290 289 288 286 285 284 285 285
295 295 295 297 297 296 296 295 295 294 293 293 292 292 292 292 291 291 291 292 292 293 294 295 295 296 296 295 294 293 293 292 292 291 290 289 290 290 288 287 285 284 285 286
294 294 294 294 294 295 294 292 291 291 290 290 290 290 291 291 290 290 290 290 291 291 291 293 295 295 295 295 294 294 293 292 292 291 291 291 289 288 288 287 286 285 285 285
294 293 293 292 292 292 291 290 288 288 288 288 288 288 287 288 288 288 288 289 289 288 289 291 292 293 294 294 294 293 293 293 292 291 290 290 289 289 287 287 287 286 285 285
292 290 289 288 289 289 289 288 286 287 287 287 286 286 285 285 286 286 287 288 287 287 287 288 289 290 291 292 293 293 293 292 292 291 290 290 289 289 288 288 287 286 285 285
291 291 290 288 286 287 287 285 285 286 286 285 284 283 284 284 283 283 286 286 285 285 286 287 287 287 288 289 290 291 292 292 292 291 290 290 289 289 289 288 288 288 288 289
291 290 289 287 284 286 285 284 284 284 284 283 282 283 283 283 282 283 285 284 284 284 285 284 286 287 288 288 288 289 290 291 291 291 291 290 290 290 289 289 289 289 288 288
290 288 286 285 284 284 283 283 282 283 283 283 282 282 282 281 282 284 281 282 282 283 284 284 285 285 286 286 286 286 287 288 289 290 290 290 290 290 289 289 289 288 288 288
290 287 285 284 283 283 283 283 282 282 282 283 282 281 282 281 280 280 281 280 280 281 281 282 282 283 283 284 284 285 285 286 287 288 288 289 289 289 288 288 288 288 287 287
287 286 285 285 284 283 282 282 281 281 281 281 281 281 281 281 280 280 280 280 280 280 280 280 281 280 281 281 282 283 283 284 285 286 287 287 288 288 288 287 287 287 287 286
286 285 286 287 287 284 282 281 281 281 280 280 280 281 281 280 280 279 279 279 279 279 279 279 279 279 279 280 281 281 281 282 283 283 284 285 285 286 286 286 286 286 286 285

GFSNGP_925_thetae_093.txt.gz
Theta_e
313 314 314 316 318 316 317 317 321 316 316 314 314 314 313 313 313 315 315 315 314 314 314 313 312 311 310 309 307 306 305 305 304 302 301 301 300 300 300 300 300 299 300 299
314 314 314 316 315 316 315 315 315 315 315 314 313 312 313 312 313 314 315 315 315 314 313 312 312 311 310 308 306 305 305 304 302 301 300 300 300 299 299 298 298 298 298 299
317 312 313 316 315 315 315 315 315 317 315 313 313 313 312 313 312 313 314 315 315 314 313 313 312 311 309 307 306 305 304 303 302 301 301 300 299 298 298 298 298 297 297 296
313 311 313 310 309 311 313 312 312 313 313 312 312 312 312 312 311 312 313 314 315 314 313 313 312 310 309 307 305 304 304 302 301 301 300 300 299 298 297 296 296 296 295 295
314 312 310 313 312 312 313 314 312 313 313 312 312 312 311 311 310 310 311 314 314 314 314 313 311 309 308 306 305 304 303 302 301 301 300 299 298 296 295 296 295 294 294 294
313 313 310 313 310 310 311 316 314 313 313 312 311 314 313 309 308 308 308 313 314 314 314 313 311 309 307 306 304 304 303 302 301 300 299 298 297 295 295 294 294 293 293 293
313 313 310 309 310 310 316 319 314 314 311 310 312 311 309 308 307 307 307 307 308 312 313 312 311 308 306 306 305 303 302 301 300 299 298 297 295 295 295 294 293 292 292 292
312 312 311 308 311 314 313 313 314 314 310 310 311 310 309 307 307 307 306 306 306 307 307 306 306 305 305 304 303 301 300 299 298 297 296 295 294 294 293 292 292 291 291 290
310 310 308 307 308 309 310 311 314 314 310 309 310 310 309 308 307 306 305 304 304 305 304 303 303 304 305 303 301 300 299 298 298 296 295 293 292 293 291 291 290 289 289 289
309 310 309 309 309 308 308 312 311 311 311 311 311 310 309 309 307 307 305 304 303 303 304 303 302 301 303 301 300 299 299 298 297 296 294 292 293 292 291 290 289 289 289 289
310 310 310 310 310 308 310 310 310 310 310 311 309 308 309 307 307 304 303 302 302 303 303 303 301 300 300 299 298 298 299 298 296 295 293 292 292 292 291 291 291 290 289 289
312 308 308 309 307 308 310 310 309 309 308 307 308 308 308 307 305 305 304 302 302 301 301 301 300 299 298 298 298 297 298 298 296 294 293 292 291 291 291 291 291 290 290 289
307 305 306 306 307 307 308 307 306 306 306 305 304 304 304 304 302 303 303 302 302 302 301 301 300 299 298 298 297 297 297 297 295 294 293 291 291 290 289 290 290 290 290 288
304 305 308 307 308 305 306 304 302 302 302 302 302 301 301 301 301 300 299 298 299 300 300 300 299 298 297 297 296 296 296 296 295 294 293 291 291 290 290 289 289 289 289 289
302 302 304 304 304 303 303 302 303 302 301 300 299 299 299 299 299 297 297 296 296 298 299 299 299 298 297 296 296 296 295 295 295 294 293 292 291 290 290 290 290 290 289 288
300 300 303 304 305 303 302 302 303 301 300 299 299 297 297 296 296 296 295 294 295 296 296 296 296 297 296 296 295 295 294 294 294 293 293 291 291 290 289 289 290 289 288 287
299 302 302 304 303 302 302 300 300 299 298 297 296 295 295 295 295 295 294 293 293 293 294 294 294 293 294 295 295 295 294 294 293 293 292 291 291 290 289 289 289 289 289 287
296 298 298 299 300 300 299 298 297 296 295 293 294 294 294 293 293 292 291 291 291 292 291 290 290 291 293 294 294 294 294 294 293 293 292 291 291 290 289 289 289 289 289 289
294 296 294 294 296 297 296 295 294 293 291 291 291 292 291 291 290 290 290 291 290 290 289 288 288 289 290 291 292 293 293 293 293 293 292 292 291 290 289 289 289 289 289 289
294 292 292 291 291 292 292 290 289 290 289 289 289 289 289 288 287 287 288 289 288 286 286 287 287 288 288 289 290 290 291 292 292 292 292 291 291 290 290 289 289 289 289 289
293 292 291 290 290 290 289 287 287 288 288 287 287 287 286 286 286 285 287 288 288 285 284 285 286 285 286 287 288 289 289 290 291 291 291 291 291 291 290 290 289 289 289 288
292 291 291 290 289 289 289 287 286 286 286 286 285 285 285 286 285 285 286 286 284 284 284 285 285 284 285 286 286 286 287 288 288 289 290 290 290 290 290 290 289 289 289 289
292 291 290 290 289 287 287 286 285 284 285 285 285 284 284 284 284 284 286 284 282 282 282 283 283 283 284 284 284 284 284 285 286 286 287 288 289 290 290 290 290 289 289 289
292 291 290 289 288 286 286 287 285 284 283 284 283 283 282 283 284 283 283 282 282 281 281 282 282 282 283 282 282 282 282 283 283 284 285 286 286 287 288 288 289 289 289 289
292 292 291 289 288 286 286 285 284 283 283 283 283 283 282 282 282 282 281 281 281 281 281 281 281 281 281 281 281 281 282 283 282 282 283 283 284 285 286 287 287 287 288 288
290 291 291 291 288 286 286 285 284 284 283 283 283 282 282 281 281 281 280 280 280 280 280 280 280 280 280 280 280 280 281 281 281 281 281 281 282 282 283 284 284 285 286 286
287 288 288 287 286 286 286 286 284 283 283 282 282 281 281 281 281 281 280 280 280 279 279 279 279 279 279 279 279 279 279 279 279 279 279 280 280 281 281 281 282 282 283 284

GFSNGP_925_thetae_096.txt.gz
Theta_e
314 314 315 315 316 316 314 316 317 316 315 312 311 311 311 311 312 313 313 313 311 310 309 312 312 311 310 308 307 307 306 305 305 304 304 303 303 302 302 302 302 301 301 301
313 314 314 316 317 316 315 315 314 314 315 312 310 309 310 310 311 313 314 313 312 311 310 310 311 311 309 308 306 306 305 304 303 303 302 302 302 301 301 301 300 300 299 299
318 313 313 315 315 315 315 314 315 316 314 311 312 311 312 310 311 312 313 313 312 311 310 311 311 310 309 307 306 305 305 304 303 302 301 301 300 300 299 299 299 299 298 298
311 311 314 309 308 310 314 313 312 312 311 311 311 310 310 309 309 309 312 312 312 311 312 312 311 310 309 307 305 305 304 303 302 301 301 300 300 299 299 298 297 296 297 296
313 311 310 311 311 311 312 313 312 312 312 311 310 310 310 309 308 307 306 309 312 313 313 312 311 310 308 306 305 304 304 303 302 301 301 300 299 298 296 296 297 297 296 295
311 313 312 312 310 309 310 315 313 313 312 310 309 311 309 307 306 306 307 308 311 314 314 313 311 309 308 306 305 304 304 303 302 301 301 300 299 297 295 295 296 295 294 294
311 311 309 309 309 309 314 316 314 313 309 309 310 308 307 306 305 306 306 306 309 312 313 313 311 309 307 306 305 304 304 302 301 301 300 299 298 296 296 294 294 294 293 293
311 311 310 309 310 314 312 313 313 312 308 309 309 308 307 306 305 305 304 305 307 307 307 308 308 308 306 306 305 304 303 301 300 300 299 298 296 295 294 294 293 292 292 292
309 310 307 307 307 307 307 308 312 312 308 309 309 308 307 306 304 304 304 304 304 305 304 304 304 305 305 304 304 303 301 300 299 298 297 296 294 293 293 293 292 291 291 291
308 309 308 307 307 307 307 310 310 310 310 309 308 308 307 306 305 303 303 302 303 303 303 302 302 303 304 303 302 301 300 299 298 297 296 294 293 292 292 292 291 291 290 290
308 308 308 307 306 307 309 309 309 308 307 309 308 307 307 306 305 303 303 302 302 302 302 302 301 301 301 301 300 299 299 299 298 297 295 294 292 292 292 292 293 291 291 291
312 305 304 305 304 307 307 309 309 307 306 305 306 306 305 303 303 303 302 302 302 301 301 301 301 300 299 299 299 299 299 298 297 296 295 294 293 292 291 292 292 291 291 291
304 303 303 304 305 305 306 305 304 304 304 303 302 303 303 301 301 301 300 299 299 300 300 300 300 300 299 298 298 297 297 298 297 296 294 293 292 291 291 292 291 290 290 290
301 302 306 304 304 303 304 302 302 302 302 302 301 301 300 300 299 298 297 297 297 297 299 299 299 299 298 297 297 297 297 297 296 296 295 294 293 292 291 291 290 290 291 291
299 299 300 301 302 303 302 302 302 301 300 299 299 298 298 297 297 297 296 295 295 297 296 296 296 297 297 297 296 296 296 296 296 296 295 294 293 292 291 290 290 290 290 290
298 299 301 302 302 302 302 302 302 300 299 298 297 296 296 296 296 295 294 294 293 294 294 295 295 294 294 295 295 295 295 295 295 295 294 293 293 291 290 290 290 289 290 290
298 298 299 299 300 302 301 300 299 298 297 295 294 294 294 294 294 293 292 291 291 292 292 292 291 291 293 294 294 294 294 294 294 294 293 293 292 291 291 290 289 289 290 290
296 296 297 298 299 300 299 298 296 295 293 293 293 293 293 292 291 291 290 291 291 291 290 289 289 289 290 291 292 293 293 293 293 293 293 293 292 292 291 290 290 289 289 290
294 295 294 294 293 295 295 293 292 292 291 290 290 290 290 289 289 288 288 289 289 288 287 286 287 288 288 289 289 290 291 292 292 292 292 292 292 291 291 290 290 289 289 289
293 292 292 292 291 291 291 290 289 289 289 288 288 288 287 287 287 286 286 287 288 287 284 285 285 286 286 286 287 288 289 289 290 291 291 291 291 291 291 290 290 290 290 289
293 291 290 290 290 290 288 287 286 287 287 287 286 286 286 286 286 285 285 287 286 285 284 284 285 285 284 285 285 286 286 287 287 288 289 290 291 291 291 290 290 290 290 289
291 290 290 290 290 289 288 287 286 285 286 286 285 285 284 285 285 284 285 286 285 283 283 282 283 284 284 285 284 283 283 284 285 286 286 287 288 289 290 290 290 290 290 289
291 290 289 289 289 287 287 287 288 288 286 285 285 285 284 283 283 283 283 284 283 282 282 282 282 283 283 283 282 282 283 282 283 283 283 284 285 286 287 288 288 289 289 289
291 290 289 289 289 288 287 289 287 286 284 284 283 283 283 283 283 283 283 283 281 282 282 281 282 283 283 281 281 281 281 281 282 282 282 282 282 283 284 285 286 286 287 287
292 292 291 290 288 288 288 289 286 284 284 284 283 283 283 282 282 282 282 281 281 281 281 281 281 281 281 280 280 280 280 280 281 282 282 281 281 281 281 282 282 283 285 285
289 289 290 291 290 290 289 286 285 285 284 283 283 283 282 282 282 282 281 281 281 280 280 280 280 280 280 279 279 279 279 279 279 279 280 280 279 279 280 280 280 281 281 282
287 288 288 288 288 288 287 286 285 286 285 284 283 282 282 282 282 282 281 281 280 280 280 279 279 279 279 279 279 278 278 278 278 278 278 278 277 278 278 278 278 279 279 280

GFSNGP_925_thetae_099.txt.gz
Theta_e
313 313 314 313 313 315 314 315 317 317 313 313 310 309 310 309 311 312 312 311 309 308 307 310 310 310 310 309 308 308 307 307 306 305 305 305 305 304 303 302 302 302 302 302
309 313 314 315 315 315 315 315 314 314 314 310 309 308 309 309 311 312 312 311 310 309 307 308 310 309 309 308 307 307 306 305 305 304 304 304 303 302 302 302 302 301 301 300
312 311 312 314 314 315 314 314 314 315 312 310 310 311 310 309 309 311 312 311 310 308 308 309 310 309 308 307 306 306 305 305 304 304 303 302 302 301 301 300 300 300 300 299
308 308 313 309 307 310 313 312 311 310 310 310 310 310 307 307 309 307 306 311 310 309 309 310 311 309 308 307 306 305 305 304 303 302 302 301 301 300 300 300 299 299 299 298
310 308 309 311 310 310 311 313 311 311 311 309 309 309 308 306 305 305 305 308 310 312 311 310 310 310 308 306 306 305 304 303 302 302 301 301 300 300 299 298 297 298 298 297
308 310 311 311 309 308 309 313 312 311 309 308 308 310 308 305 305 304 305 305 307 312 312 311 310 309 308 306 305 304 304 303 303 302 301 301 300 299 297 295 296 296 296 296
309 309 308 309 308 308 310 313 313 310 308 308 309 306 305 305 304 304 304 306 308 310 310 310 309 308 307 305 304 305 304 303 302 302 301 301 300 298 295 295 294 295 295 295
306 310 309 309 310 313 310 310 312 309 307 308 307 307 306 304 303 303 302 304 305 306 305 307 308 307 306 305 305 304 304 303 302 301 300 300 299 296 294 293 293 294 293 293
307 308 305 305 306 306 305 306 311 309 308 307 307 306 305 304 303 302 302 302 303 303 303 304 306 306 305 305 305 304 303 302 301 300 299 298 297 295 293 292 293 293 292 292
307 307 307 306 306 305 307 309 309 309 309 307 307 307 305 304 302 301 301 301 302 302 302 302 303 303 304 304 303 302 302 301 300 299 298 297 296 294 292 292 292 292 292 291
308 305 306 304 304 306 306 308 307 306 307 307 308 307 305 304 303 302 301 301 301 300 300 300 301 301 302 302 301 301 300 299 299 298 297 296 295 294 292 292 293 293 293 292
308 304 305 304 303 305 306 307 307 306 304 304 304 304 302 301 301 301 300 300 300 300 300 300 300 300 300 299 299 299 299 298 298 298 297 296 295 294 293 292 292 292 291 292
302 302 303 303 303 302 304 303 302 303 303 303 302 302 301 300 299 299 297 297 297 298 299 299 299 299 298 298 298 298 298 298 298 297 297 295 294 293 292 293 292 292 291 291
298 300 303 302 301 300 302 302 302 301 301 301 301 300 300 299 298 296 296 295 295 296 297 296 297 297 297 297 297 296 296 297 297 297 296 295 294 294 293 291 291 292 292 291
296 297 298 299 300 301 301 301 301 300 299 299 298 297 297 296 296 295 294 294 294 294 294 295 295 294 294 295 295 295 295 295 295 296 295 295 294 293 292 292 291 291 291 291
297 296 297 298 299 300 301 301 301 299 298 297 296 295 295 295 295 293 292 292 292 292 293 292 292 292 292 293 294 294 295 295 295 295 295 294 294 293 292 292 291 290 290 290
297 297 297 297 298 300 300 299 299 298 296 294 294 294 294 293 292 291 290 291 291 291 290 289 289 289 290 291 291 292 293 294 294 294 294 294 293 292 292 291 290 290 290 291
296 295 296 297 297 298 298 296 295 293 292 291 291 292 291 290 289 288 288 290 290 290 288 286 286 288 288 288 289 290 290 291 292 292 293 292 292 292 292 291 291 290 290 291
294 294 294 294 293 295 294 292 291 290 289 289 289 289 289 288 287 286 286 288 288 287 285 285 285 285 286 286 287 287 288 289 289 290 291 291 291 291 291 291 291 291 290 290
294 293 292 291 290 292 291 290 290 289 288 287 287 287 286 286 286 285 285 287 287 285 284 284 285 285 284 284 286 285 285 286 287 288 289 289 290 291 291 291 290 290 290 290
293 292 291 290 289 289 287 286 286 286 286 286 285 285 285 285 285 285 284 285 286 285 283 282 283 284 283 284 284 283 283 283 284 285 286 287 287 288 289 289 289 290 289 289
292 291 290 290 289 289 288 288 286 286 288 289 288 288 286 285 284 284 284 285 285 283 282 282 282 282 284 284 283 282 282 282 282 282 283 283 284 284 285 286 287 288 288 289
292 291 290 290 288 288 287 287 288 288 288 286 284 285 284 284 283 283 283 284 283 282 282 282 282 283 284 283 281 281 281 281 281 281 281 281 282 282 282 283 284 284 285 286
292 291 290 290 289 288 287 288 289 287 286 285 284 284 283 283 283 282 283 283 282 282 282 281 282 282 282 281 280 280 280 280 280 280 281 281 281 280 280 280 281 281 282 283
291 292 291 290 289 288 288 289 289 288 285 285 284 284 283 283 282 282 282 282 281 281 281 281 280 280 280 280 279 279 279 279 279 280 279 279 280 279 279 279 279 280 280 281
289 289 289 290 290 290 290 290 287 286 285 285 284 284 283 283 282 282 282 282 281 281 280 280 280 279 279 279 279 279 278 278 278 278 278 278 278 278 277 277 278 278 278 278
286 287 287 287 288 288 288 287 285 285 286 286 285 284 283 282 282 282 282 282 281 280 280 280 279 279 279 278 278 278 277 277 277 277 277 276 276 276 276 276 276 276 276 277

GFSNGP_925_thetae_102.txt.gz
Theta_e
313 312 312 311 312 313 308 314 318 317 315 312 309 308 309 309 311 312 312 309 309 309 307 309 310 311 311 312 311 312 311 310 309 308 307 307 306 305 304 304 304 304 304 304
308 311 313 314 313 313 315 314 315 315 314 310 309 308 308 309 311 312 312 311 308 308 307 308 309 310 310 310 309 309 309 308 307 306 305 305 304 303 303 303 303 303 302 302
310 309 311 310 314 313 314 313 312 314 311 310 311 310 309 308 308 310 311 310 309 307 307 309 309 309 309 309 308 307 307 306 305 305 304 303 302 302 302 302 301 301 301 301
307 306 311 308 306 311 313 310 310 310 310 310 310 307 307 306 306 306 306 310 309 308 308 309 310 309 309 307 306 306 305 305 304 303 303 302 301 301 301 301 301 300 300 299
308 307 307 311 310 310 311 313 311 311 310 309 307 308 308 305 305 305 305 306 307 310 310 310 310 309 308 306 306 305 305 304 303 303 302 301 301 301 300 300 299 298 298 298
307 309 311 310 308 307 308 314 312 310 308 308 307 309 308 304 304 303 303 305 306 309 310 310 310 309 308 306 305 305 304 304 303 303 302 302 301 300 300 299 297 295 296 296
308 310 307 307 308 307 309 310 313 308 307 308 308 306 304 304 303 303 303 305 306 308 309 309 309 309 307 306 305 306 305 304 303 302 302 301 301 300 299 297 295 294 296 296
305 309 309 307 309 313 308 308 311 308 307 308 306 306 305 303 302 301 301 303 304 304 305 307 307 308 307 306 307 305 304 304 303 302 301 301 300 299 298 295 294 294 294 295
306 306 303 303 305 304 304 305 310 308 307 306 306 306 304 303 301 300 300 301 302 302 303 304 305 305 305 305 305 304 304 303 302 301 301 300 299 298 296 294 293 293 293 293
306 306 305 304 304 304 305 308 308 308 308 305 306 306 304 302 301 300 300 300 301 301 300 301 302 303 304 304 304 303 302 302 301 300 300 299 298 297 296 294 293 292 292 292
306 305 304 303 302 304 305 307 306 305 307 307 307 306 305 303 301 301 300 300 300 300 300 299 300 301 302 302 302 302 301 300 300 299 298 298 297 297 295 295 294 293 293 293
306 303 304 304 303 302 304 304 305 305 304 303 305 303 301 300 300 299 298 298 299 299 299 299 299 299 299 299 299 299 299 299 299 299 298 298 297 296 295 294 294 293 293 292
302 301 302 302 303 300 302 302 302 304 303 302 302 302 301 299 298 298 296 296 295 297 298 298 298 298 297 297 297 297 297 297 297 298 298 297 296 295 294 295 294 293 293 292
296 297 302 301 300 298 299 301 301 301 302 302 301 300 300 298 297 296 295 294 295 296 295 295 296 295 295 296 296 296 296 296 296 296 296 296 296 295 294 293 293 293 293 292
295 295 295 296 297 298 301 300 300 299 298 298 298 297 297 296 295 294 293 293 294 293 294 294 293 293 293 294 294 294 295 295 295 295 295 295 295 295 294 293 292 292 292 292
297 297 296 295 297 299 299 299 300 299 298 297 296 295 295 295 294 292 292 292 292 291 291 291 290 290 291 291 292 293 293 294 294 294 294 294 294 294 293 292 292 292 291 291
297 298 297 296 297 298 299 298 297 297 295 294 293 293 293 293 291 290 290 291 291 290 289 288 288 288 289 289 289 290 291 291 292 293 293 294 293 293 292 292 292 291 291 292
296 296 295 295 296 297 298 296 295 293 292 290 291 291 290 289 289 288 287 289 289 289 287 285 285 286 287 287 287 287 288 289 289 290 291 292 292 292 292 291 291 291 291 291
294 294 294 294 293 294 294 293 291 290 290 289 289 289 288 288 287 286 285 288 288 287 284 284 285 285 284 284 286 285 286 286 287 288 289 289 290 290 291 291 291 291 290 290
294 293 292 292 291 291 291 290 290 289 288 287 287 287 286 286 286 285 285 286 287 285 284 283 283 284 284 284 285 283 283 283 284 285 285 287 288 288 289 289 289 289 289 289
294 292 292 291 290 289 287 287 287 287 287 286 286 285 285 285 286 285 284 285 286 285 283 282 282 282 283 284 284 282 283 282 282 282 283 283 284 284 285 285 286 288 288 288
292 291 291 290 290 289 289 288 287 285 286 287 287 288 287 286 285 284 283 284 285 284 282 282 282 283 284 284 283 281 281 281 281 281 281 281 282 282 282 282 283 283 284 284
292 291 291 290 290 289 288 288 288 287 287 288 287 285 285 284 284 283 283 284 284 282 282 282 282 283 284 283 281 280 280 280 280 280 281 281 281 281 281 280 281 281 281 281
291 291 291 291 290 289 287 288 288 288 288 287 288 288 285 284 283 283 282 283 283 282 282 281 282 282 282 281 280 280 279 279 279 279 279 280 280 280 280 279 279 279 279 279
290 291 291 290 289 289 289 290 289 289 289 289 286 285 284 283 283 282 282 282 282 281 281 281 281 280 280 280 279 279 279 278 278 278 278 278 278 278 278 278 277 277 278 279
288 288 289 290 290 290 289 289 288 289 287 285 286 286 284 283 283 283 282 282 282 281 281 280 280 280 280 279 279 278 278 278 277 277 277 277 277 277 277 277 277 277 277 277
286 287 287 287 288 288 288 288 287 287 286 285 285 287 286 284 282 282 282 282 282 281 280 280 280 279 279 279 278 278 277 277 277 277 277 277 277 277 277 277 276 276 276 277

GFSNGP_925_thetae_105.txt.gz
Theta_e
313 311 310 310 311 313 304 310 307 314 313 310 307 307 307 307 310 310 310 309 309 308 306 308 309 310 311 311 311 312 312 311 311 310 309 308 307 307 306 306 305 304 304 303
307 310 312 313 311 312 314 313 314 313 314 309 309 307 306 306 309 311 311 310 309 309 307 307 308 309 310 310 310 311 310 309 308 307 306 306 305 304 304 304 303 302 302 302
308 306 311 309 309 312 313 312 313 315 313 310 310 309 307 306 305 305 306 310 309 308 308 309 309 310 309 309 309 308 308 307 306 305 305 304 304 303 302 302 302 302 301 301
307 305 310 307 306 310 311 310 310 309 310 309 309 307 306 304 305 304 303 306 307 307 308 309 310 309 309 308 307 307 305 305 304 304 304 303 303 302 302 301 301 300 300 300
308 307 306 311 309 311 311 313 311 311 310 308 306 307 307 304 303 303 303 304 305 307 308 309 309 309 308 306 306 305 305 304 304 304 303 302 302 301 301 300 300 299 299 299
306 308 311 309 307 306 308 314 311 309 308 307 307 308 307 303 303 302 303 304 305 307 308 309 309 308 307 306 305 305 305 305 304 303 302 302 301 301 300 300 299 299 297 297
307 306 306 304 307 306 309 307 312 308 307 308 307 305 304 302 302 301 302 303 304 306 307 308 309 308 307 305 305 306 305 304 304 303 302 302 301 300 300 299 298 296 295 296
304 308 308 302 307 311 305 308 310 307 306 308 306 305 304 302 300 300 300 301 302 303 303 305 306 307 306 305 306 305 304 304 303 302 302 301 301 300 299 298 297 295 294 294
304 305 302 303 305 304 305 304 309 307 306 306 306 305 303 302 300 299 299 300 301 302 302 302 304 305 305 305 305 304 304 303 303 302 301 301 300 299 298 297 295 295 294 294
305 305 304 302 303 303 303 306 306 307 307 305 305 305 303 301 300 299 299 299 300 300 299 299 301 303 303 304 304 303 303 302 302 301 300 300 299 298 298 296 295 294 293 293
304 304 303 303 302 302 303 304 305 304 306 306 306 305 304 302 300 299 299 299 299 299 299 298 299 300 301 301 302 302 301 301 300 300 299 299 298 298 297 297 296 295 294 294
308 302 303 304 304 302 302 302 302 304 305 304 306 304 301 300 299 298 297 297 298 298 298 298 298 298 298 298 298 299 299 299 299 299 299 298 298 297 297 296 296 295 294 293
301 299 300 300 301 297 299 300 300 302 303 303 302 302 301 299 298 297 295 295 295 296 296 297 297 297 296 297 297 297 297 297 297 297 297 297 297 297 296 296 295 295 295 294
296 297 301 298 298 296 297 299 300 300 301 302 301 300 299 298 297 295 294 294 294 295 295 295 294 294 294 295 295 296 296 296 296 296 296 296 296 296 296 295 294 295 295 294
295 295 296 295 295 296 298 298 299 298 298 297 298 297 297 296 295 293 293 293 293 293 293 293 292 291 291 292 292 293 293 294 295 295 295 295 295 295 295 294 294 294 294 294
296 296 297 296 295 296 297 299 299 299 298 297 296 295 295 295 294 293 293 292 292 291 291 290 290 289 289 290 290 291 292 292 293 294 294 294 294 294 294 293 293 293 292 293
297 297 297 297 297 296 296 297 297 297 295 294 293 293 292 292 291 290 289 290 290 290 289 287 287 287 288 288 288 289 289 290 290 291 292 292 293 293 293 292 292 292 292 292
296 296 295 295 296 295 295 296 295 294 293 291 291 291 290 289 288 287 286 288 289 289 287 284 285 285 286 285 286 286 286 287 288 288 289 290 291 291 291 291 291 291 291 291
295 294 294 294 294 293 294 294 292 291 290 290 289 289 289 288 287 286 285 286 288 287 285 283 284 285 284 284 285 284 284 284 284 285 286 288 288 289 289 289 290 290 290 289
294 294 293 292 291 291 292 291 291 290 289 288 287 288 287 286 286 285 285 285 287 286 284 283 282 283 284 284 284 283 283 283 283 283 283 284 284 285 285 286 287 287 288 288
294 293 293 292 291 290 289 287 287 288 287 286 285 285 285 285 286 287 287 286 286 286 284 283 282 282 283 284 284 283 282 282 282 282 282 282 282 282 282 282 283 283 284 284
293 292 292 291 290 290 289 289 287 285 286 287 287 287 287 287 287 285 284 284 283 285 283 282 282 282 284 284 284 282 281 281 281 281 281 281 281 281 281 281 281 281 281 281
292 292 292 291 291 290 289 289 288 288 287 286 288 288 286 285 284 284 283 283 284 284 283 282 282 283 284 283 282 281 280 280 280 280 279 280 280 280 281 280 280 280 279 279
292 292 291 291 291 290 288 289 289 288 288 288 288 287 288 288 286 284 283 283 283 283 282 282 282 282 283 282 280 280 279 279 279 279 278 279 279 278 278 279 279 279 278 278
290 291 291 290 289 289 290 290 290 289 289 289 289 289 288 285 284 284 283 282 282 282 282 281 281 281 280 280 280 279 279 278 278 278 278 277 277 277 277 277 277 277 277 277
289 288 289 289 289 290 290 290 289 289 288 288 288 286 286 285 284 283 283 282 282 282 282 281 280 280 280 280 279 279 278 278 277 277 277 277 277 277 277 277 277 277 277 277
287 287 286 286 287 288 288 288 288 287 287 287 286 287 286 286 284 283 282 282 282 282 281 281 280 280 279 279 279 278 278 277 277 276 276 277 277 277 276 276 276 276 277 277

GFSNGP_925_thetae_108.txt.gz
Theta_e
313 311 310 310 310 312 303 309 305 311 312 309 308 306 305 305 308 309 309 308 307 307 305 307 308 309 310 311 311 312 313 314 313 312 312 311 310 308 307 306 306 305 305 304
307 307 311 311 310 312 311 313 312 311 312 309 307 306 305 304 305 306 307 308 307 307 306 306 308 308 309 309 310 310 310 310 309 309 308 306 305 305 305 305 304 304 303 303
306 305 310 307 307 311 312 311 312 314 312 309 308 307 306 305 304 303 304 306 307 306 307 308 308 309 308 308 308 309 309 307 306 306 305 305 304 304 304 303 303 302 302 302
306 304 309 306 306 308 310 309 308 309 309 308 308 306 305 303 304 304 303 303 303 304 306 308 309 309 308 308 308 307 307 306 305 305 304 303 303 302 302 302 301 301 301 301
307 306 306 310 308 313 312 312 311 310 309 307 306 306 306 303 303 302 302 302 304 305 307 308 308 308 308 306 306 306 305 304 304 303 303 302 302 301 301 301 300 300 300 300
305 306 311 308 306 305 307 313 311 309 307 307 306 307 305 303 302 301 301 302 303 305 307 307 308 308 307 306 305 304 304 304 304 303 302 302 301 301 301 300 300 299 299 298
306 305 306 303 305 305 308 305 310 308 306 307 306 304 303 301 301 300 301 301 303 304 305 306 307 307 306 305 305 305 304 304 303 303 303 302 301 301 300 300 299 299 298 298
304 307 307 302 305 309 304 305 309 307 306 307 305 304 302 301 300 299 299 300 301 301 302 303 305 306 305 304 305 305 304 303 302 302 301 301 301 300 300 299 298 298 297 296
303 304 302 303 305 303 303 304 307 307 305 306 306 305 302 301 300 299 298 299 300 300 300 302 303 305 304 304 304 304 304 303 302 302 301 300 300 300 299 298 298 297 296 295
304 304 303 303 303 302 303 304 304 304 305 305 304 303 303 300 298 298 298 298 299 299 298 298 301 302 302 302 302 303 302 302 301 301 300 300 300 299 299 298 297 297 295 295
302 303 302 302 302 301 302 301 302 302 304 305 305 305 303 301 299 298 298 298 298 298 297 297 298 298 299 300 301 301 301 300 300 300 300 299 299 299 299 299 298 297 296 296
304 301 302 302 301 300 301 301 300 301 303 304 306 306 302 299 298 297 296 296 297 297 297 296 297 297 297 297 298 298 299 299 299 299 299 298 298 298 298 298 297 296 296 295
301 300 300 300 298 297 299 299 300 300 300 302 302 302 301 298 297 297 295 295 295 295 295 295 295 295 295 296 296 296 296 296 297 297 297 297 297 297 297 297 296 296 295 295
295 297 300 298 298 295 297 298 299 299 299 300 301 300 299 298 297 295 294 294 294 294 294 294 293 292 292 293 293 294 294 294 295 295 295 295 296 296 296 295 295 296 296 295
296 294 295 295 295 295 296 297 298 297 296 297 297 297 297 297 295 293 293 292 293 293 292 292 291 290 290 290 290 291 292 292 292 293 294 294 295 295 295 295 294 294 295 294
294 295 295 296 296 295 294 295 297 299 298 297 296 295 294 294 293 292 291 291 292 291 290 290 289 288 289 289 289 289 290 290 291 291 292 293 293 293 293 293 293 293 293 293
295 296 295 296 296 296 296 296 295 295 295 294 293 293 293 292 291 290 289 289 290 290 289 287 286 286 287 287 287 287 287 287 288 288 289 290 291 291 291 291 292 292 291 292
294 294 295 295 296 295 295 296 295 294 294 292 292 291 290 290 289 288 286 286 288 289 288 286 284 285 285 284 285 285 284 285 285 285 287 288 289 289 290 290 290 290 290 291
294 293 294 294 294 294 294 294 293 292 291 290 290 290 289 289 288 287 286 285 287 287 287 284 283 283 284 284 285 284 283 283 283 283 283 284 285 286 287 287 288 288 288 289
292 294 293 293 292 292 292 292 291 290 290 289 288 288 287 286 286 286 285 285 285 287 286 284 283 282 282 283 284 284 282 282 282 282 282 283 282 283 283 283 284 284 284 285
291 293 293 292 292 291 290 289 287 288 289 287 286 286 285 285 285 287 287 287 287 286 287 286 283 282 282 283 284 284 282 281 281 281 281 281 281 281 281 281 281 281 281 282
292 292 292 292 291 290 290 289 288 286 285 286 286 287 287 288 288 287 285 285 284 283 285 284 282 282 283 285 284 283 281 281 280 280 280 280 280 280 281 281 281 280 280 280
292 292 292 292 291 291 290 289 289 288 288 287 286 287 287 288 286 284 283 285 283 283 284 283 282 282 284 284 283 281 280 280 280 279 279 279 279 279 279 279 279 279 279 279
292 292 291 291 291 290 289 290 289 289 289 289 288 288 288 287 288 288 287 284 283 283 283 283 282 282 283 282 281 280 280 279 279 279 278 278 278 278 278 278 278 278 277 277
291 291 290 290 287 288 289 290 290 290 289 289 289 289 289 288 287 287 285 283 282 283 283 282 282 282 281 280 280 280 280 279 278 278 278 277 277 277 277 277 277 277 277 277
289 288 289 289 288 288 289 289 289 289 289 288 289 289 289 287 286 285 284 283 283 282 282 282 281 281 280 280 279 279 279 278 278 277 277 277 277 277 276 276 277 277 277 277
288 287 287 286 286 287 288 288 288 288 288 288 287 287 287 286 286 285 284 283 282 282 281 281 281 280 280 279 279 279 278 278 277 277 277 277 276 276 276 276 276 277 277 277

GFSNGP_925_thetae_111.txt.gz
Theta_e
311 311 311 310 311 311 309 309 309 311 310 309 307 306 305 304 305 307 308 308 308 308 307 307 308 309 309 312 316 318 318 317 317 316 316 316 314 313 311 309 308 307 306 305
306 309 309 309 309 310 312 311 311 310 311 308 306 306 306 305 304 305 306 307 306 306 306 306 307 308 309 310 311 313 315 315 313 312 310 310 309 308 306 306 305 305 304 303
306 305 309 307 307 311 311 309 311 313 311 307 308 307 306 305 305 304 304 304 304 305 305 307 307 308 308 308 308 309 309 307 307 307 307 306 305 305 304 303 302 302 302 301
305 303 309 305 306 307 310 309 307 308 308 307 307 305 304 303 303 303 303 302 303 303 304 306 307 307 307 307 307 307 306 306 305 305 305 303 303 303 302 302 301 301 301 302
307 305 305 309 307 312 312 313 309 309 306 306 305 305 305 303 302 301 301 301 302 303 304 306 307 307 307 306 306 305 304 304 304 304 303 303 302 302 301 301 301 301 301 301
305 306 310 308 305 304 307 313 309 307 306 307 305 306 305 302 300 300 300 300 301 303 305 306 306 306 306 305 304 304 304 304 303 303 303 302 301 301 301 300 300 300 300 300
307 305 305 303 303 304 307 307 309 306 306 306 306 304 302 300 300 299 300 300 301 302 302 304 306 306 305 304 304 304 304 303 302 302 302 302 301 301 301 300 300 299 299 299
303 306 307 303 304 308 303 304 308 306 305 305 303 302 302 301 299 299 298 299 300 300 301 303 304 305 305 305 304 304 304 304 303 302 302 301 301 300 300 299 298 298 298 297
303 304 300 303 304 303 303 303 306 306 304 305 305 304 302 301 299 298 298 298 299 299 300 301 303 304 303 302 303 303 303 302 302 301 301 300 300 300 299 298 298 297 296 296
304 304 303 303 302 302 303 304 304 304 304 304 304 303 303 300 298 298 298 298 298 298 297 297 299 300 300 301 302 302 302 301 301 301 300 300 300 299 299 298 297 297 297 297
301 302 302 301 302 301 302 300 301 302 304 305 303 304 303 301 299 298 297 297 297 297 296 296 296 297 297 299 300 301 301 300 300 299 299 299 298 298 299 299 299 298 297 297
303 300 301 300 300 299 301 301 300 301 302 303 305 305 302 299 298 296 295 295 296 296 296 295 295 295 296 296 297 297 298 298 298 299 298 298 298 298 298 298 298 297 297 297
301 298 299 299 296 297 299 299 299 299 300 301 302 302 301 298 296 296 295 294 295 294 295 294 294 294 294 294 295 295 295 295 295 295 296 296 296 296 296 296 296 296 296 296
296 297 299 298 298 296 297 298 299 298 298 298 300 300 299 298 296 295 294 293 293 294 294 293 293 292 291 291 291 292 292 293 293 293 294 294 294 295 295 295 295 296 296 296
294 294 295 293 294 295 295 295 297 297 296 296 297 297 297 297 295 293 293 293 293 292 291 291 291 290 290 290 290 291 291 291 292 292 292 293 293 293 294 294 294 294 294 295
293 293 293 294 294 294 295 294 295 295 296 297 296 295 295 294 293 292 291 291 292 291 290 289 289 288 288 288 288 289 289 289 290 290 291 291 292 292 292 292 292 293 293 293
294 295 294 294 295 295 296 296 296 295 294 294 294 294 294 293 292 291 290 290 290 290 289 287 286 286 286 285 285 286 285 285 287 287 288 288 289 290 290 291 291 291 291 291
294 294 293 293 293 294 295 296 296 295 294 293 292 292 291 291 290 289 287 286 287 288 288 287 284 284 285 284 284 285 283 283 283 284 284 285 287 288 288 289 289 289 289 290
293 292 293 294 294 294 295 295 294 293 292 291 291 290 290 290 289 288 287 285 285 287 287 286 283 283 283 284 284 284 283 283 283 283 282 283 283 283 284 285 285 286 287 287
292 293 293 293 293 293 293 292 292 291 291 290 289 289 288 287 286 286 285 285 285 285 286 286 285 286 283 282 283 284 284 282 282 282 282 282 282 282 282 282 282 282 282 283
290 292 291 292 292 292 291 290 289 288 289 288 287 286 286 285 285 285 286 285 288 286 285 286 286 283 282 283 284 284 283 282 281 281 281 281 281 281 281 281 281 281 280 281
290 290 291 292 291 291 291 290 289 289 286 286 286 285 286 286 287 287 287 286 285 284 284 285 285 283 282 284 284 284 282 281 281 280 280 280 279 279 280 280 280 280 280 280
291 291 291 292 291 291 291 290 290 289 289 288 286 286 286 287 288 286 284 286 285 284 283 284 284 283 283 284 284 283 282 281 281 280 279 279 278 279 279 278 278 278 278 278
290 291 291 291 291 291 289 291 290 290 289 289 289 289 288 287 288 288 288 288 286 284 283 283 283 283 283 283 283 282 280 280 280 279 278 278 278 278 277 277 277 277 277 277
291 291 290 290 287 288 288 290 289 289 289 289 289 290 290 289 288 289 289 287 285 283 282 283 283 283 283 282 281 280 280 279 279 279 278 278 277 277 277 277 277 277 277 277
289 289 289 289 288 288 287 288 287 289 288 288 289 289 289 288 288 288 286 285 284 283 283 282 282 282 281 280 280 279 279 279 279 278 277 277 277 276 276 276 276 277 277 277
289 288 287 287 288 288 287 287 287 287 288 288 288 288 287 287 286 286 285 285 284 283 282 282 281 281 281 280 279 279 279 279 278 277 277 276 276 276 276 276 276 277 277 277

GFSNGP_925_thetae_114.txt.gz
Theta_e
313 313 312 314 315 314 314 313 318 314 314 312 311 311 310 309 310 311 310 311 311 311 312 312 312 311 313 314 315 315 316 316 315 315 317 317 316 314 313 313 313 312 309 307
312 310 312 314 313 314 314 314 314 314 314 311 311 311 311 310 310 309 308 309 309 310 312 311 311 310 310 311 312 313 313 311 311 312 311 310 310 309 308 307 306 305 304 304
314 309 311 314 312 314 313 312 314 316 313 312 312 310 310 309 309 308 307 307 307 309 309 310 310 310 309 309 308 309 308 307 306 307 307 307 308 307 306 305 304 304 303 303
311 309 313 310 310 310 314 313 312 312 311 310 310 309 309 308 307 307 307 307 308 307 308 308 309 308 308 307 307 306 306 305 304 304 303 303 302 302 302 302 302 302 302 301
312 311 310 310 310 313 314 315 311 310 310 309 309 309 310 307 305 305 305 305 306 306 307 307 308 307 307 307 306 306 305 304 303 303 302 301 301 301 301 301 301 301 301 301
311 312 313 310 308 307 310 316 311 310 310 310 309 312 312 306 305 305 304 304 304 305 307 308 307 306 307 307 307 306 305 304 303 302 302 301 301 301 300 300 301 300 300 300
312 311 309 306 306 306 311 314 312 309 310 310 311 310 307 305 304 303 303 303 303 304 304 305 305 306 306 306 306 304 303 302 302 302 302 301 300 300 300 300 299 299 297 297
310 312 312 306 307 309 310 309 311 309 308 309 308 306 305 305 304 303 302 302 302 303 302 303 304 305 305 304 303 303 303 303 302 302 301 300 300 300 299 298 298 298 298 297
308 308 305 306 308 307 307 310 310 310 308 308 307 306 305 305 304 302 301 300 300 302 301 299 299 301 303 301 301 302 302 301 301 300 300 299 299 298 298 298 299 298 296 297
308 306 307 306 306 306 307 308 307 308 307 307 308 307 305 303 303 302 301 300 300 300 300 297 297 298 298 300 301 301 301 300 300 300 299 298 298 298 299 298 298 298 297 297
306 305 305 305 305 306 305 304 305 305 307 307 307 307 306 304 302 300 300 299 299 299 298 297 296 295 296 296 299 300 300 301 300 300 299 298 298 297 298 298 298 298 297 297
309 307 307 307 305 303 304 303 303 305 306 305 307 307 305 302 300 299 298 297 298 297 297 295 294 294 294 295 295 296 297 297 297 298 298 298 298 298 298 298 298 298 298 297
307 304 304 304 302 301 302 302 302 302 302 304 304 305 303 300 298 297 296 296 296 295 295 294 293 293 292 292 293 293 294 294 295 295 295 297 296 296 296 297 297 297 297 297
302 303 303 302 303 300 300 300 300 300 300 301 302 301 301 300 298 296 296 294 294 294 294 293 292 292 292 292 291 291 292 292 292 293 292 293 294 294 294 295 296 296 297 296
301 298 302 301 299 299 298 298 300 300 300 300 299 300 300 299 298 296 294 293 293 293 292 292 291 291 291 291 290 290 290 291 291 291 291 292 292 292 293 293 293 294 294 295
298 298 298 299 298 298 298 298 299 299 299 299 298 297 297 296 295 293 292 292 292 293 291 290 289 288 288 288 288 288 288 288 289 289 289 290 290 291 291 292 292 292 292 293
299 298 298 298 298 298 298 298 298 297 297 296 295 295 294 294 293 292 291 291 291 291 289 288 287 286 286 285 285 285 285 284 285 285 286 287 288 289 289 289 290 290 291 291
298 299 298 298 298 297 297 297 297 296 296 295 294 293 293 293 293 292 290 287 286 288 288 287 286 285 285 284 285 285 284 283 283 284 284 284 286 286 287 287 288 288 289 289
296 297 296 296 296 296 296 296 296 295 294 293 292 292 291 291 290 289 288 286 286 287 288 287 285 283 284 284 284 285 284 283 283 283 283 283 283 283 284 284 285 285 285 286
295 295 295 295 295 295 295 294 294 293 292 291 291 291 290 290 288 286 286 286 286 286 287 286 285 284 285 283 283 285 284 283 283 283 282 283 283 283 283 282 282 283 283 283
295 294 294 294 293 293 293 292 291 291 290 289 289 289 288 288 285 285 285 287 289 287 287 286 286 286 283 282 283 285 284 283 282 282 282 282 282 282 282 282 282 282 281 281
293 293 293 292 292 292 291 291 290 290 289 287 287 286 285 285 286 286 287 288 288 285 284 284 284 285 283 282 285 285 283 282 282 281 281 281 281 280 280 281 281 281 281 281
291 291 292 291 291 291 291 291 290 290 289 289 288 286 286 287 287 287 288 288 286 285 284 284 284 284 283 284 284 283 283 282 281 281 281 280 280 279 279 279 278 279 279 278
291 291 292 292 291 290 290 290 290 290 290 289 289 289 289 287 287 288 289 289 288 288 286 284 283 284 284 284 284 283 282 281 280 280 280 279 279 278 278 277 277 277 277 277
291 291 291 289 289 290 289 289 289 289 289 289 289 290 289 289 288 289 289 289 289 286 285 283 283 284 284 284 283 282 281 280 279 279 279 279 278 277 277 277 277 277 277 277
289 290 290 290 290 289 289 287 287 288 288 288 288 289 289 289 289 288 288 288 287 285 284 284 283 283 283 282 282 281 280 279 279 279 278 278 277 277 276 276 276 276 276 276
289 289 288 287 288 288 288 287 286 287 287 287 288 288 288 288 287 287 286 286 285 285 284 283 283 282 282 281 281 280 279 279 279 278 278 277 277 276 276 276 276 276 276 277

GFSNGP_925_thetae_117.txt.gz
Theta_e
313 314 314 315 315 315 317 316 319 316 315 314 313 312 311 311 311 310 311 311 312 313 313 313 314 316 316 316 318 320 321 320 320 320 319 318 318 317 316 315 315 315 315 313
313 312 314 314 315 315 315 315 315 315 315 313 312 311 311 310 310 310 309 310 310 311 313 313 312 312 313 314 315 317 317 315 316 316 315 314 315 314 313 312 313 312 311 310
315 312 312 314 314 314 315 314 315 316 314 312 312 311 311 310 310 309 309 309 310 310 311 311 311 311 311 311 312 312 311 310 310 310 310 310 309 309 308 309 309 308 307 306
313 311 315 312 312 313 315 314 313 312 311 311 311 311 309 309 309 308 308 309 309 309 310 310 311 310 310 309 309 309 309 308 308 308 307 306 306 305 305 304 304 303 303 303
314 313 312 312 312 314 316 314 311 311 311 310 310 312 310 308 307 307 308 308 308 308 309 310 309 309 309 309 308 307 307 306 306 305 304 304 304 304 303 303 302 302 302 302
312 313 314 311 310 310 311 316 312 311 311 311 311 314 311 308 306 306 306 306 307 308 309 309 308 309 309 309 309 307 306 305 305 304 304 304 303 302 301 301 301 301 300 301
312 313 311 308 309 309 313 316 312 311 311 311 311 310 308 307 306 305 305 305 306 306 306 307 307 309 308 307 306 305 305 304 303 303 303 303 302 302 301 301 300 300 300 300
310 311 313 308 309 312 313 313 312 311 311 310 309 308 308 307 306 305 304 303 305 304 303 302 304 307 305 304 304 304 304 303 303 302 302 301 301 300 300 299 299 299 299 299
310 310 308 308 310 309 309 311 311 311 310 310 309 309 308 307 306 305 304 303 303 303 301 299 299 301 300 300 301 303 304 303 303 302 301 301 300 300 300 300 301 300 299 299
309 308 309 309 309 309 309 310 310 310 309 309 309 309 307 306 305 304 303 302 302 302 301 299 297 297 298 300 302 302 301 301 300 301 301 300 300 300 301 300 301 301 299 298
309 308 308 308 308 309 308 307 308 308 309 308 309 308 308 306 305 303 302 301 301 301 300 298 298 297 296 297 298 299 300 301 301 300 299 299 298 299 299 300 300 300 300 299
308 308 309 309 307 307 307 306 306 307 307 307 308 309 308 306 304 302 301 300 300 300 299 297 296 295 295 295 296 297 298 297 297 297 298 299 299 299 299 300 299 298 298 298
308 307 307 307 306 305 305 305 304 304 305 306 306 307 306 304 301 299 299 299 298 297 296 295 295 294 295 295 294 294 294 294 295 296 296 296 297 296 296 297 298 298 298 298
306 305 306 305 306 304 304 303 302 303 302 303 304 304 304 303 300 299 298 297 296 296 295 295 293 293 292 292 292 292 293 292 293 293 293 293 293 293 294 294 295 296 296 296
305 303 306 305 304 303 302 302 302 303 302 302 301 302 302 302 301 299 296 295 294 294 294 293 292 291 291 291 291 291 291 291 291 291 291 291 291 292 292 292 293 293 294 294
304 302 303 303 303 302 301 301 301 301 301 301 301 299 299 298 298 296 294 293 294 295 293 292 290 289 288 288 288 288 288 287 287 289 289 288 289 290 290 290 291 291 292 292
302 301 302 302 302 301 300 300 300 300 299 299 299 297 296 296 295 294 293 292 292 292 292 291 289 288 287 287 286 287 286 286 286 285 286 286 286 288 288 289 289 289 290 290
303 303 301 302 301 300 299 299 298 298 297 297 296 295 295 294 295 295 293 291 288 288 289 289 288 287 286 286 285 286 286 285 285 285 284 284 285 285 285 286 287 288 288 288
300 301 300 300 300 299 299 298 297 297 296 295 294 294 293 293 293 292 291 289 288 288 288 288 288 286 285 285 284 285 286 285 284 284 284 284 284 284 284 284 284 284 285 285
299 299 298 298 298 297 297 296 296 296 295 294 293 292 292 292 291 290 288 288 287 287 287 287 287 286 285 285 285 284 285 285 284 284 284 284 284 283 283 283 283 283 283 283
298 297 297 296 296 295 295 295 294 294 293 291 291 291 291 291 289 288 287 287 288 289 288 288 287 286 286 285 283 284 285 285 284 284 283 283 283 283 282 282 282 282 282 282
296 296 296 295 294 294 293 293 292 291 290 289 289 289 288 287 287 286 286 287 288 289 287 285 285 285 285 284 283 285 286 285 283 283 283 282 282 282 281 281 281 281 281 281
294 294 294 293 293 293 292 292 291 290 290 290 289 289 287 287 288 289 289 290 289 287 286 285 285 284 284 284 284 285 285 284 283 282 282 282 281 281 280 280 280 279 279 279
294 294 294 293 292 292 291 291 291 291 290 290 290 290 289 288 288 289 289 289 288 288 288 288 287 285 284 284 284 285 284 284 283 281 281 281 280 279 279 279 278 278 278 278
293 293 293 292 291 292 292 291 290 290 289 289 290 290 290 290 289 290 289 289 289 289 289 288 286 285 285 284 285 284 284 283 282 281 280 280 279 279 278 278 277 277 277 277
293 293 293 292 292 292 291 290 289 289 289 289 289 289 289 289 289 289 288 288 288 288 287 286 285 284 284 285 284 284 283 282 281 280 280 279 279 278 278 277 277 277 276 276
292 292 291 290 290 290 289 289 288 288 288 288 288 288 288 288 288 287 287 286 286 285 285 284 284 283 283 283 282 281 281 280 280 279 279 278 278 277 277 276 276 276 276 276

GFSNGP_925_thetae_120.txt.gz
Theta_e
314 314 314 314 315 315 314 314 315 316 315 313 311 310 309 309 309 310 311 311 312 313 312 312 313 315 317 319 321 323 323 324 323 323 323 323 322 323 323 324 323 323 323 324
312 312 313 314 314 315 316 317 314 316 313 310 310 309 309 308 309 309 309 310 310 311 311 311 311 312 314 316 317 318 318 317 318 319 319 319 319 319 320 320 318 319 319 317
313 312 311 312 315 314 314 313 313 314 312 310 310 309 308 308 308 309 308 308 309 309 310 310 309 310 311 312 313 313 313 313 313 314 313 313 314 315 315 314 314 313 311 312
311 310 314 312 312 313 313 312 311 311 310 310 309 308 307 306 307 308 307 307 308 308 309 309 309 309 309 309 309 310 309 309 309 310 309 309 309 309 309 309 308 308 307 307
311 310 311 312 312 313 314 313 310 310 309 309 309 308 307 306 305 306 305 306 307 308 308 308 309 309 309 308 307 307 306 306 307 307 306 306 305 305 305 305 305 305 305 305
310 312 314 311 310 309 309 314 310 310 309 309 308 310 308 305 304 304 305 306 306 306 307 308 308 308 307 306 305 305 305 305 305 305 305 305 304 304 304 304 303 303 303 303
310 309 310 308 308 308 313 314 310 310 309 308 308 306 306 305 304 304 304 305 304 303 302 303 307 306 304 304 304 304 304 304 303 303 303 303 303 302 302 302 301 301 301 301
308 310 309 308 309 312 312 310 309 309 308 308 307 307 306 304 303 303 302 303 302 300 299 301 303 303 301 302 303 304 303 303 303 303 302 302 302 301 300 300 300 300 300 300
307 308 308 308 308 308 309 309 310 308 308 308 307 307 305 304 303 302 302 303 302 300 298 298 299 300 299 300 301 302 303 303 302 302 301 301 301 300 300 300 300 299 299 299
307 307 307 308 308 308 308 308 308 308 308 308 307 306 305 304 302 301 301 301 301 300 299 298 298 298 298 299 301 301 301 301 300 301 301 300 300 300 300 300 300 301 300 299
307 307 307 307 307 307 307 306 307 307 307 307 307 307 305 304 301 301 301 300 300 299 298 297 296 296 297 299 299 299 299 299 299 300 300 300 300 300 300 300 300 300 300 299
305 305 306 306 305 306 306 306 306 306 306 306 307 307 305 302 302 301 300 300 299 299 297 297 296 297 296 296 296 298 298 297 297 297 297 298 298 298 299 299 299 300 300 299
305 304 305 304 305 305 304 303 303 303 304 305 305 305 305 302 300 299 299 299 298 297 297 296 295 295 295 295 294 295 295 294 295 295 295 295 295 295 295 296 296 298 298 298
303 303 305 304 303 303 302 302 303 302 302 303 303 303 303 302 299 299 298 297 296 296 296 295 295 294 293 292 292 292 292 292 292 292 292 292 293 293 293 293 293 294 295 296
302 301 303 302 301 301 302 301 301 301 300 301 301 301 301 301 300 298 296 295 295 295 294 294 293 292 291 290 290 290 290 290 290 290 290 290 290 290 291 291 292 292 293 293
301 302 302 301 301 300 300 300 300 300 299 300 300 299 298 297 297 296 295 294 294 294 293 293 291 290 289 288 287 288 288 287 286 287 287 287 287 288 288 290 290 290 290 291
300 300 301 301 300 299 299 298 298 298 298 298 298 297 296 296 296 295 295 295 294 292 292 292 291 289 288 287 286 286 286 285 286 285 285 285 285 286 287 287 287 288 289 289
301 300 300 300 299 298 298 298 298 298 297 297 297 296 296 295 295 295 295 293 292 290 289 289 289 288 287 286 285 285 286 286 285 284 284 284 284 285 284 284 285 286 287 287
301 299 299 299 299 298 297 297 297 297 297 296 295 295 294 294 293 293 292 291 290 288 289 288 288 288 287 285 285 285 285 286 285 284 284 284 284 284 284 284 284 284 284 284
298 299 298 298 298 298 296 297 297 296 295 295 294 293 292 292 293 292 291 289 288 288 287 287 287 288 287 285 286 286 283 285 285 284 284 284 284 283 283 283 283 283 282 282
295 296 296 296 296 296 296 295 295 294 294 293 292 292 291 291 291 290 288 287 288 288 289 289 288 288 286 286 286 284 283 285 285 285 284 283 283 283 282 282 282 282 282 282
294 294 294 295 294 294 294 294 293 292 291 291 290 290 290 290 289 288 287 287 288 288 288 289 287 285 285 285 285 284 283 285 286 284 283 283 282 282 282 281 281 281 281 281
293 294 294 294 293 293 293 292 292 291 291 290 290 290 289 290 289 287 286 289 290 290 289 288 286 285 285 286 285 285 284 285 285 284 283 282 282 281 281 280 280 280 280 279
293 294 294 294 293 292 290 292 291 291 291 291 290 290 290 289 289 290 289 289 289 289 289 289 289 288 288 286 285 284 284 285 284 284 283 282 281 280 280 279 279 279 278 278
293 294 293 293 291 290 291 291 291 291 291 290 290 290 290 290 289 290 290 290 290 289 289 289 289 288 287 286 285 285 285 284 284 283 283 281 280 279 279 279 278 278 277 277
292 292 292 293 292 292 292 291 290 290 290 289 290 289 289 289 289 289 289 289 288 288 288 287 287 286 286 285 285 284 285 284 284 283 281 280 280 279 279 278 278 277 277 276
293 293 292 291 292 292 291 290 290 289 289 289 288 288 288 288 288 288 288 287 287 286 286 285 285 284 284 284 284 284 283 282 282 281 280 279 279 279 278 278 277 276 276 276

GFSNGP_925_thetae_123.txt.gz
Theta_e
314 313 314 315 315 315 314 314 315 314 313 311 309 309 309 309 310 310 311 312 312 312 312 314 314 315 316 318 321 323 322 323 323 324 324 324 324 324 325 325 324 325 325 326
311 311 312 314 314 314 314 313 312 313 313 309 308 307 308 308 309 309 310 311 311 310 310 310 311 311 312 313 315 319 318 318 320 321 321 321 322 323 323 324 324 324 324 323
310 310 309 311 316 312 312 310 311 312 311 308 308 308 307 308 307 308 309 309 309 309 309 309 308 309 310 311 313 313 312 313 315 316 316 317 317 318 318 318 318 318 319 318
307 307 311 312 312 312 311 312 310 310 310 308 308 307 306 305 306 306 306 307 307 307 307 308 307 307 307 308 308 310 310 310 310 310 310 311 311 311 311 312 313 313 313 312
308 308 311 312 311 313 313 312 309 309 308 309 307 307 307 304 303 304 305 305 305 305 306 306 306 306 306 305 306 306 305 306 307 308 308 308 309 309 308 307 307 306 307 307
308 310 313 310 309 308 309 313 309 308 307 307 307 309 308 303 302 302 303 302 302 302 303 304 304 304 304 304 304 304 304 305 305 305 306 306 305 305 305 305 306 306 305 305
308 307 308 307 307 307 312 311 309 308 306 306 306 304 304 302 301 301 302 301 300 300 299 301 302 303 301 302 303 303 303 303 303 304 304 304 304 303 303 303 302 302 302 302
305 308 307 307 308 310 310 308 307 307 306 306 306 305 303 302 301 301 300 300 299 298 298 300 301 302 300 301 302 303 303 302 302 302 302 302 302 301 301 301 301 300 300 300
305 305 305 307 307 307 306 307 307 306 305 306 306 305 303 302 301 300 300 300 299 298 297 298 299 301 300 301 302 302 302 301 301 301 301 301 301 300 300 300 300 300 299 300
305 306 306 307 307 307 306 306 306 305 306 305 305 304 303 302 300 300 300 300 299 298 296 296 296 297 297 298 299 301 301 300 301 301 300 300 299 299 300 300 300 300 300 299
304 306 306 306 306 305 305 305 306 306 305 305 304 303 302 301 300 300 300 299 299 298 297 297 299 299 298 297 297 297 297 297 297 298 298 299 299 299 299 299 298 299 299 299
304 303 304 304 304 304 304 305 304 305 305 305 305 304 302 300 300 299 299 299 298 298 298 299 299 299 298 298 297 296 295 294 294 295 295 295 296 296 296 296 297 298 298 298
303 302 303 303 303 303 303 302 303 302 303 303 303 304 302 299 298 298 298 298 298 297 296 296 296 296 296 296 296 295 294 294 293 292 292 292 292 293 293 293 294 295 295 296
301 302 304 304 303 301 301 302 303 302 302 302 302 303 302 300 299 298 297 297 297 296 295 295 294 294 294 293 292 292 292 291 291 291 290 290 290 289 290 290 291 292 293 294
301 301 302 300 299 299 300 300 299 299 299 299 301 300 300 299 298 296 296 295 295 295 294 294 293 293 291 290 289 289 289 289 289 288 288 288 286 286 287 288 289 290 290 290
300 300 299 300 299 299 298 298 298 298 298 298 298 297 297 297 296 295 295 294 294 293 293 293 292 291 290 289 288 287 288 287 286 286 285 285 286 285 286 287 286 287 287 288
300 300 299 299 299 298 298 297 297 297 297 297 297 297 296 296 295 295 296 295 295 294 292 291 291 290 288 288 286 285 286 285 285 285 285 285 284 284 285 285 284 285 285 287
299 299 299 299 299 298 297 297 297 297 296 297 297 296 296 295 294 294 294 293 292 291 290 290 289 289 288 287 286 285 285 285 285 285 284 284 284 284 284 284 284 284 284 284
298 297 298 298 298 297 296 296 296 297 296 296 295 294 294 294 294 293 293 292 290 289 290 289 288 288 288 287 285 285 285 286 286 285 284 284 284 284 284 283 283 283 283 283
297 298 298 298 298 297 295 296 296 296 296 295 294 293 292 292 292 292 292 291 290 289 288 288 287 287 287 288 286 285 286 284 284 285 284 284 284 284 283 283 283 282 282 282
296 295 295 295 295 297 297 296 296 294 294 294 293 292 291 291 291 290 290 288 291 288 288 289 289 288 287 287 286 286 285 284 283 285 285 284 283 283 283 282 282 282 281 281
293 294 294 294 294 294 295 295 294 294 293 292 291 291 290 290 290 290 290 288 290 288 288 288 288 289 287 285 285 285 285 284 283 285 285 284 283 283 282 282 281 281 280 280
293 293 293 293 292 292 293 293 292 292 291 290 290 290 289 290 290 288 287 290 289 289 289 289 289 288 287 286 286 286 286 285 284 284 285 284 284 282 281 281 280 280 279 279
292 293 293 293 292 291 288 292 292 291 291 291 291 290 290 290 290 290 290 289 289 289 289 289 289 289 288 287 287 287 286 285 284 284 284 284 283 282 281 280 279 279 279 278
293 292 292 291 290 290 291 292 291 291 291 291 291 290 290 290 289 290 289 289 289 289 289 289 289 288 288 288 288 287 286 285 284 284 284 284 283 282 280 280 279 279 278 278
291 291 291 292 292 292 291 291 290 290 290 289 290 289 289 289 289 289 289 289 288 288 288 287 287 286 286 286 286 285 285 285 284 284 284 283 282 280 280 279 278 278 277 276
292 292 291 291 291 291 291 291 290 289 290 289 289 289 288 287 287 287 287 287 287 287 286 286 285 285 284 284 284 284 284 284 284 283 282 281 280 280 279 278 278 277 276 275